[[{"header":{"parameterUnit":"m.s-1","parameterCategory":1,"la1":30.6,"la2":29.2853,"lo1":-89.7004,"lo2":-87.6739,"dy":0.0162,"dx":0.0183,"nx":112,"ny":82,"refTime":"2023-06-04T06:00:00:Z","depth":0,"parameterNumber":2,"parameterNumberName":"U-component_of_WINDS"},"data":[0.0,0.0,0.0,0.0,0.0,0.0,0.0,0.0,0.0,0.0,0.0,0.0,0.0,0.0,0.0,0.0,0.0,0.0,0.0,0.0,0.0,0.0,0.0,0.0,0.0,0.0,0.0,0.0,0.0,0.0,0.0,0.0,0.0,0.0,0.0,0.0,0.0,0.0,0.0,0.0,0.0,0.0,0.0,0.0,0.0,0.0,0.0,0.0,0.0,0.0,0.0,0.0,0.0,0.0,0.0,0.0,0.0,0.0,0.0,0.0,0.0,0.0,0.0,0.0,0.0,0.0,0.0,0.0,0.0,0.0,0.0,0.0,0.0,0.0,0.0,0.0,0.0,0.0,0.0,0.0,0.0,0.0,0.0,0.0,0.0,0.0,0.0,0.0,0.0,0.0,0.0,0.2397,0.2754,0.2888,0.2766,0.2925,0.273,0.2052,0.0,0.0,0.0,0.0,0.0,0.0,0.0,0.0,0.0,0.0,0.0,0.0,0.0,0.0,0.0,0.0,0.0,0.0,0.0,0.0,0.0,0.0,0.0,0.0,0.0,0.0,0.0,0.0,0.0,0.0,0.0,0.0,0.0,0.0,0.0,0.0,0.0,0.0,0.0,0.0,0.0,0.0,0.0,0.0,0.0,0.0,0.0,0.0,0.0,0.0,0.0,0.0,0.0,0.0,0.0,0.0,0.0,0.0,0.0,0.0,0.0,0.0,0.0,0.0,0.0,0.0,0.0,0.0,0.0,0.0,0.0,0.0,0.0,0.0,0.0,0.0,0.0,0.0,0.0,0.0,0.0,0.0,0.0,0.0,0.0,0.0,0.0,0.0,0.0,0.0,0.0,0.0,0.0,0.0,0.0,0.0,0.0,0.0,0.0,0.0,0.0,0.0,0.0,0.0,0.2071,0.1272,0.2104,0.2824,0.3022,0.2884,0.2557,0.2121,0.0,0.0,0.0,0.0,0.0,0.0,0.0,0.0,0.0,0.0,0.0,0.0,0.0,0.0,0.0,0.0,0.0,0.0,0.0,0.0,0.0,0.0,0.0,0.0,0.0,0.0,0.0,0.0,0.0,0.0,0.0,0.0,0.0,0.0,0.0,0.0,0.0,0.0,0.0,0.0,0.0,0.0,0.0,0.0,0.0,0.0,0.0,0.0,0.0,0.0,0.0,0.0,0.0,0.0,0.0,0.0,0.0,0.0,0.0,0.0,0.0,0.0,0.0,0.0,0.0,0.0,0.0,0.0,0.0,0.0,0.0,0.0,0.0,0.0,0.0,0.0,0.0,0.0,0.0,0.0,0.0,0.0,0.0,0.0,0.0,0.0,0.0,0.0,0.0,0.0,0.0,0.0,0.0,0.0,0.0,0.0,0.0,0.0,0.0,0.0,0.0,0.0,0.0,0.1793,0.1415,0.0958,0.1115,0.1477,0.2081,0.202,0.2,0.2089,0.2215,0.0,0.0,0.0,0.0,0.0,0.0,0.0,0.0,0.0,0.0,0.0,0.0,0.0,0.0,0.0,0.0,0.0,0.0,0.0,0.0,0.0,0.0,0.0,0.0,0.0,0.0,0.0,0.0,0.0,0.0,0.0,0.0,0.0,0.0,0.0,0.0,0.0,0.0,0.0,0.0,0.0,0.0,0.0,0.0,0.0,0.0,0.0,0.0,0.0,0.0,0.0,0.0,0.0,0.0,0.0,0.0,0.0,0.0,0.0,0.0,0.0,0.0,0.0,0.0,0.0,0.0,0.0,0.0,0.0,0.0,0.0,0.0,0.0,0.0,0.0,0.0,0.0,0.0,0.0,0.0,0.0,0.0,0.0,0.0,0.0,0.0,0.0,0.0,0.0,0.0,0.0,0.0,0.0,0.0,0.0,0.0,0.0,0.0,0.0,0.0,0.0,0.0,0.1153,0.068,0.068,0.0268,0.0277,0.0926,0.0991,0.1232,0.179,0.1809,0.0,0.0,0.0,0.0,0.0,0.0,0.0,0.0,0.0,0.0,0.0,0.0,0.0,0.0,0.0,0.0,0.0,0.0,0.0,0.0,0.0,0.0,0.0,0.0,0.0,0.0,0.0,0.0,0.0,0.0,0.0,0.0,0.0,0.0,0.0,0.0,0.0,0.0,0.0,0.0,0.0,0.0,0.0,0.0,0.0,0.0,0.0,0.0,0.0,0.0,0.0,0.0,0.0,0.0,0.0,0.0,0.0,0.0,0.0,0.0,0.0,0.0,0.0,0.0,0.0,0.0,0.0,0.0,0.0,0.0,0.0,0.0,0.0,0.0,0.0,0.0,0.0,0.0,0.0,0.0,0.0,0.0,0.0,0.0,0.0,0.0,0.0,0.0,0.0,0.0,0.0,0.0,0.0,0.0,0.0,0.0,0.0,0.0,0.0,0.0,0.0,0.0,0.0795,0.0076,0.0076,0.0027,0.0027,0.0077,0.0103,0.0351,0.0953,0.1496,0.0,0.0,0.0,0.0,0.0,0.0,0.0,0.0,0.0,0.0,0.0,0.0,0.0,0.0,0.0,0.0,0.0,0.0,0.0,0.0,0.0,0.0,0.0,0.0,0.0,0.0,0.0,0.0,0.0,0.0,0.0,0.0,0.0,0.0,0.0,0.0,0.0,0.0,0.0,0.0,0.0,0.0,0.0,0.0,0.0,0.0,0.0,0.0,0.0,0.0,0.0,0.0,0.0,0.0,0.0,0.0,0.0,0.0,0.0,0.0,0.0,0.0,0.0,0.0,0.0,0.0,0.0,0.0,0.0,0.0,0.0,0.0,0.0,0.0,0.0,0.0,0.0,0.0,0.0,0.0,0.0,0.0,0.0,0.0,0.0,0.0,0.0,0.0,0.0,0.0,0.0,0.0,0.0,0.0,0.0,0.0,0.0,0.0,0.0,0.0,0.0,0.0,0.1173,0.0846,0.0,-0.0,-0.0,-0.0,-0.0,0.0258,0.0873,0.0,0.0,0.0,0.0,0.0,0.0,0.0,0.0,0.0,0.0,0.0,0.0,0.0,0.0,0.0,0.0,0.0,0.0,0.0,0.0,0.0,0.0,0.0,0.0,0.0,0.0,0.0,0.0,0.0,0.0,0.0,0.0,0.0,0.0,0.0,0.0,0.0,0.0,0.0,0.0,0.0,0.0,0.0,0.0,0.0,0.0,0.0,0.0,0.0,0.0,0.0,0.0,0.0,0.0,0.0,0.0,0.0,0.0,0.0,0.0,0.0,0.0,0.0,0.0,0.0,0.0,0.0,0.0,0.0,0.0,0.0,0.0,0.0,0.0,0.0,0.0,0.0,0.0,0.0,0.0,0.0,0.0,0.0,0.0,0.0,0.0,0.0,0.0,0.0,0.0,0.0,0.0,0.0,0.0,0.0,0.0,0.0,0.0,0.0,0.0,0.0,0.0,0.1003,0.1096,0.0919,0.0,-0.0,-0.0,-0.0,-0.0,0.0179,0.0579,0.0,0.0,0.0,0.0,0.0,0.0,0.0,0.0,0.0,0.0,0.0,0.0,0.0,0.0,0.0,0.0,0.0,0.0,0.0,0.0,0.0,0.0,0.0,0.0,0.0,0.0,0.0,0.0,0.0,0.0,0.0,0.0,0.0,0.0,0.0,0.0,0.0,0.0,0.0,0.0,0.0,0.0,0.0,0.0,0.0,0.0,0.0,0.0,0.0,0.0,0.0,0.0,0.0,0.0,0.0,0.0,0.0,0.0,0.0,0.0,0.0,0.0,0.0,0.0,0.0,0.0,0.0,0.0,0.0,0.0,0.0,0.0,0.0,0.0,0.0,0.0,0.0,0.0,0.0,0.0,0.0,0.0,0.0,0.0,0.0,0.0,0.0,0.0,0.0,0.0,0.0,0.0,0.0,0.0,0.0,0.0,0.0,0.0,0.0,0.0,0.0,0.0,0.0983,0.0381,-0.0,-0.0,-0.0,-0.0,-0.0,-0.0,-0.0,0.0,0.0,0.0,0.0,0.0,0.0,0.0,0.0,0.0,0.0,0.0,0.0,0.0,0.0,0.0,0.0,0.0,0.0,0.0,0.0,0.0,0.0,0.0,0.0,0.0,0.0,0.0,0.0,0.0,0.0,0.0,0.0,0.0,0.0,0.0,0.0,0.0,0.0,0.0,0.0,0.0,0.0,0.0,0.0,0.0,0.0,0.0,0.0,0.0,0.0,0.0,0.0,0.0,0.0,0.0,0.0,0.0,0.0,0.0,0.0,0.0,0.0,0.0,0.0,0.0,0.0,0.0,0.0,0.0,0.0,0.0,0.0,0.0,0.0,0.0,0.0,0.0,0.0,0.0,0.0,0.0,0.0,0.0,0.0,0.0,0.0,0.0,0.0,0.0,0.0,0.0,0.0,0.0,0.0,0.0,0.0,0.0,0.0,0.0,0.0,0.0,0.0,0.0,0.1547,0.0627,-0.0,-0.0,-0.0,-0.0,-0.0,-0.0,-0.0,-0.0,0.0,0.0,0.0,0.0,0.0,0.0,0.0,0.0,0.0,0.0,0.0,0.0,0.0,0.0,0.0,0.0,0.0,0.0,0.0,0.0,0.0,0.0,0.0,0.0,0.0,0.0,0.0,0.0,0.0,0.0,0.0,0.0,0.0,0.0,0.0,0.0,0.0,0.0,0.0,0.0,0.0,0.0,0.0,0.0,0.0,0.0,0.0,0.0,0.0,0.0,0.0,0.0,0.0,0.0,0.0,0.0,0.0,0.0,0.0,0.0,0.0,0.0,0.0,0.0,0.0,0.0,0.0,0.0,0.0,0.0,0.0,0.0,0.0,0.0,0.0,0.0,0.0,0.0,0.0,0.0,0.0,0.0,0.0,0.0,0.0,0.0,0.0,0.0,0.0,0.0,0.0,0.0,0.0,0.0,0.0,0.0,0.0,0.0,0.0,0.0,0.0,0.0,0.176,0.074,-0.0,-0.0,-0.0,-0.0,-0.0,-0.0,-0.0,-0.0,0.0,0.0,0.0,0.0,0.0,0.0,0.0,0.0,0.0,0.0,0.0,0.0,0.0,0.0,0.0,0.0,0.0,0.0,0.0,0.0,0.0,0.0,0.0,0.0,0.0,0.0,0.0,0.0,0.0,0.0,0.0,0.0,0.0,0.0,0.0,0.0,0.0,0.0,0.0,0.0,0.0,0.0,0.0,0.0,0.0,0.0,0.0,0.0,0.0,0.0,0.0,0.0,0.0,0.0,0.0,0.0,0.0,0.0,0.0,0.0,0.0,0.0,0.0,0.0,0.0,0.0,0.0,0.0,0.0,0.0,0.0,0.0,0.0,0.0,0.0,0.0,0.0,0.0,0.0,0.0,0.0,0.0,0.0,0.0,0.0,0.0,0.0,0.0,0.0,0.0,0.0,0.0,0.0,0.0,0.0,0.0,0.0,0.0,0.0,0.0,0.0,0.0,0.1564,0.0672,-0.0,-0.0,-0.0,-0.0,-0.0,-0.0,-0.0,-0.0,0.0,0.0,0.0,0.0,0.0,0.0,0.0,0.0,0.0,0.0,0.0,0.0,0.0,0.0,0.0,0.0,0.0,0.0,0.0,0.0,0.0,0.0,0.0,0.0,0.0,0.0,0.0,0.0,0.0,0.0,0.0,0.0,0.0,0.0,0.0,0.0,0.0,0.0,0.0,0.0,0.0,0.0,0.0,0.0,0.0,0.0,0.0,0.0,0.0,0.0,0.0,0.0,0.0,0.0,0.0,0.0,0.0,0.0,0.0,0.0,-0.3812,0.0,0.0,0.0,0.0,0.0,0.0,0.0,0.0,0.0,0.0,0.0,0.0,0.0,0.0,0.0,0.0,0.0,0.0,0.0,0.0,0.0,0.0,0.0,0.0,0.0,0.0,0.0,0.0,0.0,0.0,0.0,0.0,0.0,0.0,0.0,0.0,0.0,0.0,0.0,0.0,0.0,0.0427,0.0157,-0.0,-0.0,-0.0,-0.0,-0.0,-0.0,-0.0,-0.0,0.0,0.0,0.0,0.0,0.0,0.0,0.0,0.0,0.0,0.0,0.0,0.0,0.0,0.0,0.0,0.0,0.0,0.0,0.0,0.0,0.0,0.0,0.0,0.0,0.0,0.0,0.0,0.0,0.0,0.0,0.0,0.0,0.0,0.0,0.0,0.0,0.0,0.0,0.0,0.0,0.0,0.0,0.0,0.0,0.0,0.0,0.0,0.0,0.0,0.0,0.0,0.0,0.0,0.0,0.0,0.0,0.0,0.0,0.0,0.0,0.0,-0.3358,0.0,0.0,0.0,0.0,0.0,0.0,0.0,0.0,0.0,0.0,0.0,0.0,0.0,0.0,0.0,0.0,0.0,0.0,0.0,0.0,0.0,0.0,0.0,0.0,0.0,0.0,0.0,0.0,0.0,0.0,0.0,0.0,0.0,0.0,0.0,0.0,0.0,0.0,0.0,0.0,-0.0743,-0.0605,-0.0313,-0.0022,-0.0,-0.0,-0.0,-0.0,-0.0,-0.0,0.0,0.0,0.0,0.0,0.0,0.0,0.0,0.0,0.0,0.0,0.0,0.0,0.0,0.0,0.0,0.0,0.0,0.0,0.0,0.0,0.0,0.0,0.0,0.0,0.0,0.0,0.0,0.0,0.0,0.0,0.0,0.0,0.0,0.0,0.0,0.0,0.0,0.0,0.0,0.0,0.0,0.0,0.0,0.0,0.0,0.0,0.0,0.0,0.0,0.0,0.0,0.0,0.0,0.0,0.0,-0.979,-0.9666,-0.9685,-0.9249,-0.8366,-0.6959,-0.5989,-0.5104,0.0,0.0,0.0,0.0,0.0,0.0,0.0,0.0,0.0,0.0,0.0,0.0,0.0,0.0,0.0,0.0,0.0,0.0,0.0,0.0,0.0,0.0,0.0,0.0,0.0,-0.0423,-0.0761,0.0,0.0,0.0,0.0,0.0,0.0,0.0,0.0,0.0,0.0,0.0,0.0,-0.1606,-0.1366,-0.087,-0.0356,-0.0127,-0.0,-0.0,-0.0,-0.0,-0.0,0.0,0.0,0.0,0.0,0.0,0.0,0.0,0.0,0.0,0.0,0.0,0.0,0.0,0.0,0.0,0.0,0.0,0.0,0.0,0.0,0.0,0.0,0.0,0.0,0.0,0.0,0.0,0.0,0.0,0.0,0.0,0.0,0.0,0.0,-1.3487,-1.1337,0.0,0.0,0.0,0.0,0.0,0.0,0.0,0.0,0.0,0.0,0.0,0.0,0.0,0.0,-1.2043,-1.2522,-1.2628,-1.2283,-1.3069,-1.3041,-1.2296,-1.2648,-1.2732,-1.2557,-1.1475,0.0,-0.5861,-0.5394,0.0,0.0,0.0,0.0,0.0,0.0,0.0,0.0,0.0,0.0,0.0,0.0,0.0,0.0,0.0,0.0,0.0,0.0,0.0,0.0,0.0,0.0,-0.3175,-0.2816,-0.2672,-0.2476,0.0,-0.0939,0.0063,0.0319,0.0,0.0,0.0,0.0,0.0,0.0,0.0,0.0,-0.1639,-0.1731,-0.1661,-0.1569,-0.0628,-0.0,-0.0,-0.0,-0.0,-0.0,0.0,0.0,0.0,0.0151,0.0,0.0,0.0,0.0,0.0,0.0,0.0,0.0,0.0,0.0,0.0,0.0,0.0,0.0,0.0,0.0,0.0,0.0,0.0,0.0,0.0,0.0,0.0,0.0,0.0,0.0,0.0,0.0,0.0,-1.3629,-1.295,-1.1786,-1.1238,-1.0784,0.0,0.0,0.0,0.0,0.0,0.0,0.0,0.0,0.0,-1.2689,-1.2971,-1.3241,-1.3532,-1.4024,-1.4332,-1.4429,-1.4832,-1.482,-1.4441,-1.4547,-1.4339,-1.3778,-1.3317,-1.1664,-0.9207,-0.7915,-0.6586,-0.5226,0.0,0.0,0.0,0.0,0.0,-0.4783,-0.4622,0.0,0.0,0.0,0.0,0.0,0.0,0.0,0.0,0.0,0.0,0.0,0.0,0.0,0.0,-0.3433,-0.3092,-0.2839,-0.2608,-0.2139,-0.164,0.0,-0.0917,-0.0493,-0.003,0.0,0.0,0.0,0.0,0.0,-0.2337,-0.2359,-0.2272,-0.2144,-0.147,-0.1015,-0.1011,-0.039,0.0,0.0,0.0,0.0,0.0,0.0,0.0248,0.0,0.0,0.0,0.0,0.0,0.0,0.0,0.0,0.0,0.0,0.0,0.0,0.0,0.0,0.0,0.0,0.0,0.0,0.0,0.0,0.0,0.0,0.0,0.0,0.0,0.0,0.0,0.0,-1.3346,-1.3057,-1.2528,-1.1963,-1.152,0.0,0.0,0.0,0.0,0.0,0.0,-1.3576,-1.3855,-1.4108,-1.4312,-1.4712,-1.4993,-1.5103,-1.553,-1.5905,-1.6331,-1.6331,-1.6331,-1.629,-1.6258,-1.5657,-1.4713,-1.4719,-1.3846,-1.2291,-1.0222,-0.9108,-0.8518,-0.685,-0.6432,-0.6665,-0.6118,-0.6291,-0.6823,-0.6458,-0.6069,-0.5738,-0.6081,0.0,-0.5379,-0.5476,0.0,0.0,0.0,0.0,-0.6176,-0.5545,-0.4995,-0.4415,-0.3784,-0.3399,-0.3109,-0.2905,-0.3038,-0.3043,0.0,-0.2028,-0.1607,-0.1325,0.0,0.0,0.0,0.0,-0.2837,-0.2837,-0.2767,-0.2637,-0.2485,-0.2241,-0.2011,-0.1811,-0.1244,-0.0637,-0.004,0.0,0.0,0.0,0.0,0.0,0.0,0.0,0.0,0.0,0.0,0.0,0.0,0.0,0.0,0.0,0.0,0.0,0.0,0.0,0.0,0.0,0.0,0.0,0.0,0.0,0.0,0.0,0.0,0.0,0.0,0.0,0.0,0.0,0.0,0.0,-1.3304,-1.318,0.0,0.0,0.0,0.0,-1.391,-1.4021,-1.4701,-1.6206,-1.5851,-1.6032,-1.7046,-1.7125,-1.7377,-1.7875,-1.7917,-1.7944,-1.7972,-1.7972,-1.7972,-1.7972,-1.7973,-1.7395,-1.6362,-1.6389,-1.5478,-1.3875,-1.2351,-1.0736,-0.9164,-0.9036,-0.856,-0.7908,-0.78,-0.7792,-0.7757,-0.7231,-0.7024,-0.6934,-0.6603,-0.6167,-0.5822,-0.599,-0.5619,0.0,0.0,-0.6338,-0.5838,-0.5867,-0.5615,-0.5201,-0.4667,-0.4191,-0.3733,-0.3341,-0.3382,-0.3356,0.0,-0.2831,-0.2865,-0.3038,0.0,-0.2626,-0.2782,-0.2739,-0.2702,-0.2702,-0.2697,-0.2697,-0.2676,-0.2778,-0.2564,-0.1865,-0.2734,-0.2377,-0.0139,0.0,0.0,0.0,0.0,0.0,0.0,0.0059,0.0,0.0,0.0,0.0,0.0,0.0,0.0,0.0,0.0,0.0,0.0,0.0,0.0,0.0,0.0,0.0,0.0,0.0,0.0,0.0,0.0,0.0,0.0,0.0,0.0,0.0,0.0,0.0,-1.4442,-1.4977,0.0,0.0,-1.4601,-1.4909,-1.5586,-1.5955,-1.6402,-1.6987,-1.7432,-1.7876,-1.8252,-1.8505,-1.8724,-1.892,-1.8957,-1.8957,-1.8957,-1.8957,-1.8801,-1.8541,-1.8541,-1.7925,-1.6905,-1.6905,-1.6116,-1.4839,-1.4289,-1.296,-1.119,-1.0596,-1.0353,-1.0267,-0.9756,-0.9691,-0.9788,-0.9146,-0.8656,-0.8234,-0.7744,-0.7482,-0.7415,-0.7733,-0.7356,-0.6943,-0.7617,-0.7421,-0.6964,-0.6734,-0.6466,-0.613,-0.567,-0.5075,-0.4564,-0.4418,-0.4198,-0.398,-0.3822,-0.3522,-0.3226,-0.3045,-0.313,-0.3192,-0.3157,-0.3179,-0.3223,-0.3223,-0.3223,-0.3223,-0.3223,-0.3111,-0.2998,-0.2891,-0.2237,-0.1631,-0.1189,-0.0431,0.0,0.0,0.0,0.0,0.0,-0.0,0.0105,0.0,0.0,0.0,0.0,0.0,0.0,0.0,0.0,0.0,0.0,0.0,0.0,0.0,0.0,0.0,0.0,0.0,0.0,0.0,0.0,0.0,0.0,0.0,0.0,0.0,0.0,-1.6331,-1.591,-1.6822,-1.7353,-1.6994,-1.7057,-1.743,-1.8153,-1.82,-1.8393,-1.8905,-1.9024,-1.92,-1.9525,-1.9797,-1.9921,-1.9921,-1.9921,-1.9921,-1.9921,-1.9921,-1.9797,-1.9525,-1.9525,-1.8918,-1.7856,-1.7784,-1.6998,-1.5758,-1.5693,-1.48,-1.3356,-1.2517,-1.234,-1.2507,-1.1844,-1.1736,-1.1782,-1.0616,-0.973,-0.9014,-0.8549,-0.8469,-0.8596,-0.875,-0.8445,-0.8117,-0.8382,-0.828,-0.7982,-0.7575,-0.7129,-0.6729,-0.66,-0.5983,-0.5482,-0.5657,-0.5325,-0.4936,-0.4741,-0.413,-0.3582,-0.3392,-0.3444,-0.3501,-0.3501,-0.3494,-0.3506,-0.3506,-0.3506,-0.3506,-0.3506,-0.333,-0.3309,-0.3485,-0.245,-0.1608,-0.1216,-0.044,-0.0182,-0.0591,-0.0608,-0.0608,-0.0608,-0.0211,-0.0,-0.0,0.0,0.0,0.0,0.0,0.0,0.0,0.0,0.0,0.0,0.0,0.0,0.0,0.0,0.0,0.0,0.0,0.0,0.0,0.0,0.0,0.0,0.0,0.0,-1.5872,-1.7238,-1.8216,-1.7733,-1.8673,-1.935,-1.9295,-1.9788,-2.049,-2.1509,-2.055,-2.055,-2.1983,-2.052,-2.0078,-2.0991,-2.1023,-2.1023,-2.1023,-2.1023,-2.1023,-2.1007,-2.1007,-2.0991,-2.0959,-2.0959,-2.0353,-1.9343,-1.9153,-1.8145,-1.6593,-1.6488,-1.6069,-1.5487,-1.4805,-1.4519,-1.4487,-1.4017,-1.3815,-1.3545,-1.1585,-1.0252,-0.9322,-0.8969,-0.9081,-0.9298,-0.8969,-0.8844,-0.8844,-0.8844,-0.8816,-0.8732,-0.8348,-0.7609,-0.7082,-0.7463,-0.6936,-0.6511,-0.701,-0.6716,-0.6181,-0.5667,-0.4709,-0.4071,-0.4273,-0.3869,-0.3605,-0.3869,-0.3689,0.0,-0.3527,-0.3527,-0.3527,-0.3506,-0.3506,-0.3506,-0.3506,-0.3506,-0.2536,-0.0252,-0.004,-0.0556,-0.1797,-0.1847,-0.1847,-0.1803,-0.0621,-0.0,-0.0,0.0,0.0,0.0,0.0,0.0,0.0,0.0,0.0,0.0,0.0,0.0,0.0,0.0,0.0,0.0,0.0,0.0,0.0,0.0,0.0,0.0,0.0,-2.0288,-1.9008,-1.987,-2.0793,-2.1224,-2.1483,-2.1621,-2.1575,-2.1541,-2.1537,-2.153,-2.1014,-2.0717,-2.0782,-2.0958,-2.118,-2.143,-2.1781,-2.1945,-2.1945,-2.1945,-2.1678,-2.1144,-2.1144,-2.0676,-1.985,-1.985,-1.9244,-1.8245,-1.8171,-1.7622,-1.6732,-1.6721,-1.6595,-1.6369,-1.5532,-1.5228,-1.5228,-1.5081,-1.4571,-1.3724,-1.2032,-1.1282,-1.0952,-1.0491,-1.0371,-1.0396,-1.0059,-0.9766,-0.9508,-0.9508,-0.9363,-0.9142,-0.9027,-0.8835,-0.8616,-0.848,-0.8057,-0.7719,-0.7853,-0.7518,-0.7136,-0.6969,-0.6559,-0.582,-0.4519,-0.4171,-0.4109,-0.4171,-0.413,0.0,-0.4089,-0.4089,-0.4007,-0.3807,-0.3786,-0.371,-0.3527,-0.3506,-0.3227,0.0,-0.0943,-0.0909,-0.2939,-0.3025,-0.2654,-0.1825,-0.0616,-0.0,0.0,0.0,0.0,0.0,0.0,0.0,0.0,0.0,0.0,0.0,0.0,0.0,0.0,0.0,0.0,0.0,0.0,0.0,0.0,0.0,0.0,0.0,-2.2325,-2.3519,-2.3176,-2.3163,-2.3334,-2.3761,-2.3991,-2.4048,-2.3991,-2.3843,-2.371,-2.3691,-2.2767,-2.2183,-2.207,-2.1788,-2.1688,-2.1899,-2.2163,-2.231,-2.231,-2.231,-2.2156,-2.1823,-2.1715,-2.1353,-2.0767,-2.0338,-1.9992,0.0,-1.8673,-1.8215,-1.8093,-1.7461,-1.7216,0.0,0.0,0.0,0.0,0.0,-1.5027,-1.3528,-1.295,-1.2357,-1.1803,-1.1336,-1.129,-1.1335,-1.0996,-1.0735,-1.0542,-1.0449,-1.0292,-1.0106,-0.9995,-0.9692,-0.9442,-0.9458,-0.9004,-0.8644,-0.887,-0.8429,-0.8017,-0.8017,0.0,0.0,-0.583,-0.5334,-0.5063,-0.4978,-0.476,-0.4528,-0.433,-0.4313,-0.4252,-0.4089,-0.4068,-0.4007,-0.3848,-0.3828,0.0,0.0,0.0,-0.1909,-0.344,-0.3675,0.0,0.0,0.0,-0.0428,-0.0556,0.0,0.0,0.0,0.2176,0.2687,0.0,0.0,0.0,0.0,0.0,0.0,0.0,0.0,0.0,0.0,0.0,0.0,0.0,0.0,0.0,0.0,-2.5167,-2.6854,-2.7778,-2.684,-2.5931,-2.5623,-2.6061,-2.6296,-2.6043,-2.5966,-2.611,-2.6489,-2.4946,-2.4064,-2.4295,0.0,0.0,0.0,0.0,-2.2388,-2.2388,-2.2388,-2.2466,-2.2625,-2.238,-2.2373,-2.2468,-2.1584,-2.153,-2.2031,-1.9966,-1.9399,-1.984,-1.8471,-1.7896,-1.7743,-1.7142,-1.6917,-1.6901,-1.669,-1.5225,0.0,0.0,0.0,0.0,-1.1803,-1.1923,-1.2081,-1.1761,-1.1662,-1.1619,-1.1424,-1.1373,-1.1275,-1.1057,-1.0404,-0.9916,-1.0363,-0.9858,-0.9423,-0.9869,-0.9404,-0.8888,-0.8839,-0.8252,-0.7772,-0.7772,-0.6987,-0.6277,-0.6047,-0.5577,-0.5067,-0.4595,-0.4532,-0.4532,-0.4491,0.0,0.0,-0.4449,-0.4445,-0.3923,-0.2734,-0.2988,-0.3309,-0.3633,-0.3834,-0.384,-0.3634,-0.216,-0.1366,-0.1307,-0.2242,-0.2272,-0.1394,0.1195,0.2395,0.0,0.0,0.0,0.0,0.0,0.0,0.0,0.0,0.0,0.0,0.0,0.0,0.0,0.0,0.0,-2.7042,-2.8086,-2.9218,-3.0962,-3.0129,-2.8735,-2.7115,-2.6951,-2.6693,-2.6079,-2.5814,-2.5564,-2.5362,-2.4743,-2.3972,-2.3088,-2.3316,0.0,-2.2643,-2.289,-2.3014,-2.3014,-2.3014,-2.2746,-2.2217,0.0,0.0,-2.133,-2.1123,-2.1119,-2.122,-2.0512,-1.9929,-1.948,-1.8909,-1.8335,-1.7789,-1.7658,-1.7612,-1.7438,-1.6033,-1.5217,-1.4593,-1.3348,-1.274,-1.2482,-1.2423,-1.2443,-1.2443,-1.2102,-1.1984,0.0,-1.1958,-1.1791,-1.1614,-1.1549,-1.1248,-1.0925,-1.0831,-1.0658,-1.0508,-1.0333,-1.0194,-0.9992,-0.9704,-0.9554,-0.9429,-0.9429,-0.8228,-0.7144,-0.6826,-0.6699,-0.6448,-0.6055,-0.5989,-0.5918,-0.5705,-0.5682,-0.5586,-0.537,-0.5299,-0.5165,-0.4889,-0.4862,-0.4712,-0.4469,-0.3455,-0.3391,-0.4443,-0.4443,-0.3417,-0.1307,-0.2242,-0.2623,-0.2372,-0.0397,0.0521,0.0,0.0,0.0,0.0,0.0,0.0,0.0,0.0,0.0,0.0,0.0,-2.2687,0.0,0.0,-2.8044,-3.0409,-3.0977,-3.1443,-3.2471,-3.1922,-3.0789,-2.9202,-2.844,-2.7604,-2.6467,-2.6402,-2.6068,-2.5065,-2.5004,-2.4551,-2.3562,-2.3528,-2.356,-2.3551,-2.37,-2.3797,-2.3797,-2.3797,-2.3495,-2.2887,-2.2731,-2.254,-2.2339,-2.1818,-2.175,-2.2047,-2.1137,-2.0736,-2.0684,-1.9739,-1.8905,-1.8208,-1.8208,-1.7817,-1.7202,-1.6855,-1.6228,-1.5482,-1.472,-1.4194,-1.3769,-1.3379,-1.3244,-1.3227,-1.3058,-1.2937,-1.2829,-1.2736,-1.2527,-1.2289,-1.202,-1.173,-1.1424,-1.1173,-1.1015,-1.0849,-1.0691,-1.0667,-1.0556,-1.021,-1.0135,-1.0084,-0.9919,-0.9243,-0.8501,-0.7932,-0.7706,-0.7387,-0.6783,-0.6705,-0.6585,-0.6227,-0.6202,-0.6153,-0.6006,-0.5838,-0.5726,-0.5694,-0.5482,-0.5241,-0.502,-0.4329,-0.4289,-0.4977,-0.5215,-0.4516,-0.2963,-0.3061,-0.3072,-0.2958,-0.186,-0.0855,0.0,0.0,0.0,0.0,0.0,0.0,0.0,0.0,-2.1356,-2.2684,-2.3844,-2.5425,-2.8135,-2.9438,-3.0774,-3.2814,-3.3127,-3.3134,-3.3171,-3.2809,-3.2117,-3.1059,-2.9955,-2.8681,-2.7313,-2.7189,-2.6666,-2.5431,-2.5446,-2.5163,-2.4335,-2.3797,-2.3815,-2.4479,-2.4545,-2.4593,-2.4593,-2.4593,-2.4334,-2.3795,-2.3522,-2.3544,-2.3777,-2.2898,-2.2825,-2.332,-2.1932,-2.1512,-2.1763,-2.0362,-1.9314,-1.8585,-1.8585,-1.7966,-1.7158,-1.7809,-1.73,-1.6291,-1.6305,-1.5892,-1.5249,-1.4598,-1.4388,-1.4353,-1.4179,-1.4023,-1.3821,-1.3509,-1.3244,-1.2961,-1.2533,-1.2164,-1.1822,-1.1542,-1.131,-1.1118,-1.1001,-1.0991,-1.0883,-1.0556,-1.0508,-1.0385,-1.0046,-1.0084,-0.9868,-0.896,-0.8589,-0.8175,-0.7441,-0.73,-0.7129,-0.6811,-0.6685,-0.666,-0.666,-0.6458,-0.6277,-0.6127,-0.5802,-0.5547,-0.5421,-0.5395,-0.5364,-0.5364,-0.5364,-0.5164,-0.4704,-0.4036,-0.3556,-0.329,-0.2981,-0.2024,-1.5375,-1.6213,-1.7029,-1.9185,-2.0281,-2.132,0.0,0.0,-2.6228,-2.5766,-2.7634,-2.9454,-2.9829,-3.1439,-3.2848,-3.3284,-3.3532,-3.3581,-3.3547,-3.2928,-3.2332,-3.1906,-3.08,-2.9739,-2.8918,-2.76,-2.6707,-2.6531,-2.5888,-2.5147,-2.4335,-2.4498,-2.4703,-2.4838,-2.5139,-2.5283,-2.5283,-2.5283,-2.4901,-2.4151,-2.4094,-2.4113,-2.4151,-2.4022,-2.4002,-2.4019,-2.291,-2.1893,-2.0962,-2.0132,-1.9314,-1.8585,-1.8585,-1.8513,-1.8316,-1.7772,-1.7471,-1.724,-1.66,-1.6331,-1.6225,-1.6154,-1.6118,-1.5976,-1.5213,-1.4952,-1.4781,-1.4032,-1.357,-1.3244,-1.3176,-1.2857,-1.242,-1.2154,-1.2086,-1.1903,-1.1378,-1.1265,-1.1173,-1.0897,-1.0849,-1.0739,-1.0409,-1.0729,-1.0662,-0.949,-0.9286,-0.9103,-0.866,-0.8344,-0.8133,-0.8105,-0.7768,-0.7549,-0.7549,-0.7521,-0.7367,-0.6993,-0.6589,-0.6204,-0.5851,-0.5716,-0.5665,-0.5665,-0.5665,-0.546,-0.5043,-0.468,-0.4075,-0.329,-0.3261,-0.3019,-1.6115,-1.7385,-1.8525,-2.0572,-2.2139,-2.3671,-2.5644,-2.7306,-2.8467,-2.8444,-2.9847,-3.1219,-3.172,-3.268,-3.3792,0.0,-3.4994,-3.4766,-3.4748,-3.388,-3.2773,-3.1459,-3.0252,-2.9017,-2.7819,-2.6854,-2.5922,-2.501,-2.5371,-2.5254,-2.4454,-2.4556,-2.4853,-2.5349,-2.5384,-2.5403,-2.5403,-2.5403,-2.5017,-2.419,-2.419,-2.419,-2.419,-2.419,-2.419,-2.419,-2.3727,-2.3009,-2.2093,-2.1786,-2.1225,-2.0541,-2.0069,-1.9947,-1.9944,-1.8875,-1.8487,-1.8411,-1.7872,-1.7675,-1.7601,-1.7133,-1.6978,-1.6898,-1.6452,-1.5908,-1.5347,-1.4904,-1.4568,-1.42,-1.3575,-1.3887,-1.4164,-1.3423,-1.3503,-1.3593,-1.3138,-1.3061,-1.2897,-1.2402,-1.2316,-1.2201,-1.1853,-1.1979,-1.1871,-1.1137,-1.0528,-1.0027,-0.9653,-0.923,-0.8773,-0.8347,-0.8148,-0.7947,-0.7725,-0.7695,-0.7539,-0.7127,-0.673,-0.6305,-0.5913,-0.5783,-0.5631,-0.5464,-0.5625,-0.553,-0.5228,-0.4816,-0.4509,-0.434,-0.3638,-0.3442,-1.7316,-1.8917,-2.0517,-2.2404,-2.4457,-2.6425,-2.804,-2.9503,-3.057,-3.0832,-3.1551,-3.2189,-3.2437,-3.3037,-3.3853,-3.4999,-3.5115,-3.4932,-3.4641,-3.3769,-3.2418,-3.0522,-2.9174,-2.7881,-2.6554,-2.6074,-2.5397,-2.434,-2.4949,-2.5239,-2.493,-2.4706,-2.5061,-2.6092,-2.5764,-2.5579,-2.5579,-2.5579,-2.5153,-2.4357,-2.4357,-2.4357,-2.4357,-2.4303,-2.4321,-2.4357,-2.4303,-2.386,-2.3135,-2.3135,-2.2731,-2.2023,-2.1447,-2.1172,-2.101,-2.0391,-1.9806,-1.9328,-1.9023,-1.8933,-1.8831,-1.8247,-1.8068,-1.801,-1.7686,-1.7079,-1.6416,-1.5997,-1.5751,-1.54,-1.4574,-1.5087,-1.5586,-1.4668,-1.4734,-1.4919,-1.4513,-1.4444,-1.428,-1.368,-1.3594,-1.3425,-1.3004,-1.3065,-1.3011,-1.2669,-1.1893,-1.114,-1.0656,-1.0029,-0.9336,-0.8584,-0.8467,-0.8275,-0.793,-0.799,-0.79,-0.763,-0.7109,-0.6666,-0.6385,-0.6025,-0.5772,-0.5678,-0.5772,-0.5772,-0.5672,-0.5251,-0.5116,-0.5192,-0.4128,-0.3871,-1.8846,-2.0722,-2.2976,-2.5061,-2.7421,-2.9625,-3.1064,-3.2378,-3.3209,-3.2938,-3.2893,-3.2555,-3.1456,-3.2264,-3.2737,-3.1565,-3.2762,-3.3451,-3.2256,-3.1737,-3.087,-2.925,-2.7814,-2.6637,0.0,-2.5538,-2.5482,-2.5615,-2.4943,-2.4949,-2.5903,-2.5205,-2.5525,-2.7094,-2.64,-2.5988,-2.5988,-2.5988,-2.5589,-2.479,-2.479,-2.479,-2.4775,-2.4575,-2.4591,-2.4775,-2.4594,-2.4105,-2.3469,-2.3469,-2.3011,-2.23,-2.2262,-2.179,-2.1209,-2.2152,-2.1347,-1.9778,-1.9771,-1.9752,-1.9752,-1.9734,-1.9734,-1.9583,-1.8801,-1.8537,-1.8316,-1.7412,-1.7009,-1.6788,-1.6566,-1.644,-1.6234,-1.5671,-1.5558,-1.5421,-1.4913,-1.4782,-1.4671,-1.4327,-1.4272,-1.4065,-1.3414,-1.3709,-1.3984,-1.3694,-1.3236,-1.2598,-1.1686,-1.0758,-0.9898,-0.9165,-0.8908,-0.8678,-0.8414,-0.8674,-0.8889,-0.8936,-0.8087,-0.7569,-0.7534,-0.668,-0.631,-0.6546,-0.6317,-0.6317,-0.6546,-0.6266,-0.5905,-0.5466,-0.4846,-0.4437,-2.1179,-2.2964,-2.5161,-2.7574,-2.921,-3.0693,-3.2383,-3.3726,-3.3974,-3.1783,-3.1811,-3.1635,-2.9637,-2.9872,-3.06,-3.1238,-3.2265,-3.2915,-3.2698,-3.2545,-3.15,-2.8913,-2.7696,0.0,0.0,0.0,0.0,-2.5098,-2.4932,-2.5219,-2.616,-2.5399,-2.5456,-2.6564,-2.5693,-2.5205,-2.5205,-2.5205,-2.5073,-2.4804,-2.4804,-2.4804,-2.4804,-2.4731,-2.4731,-2.4804,-2.4731,-2.4576,-2.4351,-2.4351,-2.4263,-2.4043,-2.351,-2.3206,-2.3064,-2.2825,-2.2336,-2.1704,-2.112,-2.0584,-2.0135,-2.0135,-2.0135,-2.0069,-1.9649,-1.9164,-1.865,-1.8243,-1.8072,-1.7985,-1.7831,-1.8412,-1.8993,-1.8717,-1.8923,-1.9014,-1.838,-1.787,-1.7349,-1.6818,-1.6093,-1.5562,-1.5323,-1.5246,-1.4994,-1.4321,-1.3533,-1.2651,-1.1711,-1.1323,-1.093,-1.0421,-1.0026,-0.9653,-0.9284,-0.9076,-0.8981,-0.8994,-0.8445,-0.7982,-0.7602,-0.7227,-0.6805,-0.6344,-0.6431,-0.6438,-0.6337,-0.6243,-0.6215,-0.6201,-0.5512,-0.5113,-2.315,-2.4885,-2.6814,-2.9199,-3.0642,-3.1802,-3.2974,-3.3503,-3.3084,-3.0641,-3.0166,-2.962,-2.7713,-2.7857,-2.8602,-2.9706,-3.0557,-3.1366,-3.2142,-3.1998,-3.1199,-2.9526,-2.8679,-2.7702,0.0,0.0,0.0,-2.494,-2.552,-2.6199,-2.6852,-2.6048,-2.5975,-2.6883,-2.5652,-2.4981,-2.5003,-2.4981,-2.4994,-2.4994,-2.4994,-2.4994,-2.4981,-2.491,-2.491,-2.4962,-2.491,-2.491,-2.4994,-2.4994,-2.5037,-2.5061,-2.4545,-2.4244,-2.4072,-2.3793,-2.3312,-2.2716,-2.2158,-2.1639,-2.1139,-2.0831,-2.0735,-2.0699,-2.0573,-1.9971,-1.9437,-1.9905,-1.9806,-1.9593,-1.9757,-2.042,-2.1022,-2.0785,-2.1007,-2.1082,-2.0488,-1.997,-1.9373,-1.8443,-1.7701,-1.7029,-1.6414,-1.6011,-1.5551,-1.4814,-1.4032,-1.3218,-1.2279,-1.2002,-1.174,-1.1339,-1.0983,-1.0619,-1.0244,-1.0065,-0.9901,-0.9727,-0.9291,-0.8812,-0.8316,-0.7715,-0.7233,-0.6821,-0.6664,-0.6546,-0.6466,-0.6466,-0.656,-0.674,-0.6073,-0.5606,-2.4879,-2.6572,-2.8088,-3.0145,-3.1809,-3.291,-3.2824,-3.1917,-3.0765,-2.9582,-2.8108,-2.6758,-2.582,-2.6265,-2.6878,-2.7161,-2.7876,-2.9003,-3.0676,-3.0298,-3.0145,0.0,0.0,0.0,0.0,0.0,0.0,-2.5363,0.0,-2.7707,-2.7901,-2.7083,-2.7017,-2.7915,-2.6235,-2.5348,-2.5401,-2.5339,-2.5293,-2.5303,-2.5303,-2.5303,-2.5284,-2.5099,-2.5111,-2.5303,-2.5099,-2.5111,-2.5303,-2.5303,-2.5303,-2.5303,-2.5303,-2.4832,-2.4245,-2.5024,-2.4302,-2.2926,-2.2945,-2.2887,-2.2658,-2.1839,-2.157,-2.1562,-2.1562,-2.1023,-2.073,-2.2201,-2.2007,-2.1537,-2.2198,-2.2369,-2.2292,-2.1927,-2.1812,-2.1657,-2.1191,-2.1052,-2.0619,-1.9253,-1.896,-1.8358,-1.6622,-1.6052,-1.5697,-1.5195,-1.48,-1.4246,-1.3357,-1.278,-1.2279,-1.1926,-1.1745,-1.1521,-1.1206,-1.149,-1.1514,-1.1025,-1.0532,-1.004,-0.9518,-0.8203,-0.7645,-0.7946,-0.7117,-0.6828,-0.7063,-0.7063,-0.7021,-0.6979,-0.6477,-0.5916,-2.712,-2.8894,-3.0655,-3.2019,-3.2241,-3.202,-3.1708,-3.0747,-2.9384,-2.7441,-2.6533,-2.5838,-2.5161,-2.5205,-2.5747,-2.7,-2.7869,0.0,-3.0915,-3.154,0.0,-3.1536,0.0,-3.0717,-2.9245,-3.0318,0.0,0.0,-2.7675,-2.7913,-2.7969,-2.7205,-2.6864,-2.7097,-2.6022,-2.5465,-2.5463,-2.5413,-2.5357,-2.5303,-2.5303,-2.5303,-2.5303,-2.5253,-2.5253,-2.5303,-2.5253,-2.5253,-2.5303,-2.5303,-2.5303,-2.5303,-2.5303,-2.5168,-2.5014,-2.5269,-2.5089,-2.4737,-2.4794,-2.392,-2.2772,-2.2608,-2.2501,-2.2466,-2.2466,-2.2331,-2.2235,-2.2651,-2.2584,-2.2566,-2.3233,-2.3427,-2.3531,-2.3921,-2.351,-2.2902,-2.2447,-2.1862,-2.1241,-2.0523,-1.9579,-1.843,-1.6911,-1.6607,-1.6309,-1.5578,-1.5389,-1.4913,-1.3855,-1.3297,-1.2951,-1.2837,-1.2509,-1.2232,-1.2154,-1.1906,-1.1556,-1.1046,-1.0857,-1.0399,-0.9518,-0.9134,-0.8816,-0.8513,-0.8262,-0.8018,-0.7663,-0.7663,-0.7447,-0.6979,-0.6852,-0.6252,-2.8779,-3.0385,-3.17,-3.193,-3.1694,-3.115,-3.0255,-2.8879,-2.7382,-2.5893,-2.5128,-2.4654,-2.4415,-2.4644,-2.5208,0.0,0.0,0.0,-3.0603,-3.1618,-3.2445,0.0,-3.3068,0.0,-3.1525,-3.1673,-3.1261,0.0,-2.9719,-2.9394,-2.865,-2.782,-2.7371,-2.7409,-2.6164,-2.5493,-2.5493,-2.5465,-2.5441,-2.5383,-2.5354,-2.5337,-2.5337,-2.5313,-2.5303,-2.5303,0.0,-2.5303,-2.5303,-2.5303,-2.5322,-2.5337,-2.5348,-2.5363,-2.5391,-2.5428,-2.5441,-2.5453,-2.5526,-2.4865,-2.3934,-2.3622,-2.3488,-2.3463,-2.3463,-2.3191,-2.3037,-2.3772,-2.3734,-2.3616,-2.4322,-2.4505,-2.457,-2.4829,-2.4517,-2.4077,-2.3761,-2.326,-2.2629,-2.1808,-2.0254,-1.8825,-1.8031,-1.7379,-1.6821,-1.637,-1.6065,-1.5577,-1.4744,-1.3973,-1.3514,-1.3514,-1.3069,-1.2803,-1.2803,-1.2579,-1.221,-1.1689,-1.1468,-1.0971,-1.0205,-0.9746,-0.9359,-0.9039,-0.8837,-0.8553,-0.8234,-0.7995,-0.7746,-0.7405,-0.7105,-0.638,-3.022,-3.1402,-3.2066,-3.1121,-3.076,-3.0288,-2.8876,-2.696,-2.5366,-2.4922,-2.4138,-2.3625,-2.3946,-2.4568,-2.5138,-2.5427,0.0,-2.7486,-3.0033,-3.1153,-3.262,-3.5053,-3.4839,-3.4449,-3.4341,-3.3082,-3.218,-3.1963,-3.1943,-3.1203,-2.9499,-2.87,-2.8221,-2.8042,-2.6415,-2.5511,-2.5503,-2.5503,-2.5517,-2.5489,-2.5447,-2.5408,-2.5408,-2.5346,-2.534,-2.534,0.0,0.0,-2.534,-2.534,-2.5363,-2.5408,-2.5401,-2.5453,-2.5493,-2.5503,-2.5503,-2.5511,-2.5595,-2.5573,-2.5407,-2.4697,-2.4475,-2.4466,-2.4466,-2.3926,-2.3634,-2.5085,-2.5007,-2.4608,-2.5247,-2.5408,-2.5345,-2.5116,-2.4973,-2.4851,-2.4699,-2.4485,-2.4003,-2.2824,-2.096,-1.9528,-1.9381,-1.8245,-1.7323,-1.7276,-1.6738,-1.6204,-1.5818,-1.4744,-1.4019,-1.3986,-1.3581,-1.3301,-1.3301,-1.3232,-1.3012,-1.2544,-1.2066,-1.1542,-1.1019,-1.0099,-0.9597,-0.9597,-0.9159,-0.8837,-0.8716,-0.8234,-0.7912,-0.7787,-0.7238,-0.6422,-3.1934,-3.2739,-3.3142,-3.204,-3.0864,-2.9667,-2.8463,-2.6485,0.0,-2.4962,-2.4326,-2.4022,-2.4878,-2.5138,-2.5494,-2.6245,-2.6505,-2.7486,-3.0033,0.0,-3.2455,0.0,0.0,0.0,0.0,0.0,0.0,0.0,0.0,0.0,-2.9572,-2.9383,-2.8689,-2.7245,-2.6209,-2.5636,-2.5573,-2.5573,-2.5554,-2.5493,-2.5498,-2.5473,-2.5473,-2.5482,-2.5471,-2.5471,0.0,0.0,-2.5471,-2.5471,-2.5463,-2.5473,-2.5473,-2.5479,-2.5517,-2.5561,-2.5573,-2.5598,-2.566,-2.5644,-2.5564,-2.5414,-2.5336,-2.5299,-2.5299,-2.5182,-2.5124,-2.5415,-2.5396,-2.5313,-2.5459,-2.5473,-2.5451,-2.5356,-2.4811,-2.4268,-2.4033,-2.3738,-2.3318,-2.2715,-2.1762,-2.0743,-1.9883,-1.8781,-1.7924,-1.7653,-1.7342,-1.6969,-1.6628,-1.5534,-1.4682,-1.4438,-1.4019,-1.3769,-1.3769,-1.3425,-1.3012,-1.2544,-1.2066,-1.1542,-1.1019,-1.0457,-1.0157,-1.0157,-1.0079,-0.9597,-0.8716,-0.8602,-0.8062,-0.7147,-0.7063,-0.6641,-3.2433,-3.325,-3.3588,-3.1815,-3.0469,-2.92,-2.7923,0.0,0.0,-2.5034,-2.4534,-2.4281,-2.5183,-2.5376,-2.5549,-2.5948,-2.6037,-2.6765,-2.8894,-2.9951,0.0,0.0,0.0,0.0,0.0,0.0,0.0,0.0,0.0,0.0,-3.0307,-2.9393,-2.832,-2.7031,-2.6152,-2.5683,-2.5659,-2.5624,-2.5603,-2.5603,-2.5525,-2.5515,-2.5554,-2.5526,-2.5488,-2.5457,-2.5457,0.0,-2.5408,-2.5408,-2.5416,-2.5483,-2.5954,-2.5878,-2.5566,-2.6047,-2.5948,-2.5558,-2.5586,-2.5567,-2.5558,-2.5553,-2.5524,-2.5508,-2.5508,-2.5508,-2.5508,-2.5508,-2.5508,-2.5508,-2.5494,-2.5505,-2.5492,-2.5463,-2.513,-2.4652,-2.3995,-2.4024,-2.4061,-2.3675,-2.2573,-2.153,-2.0934,-1.9612,-1.851,-1.8217,-1.7941,-1.7585,-1.7126,-1.6396,-1.5777,-1.5433,-1.4651,-1.4173,-1.4173,-1.3568,-1.3094,-1.2873,-1.2425,-1.1957,-1.1431,-1.0943,-1.0534,-1.0283,-1.0283,-1.004,-0.9518,-0.8958,-0.8431,-0.7889,-0.7273,-0.6732,-3.2599,-3.3593,-3.4004,-3.1393,-2.9936,-2.8802,-2.7333,-2.5387,-2.4157,-2.5138,-2.488,-2.4665,-2.5298,-2.5443,-2.5472,-2.5472,-2.5472,-2.5998,-2.7551,-2.8661,-3.0146,0.0,0.0,0.0,0.0,0.0,0.0,0.0,0.0,0.0,-3.0664,-2.9141,-2.7891,-2.7031,-2.6152,-2.5703,-2.5703,-2.5658,-2.5658,-2.5703,-2.5585,-2.5547,-2.5597,-2.5525,-2.5471,-2.5427,-2.5623,0.0,0.0,-2.5814,-2.5824,-2.5762,-2.6442,-2.6225,-2.5586,-2.6281,-2.6087,-2.5493,-2.5493,-2.5484,-2.5488,-2.5488,-2.5498,-2.5493,-2.5493,-2.5493,-2.5493,-2.5493,-2.5493,-2.5492,-2.5496,-2.5504,-2.5508,-2.5509,-2.5468,-2.5193,-2.4358,-2.4628,-2.4936,-2.461,-2.3352,-2.2215,-2.1902,-2.0455,-1.9181,-1.8752,-1.845,-1.8107,-1.7653,-1.7304,-1.6969,-1.6677,-1.5374,-1.4544,-1.4544,-1.3907,-1.3459,-1.3357,-1.2918,-1.2413,-1.1957,-1.1356,-1.0829,-1.0467,-1.0351,-1.0244,-1.0127,-0.9279,-0.8797,-0.8675,-0.7648,-0.6985,-3.3003,-3.4325,-3.4895,-3.1392,-2.9626,-2.8341,-2.6737,0.0,-2.4406,-2.5302,-2.544,-2.5406,-2.5484,-2.5449,-2.54,-2.54,-2.5362,-2.5643,-2.6598,-2.828,-2.9764,-3.0817,0.0,0.0,0.0,0.0,0.0,0.0,0.0,0.0,0.0,-2.8828,-2.7891,-2.7031,-2.6152,-2.5703,-2.5703,-2.5683,-2.5683,-2.5703,-2.5636,-2.5588,-2.5609,-2.5522,-2.55,-2.5535,0.0,0.0,0.0,-2.7512,-2.7376,-2.667,-2.6767,-2.6267,-2.5513,-2.5586,-2.5566,-2.5493,-2.5493,-2.5465,-2.5413,-2.5413,-2.5453,-2.5493,-2.5493,-2.5493,-2.5493,-2.5493,-2.5493,-2.5493,-2.5507,-2.5507,-2.5496,-2.5507,-2.5495,-2.5424,-2.5142,-2.5097,-2.5022,-2.4815,-2.4011,-2.3074,-2.2137,-2.1081,-2.003,-1.9091,-1.8734,-1.8547,-1.8489,-1.8232,-1.8065,-1.8005,-1.6227,-1.5029,-1.5029,-1.4627,-1.4214,-1.3868,-1.3336,-1.2857,-1.2461,-1.1494,-1.0981,-1.0943,-1.0505,-1.004,-0.9558,-0.9478,-0.9159,-0.8683,-0.8111,-0.7787,-3.1481,-3.2651,-3.3032,-3.0583,-2.8966,-2.7689,-2.6557,0.0,-2.4393,-2.5318,-2.5461,-2.5447,-2.5496,-2.5488,-2.5453,-2.5453,-2.4993,-2.4946,-2.583,-2.659,-2.778,0.0,0.0,0.0,0.0,0.0,0.0,0.0,0.0,0.0,0.0,-2.8379,-2.7774,-2.69,-2.6022,-2.557,-2.557,-2.5543,-2.5543,-2.557,-2.5503,-2.5493,-2.5543,-2.5503,-2.5488,-2.5486,0.0,0.0,0.0,-2.763,-2.7475,-2.6741,-2.7263,-2.6605,-2.5434,-2.5975,-2.584,-2.5376,-2.5376,-2.5363,-2.5339,-2.5339,-2.5354,-2.5376,-2.5376,-2.5376,-2.5376,-2.5376,-2.5376,-2.5391,-2.5421,-2.5477,-2.5366,-2.484,-2.5092,-2.5289,-2.472,-2.4966,-2.522,-2.5059,-2.4341,-2.3583,-2.3038,-2.2203,-2.1237,-2.0181,-1.9868,-1.9503,-1.8807,-1.8382,-1.8139,-1.8139,-1.6881,-1.5973,-1.5792,-1.4943,-1.4301,-1.3921,-1.3421,-1.2975,-1.2508,-1.2138,-1.1763,-1.1479,-1.1292,-1.0943,-1.0399,-1.0079,-0.9658,-0.9159,-0.8635,-0.8398,-2.9531,-3.0736,-3.1219,-2.945,-2.795,-2.6709,-2.589,-2.4719,-2.403,-2.4963,-2.5291,-2.5437,-2.5497,-2.5473,-2.5477,-2.5477,-2.4948,-2.4736,-2.5344,-2.5679,-2.6532,0.0,0.0,0.0,0.0,0.0,0.0,0.0,0.0,0.0,0.0,-2.8041,-2.7544,-2.6452,-2.5824,-2.5493,-2.5493,-2.544,-2.544,-2.5489,-2.5434,-2.5428,-2.5482,-2.5725,-2.566,-2.5456,0.0,0.0,0.0,-2.7794,-2.7601,-2.6659,-2.7274,-2.6621,-2.538,-2.5926,-2.5732,-2.5203,-2.516,-2.5149,-2.516,-2.5203,-2.5182,-2.516,-2.5203,-2.5253,-2.5303,-2.5303,-2.5303,-2.5303,-2.5354,-2.5374,-2.5234,-2.4688,-2.4968,-2.5207,-2.4694,-2.5019,-2.5377,-2.5303,-2.4787,-2.4215,-2.3794,-2.3193,-2.2334,-2.1042,-2.0952,-2.0574,-1.9256,-1.8966,-1.875,-1.8461,-1.777,-1.7091,-1.6533,-1.5645,-1.4884,-1.4414,-1.4006,-1.3501,-1.2953,-1.2754,-1.2484,-1.2029,-1.1884,-1.1542,-1.1019,-1.0619,-1.0196,-0.9725,-0.9199,-0.8756,-2.7401,-2.8981,-3.0047,-2.8107,-2.6569,-2.5303,-2.4505,-2.3633,-2.3256,-2.414,-2.4953,-2.5493,-2.5493,-2.5447,-2.5398,-2.5398,-2.5329,-2.5293,-2.5293,-2.6094,0.0,0.0,0.0,0.0,0.0,0.0,0.0,0.0,0.0,0.0,0.0,-2.7901,-2.7159,-2.5566,-2.5493,-2.5493,-2.5493,-2.5489,-2.5489,-2.5489,-2.5434,-2.5394,-2.5425,-2.6217,-2.612,0.0,0.0,0.0,0.0,-2.839,-2.8102,-2.6601,-2.6621,-2.6082,-2.5274,-2.5088,-2.501,-2.4986,-2.4855,-2.4804,-2.4832,-2.4962,-2.4917,-2.4828,-2.4962,-2.5152,-2.5303,-2.5303,-2.5303,-2.5303,-2.5303,-2.5197,-2.5139,-2.5333,-2.5297,-2.524,-2.5459,-2.5437,-2.5416,-2.5488,-2.5442,-2.509,-2.4166,-2.3922,-2.3274,-2.1474,-2.1802,-2.1683,-1.9998,-2.0307,-2.0294,-1.9286,-1.8937,-1.8354,-1.7283,-1.6863,-1.6375,-1.5634,-1.5271,-1.4721,-1.3934,-1.3369,-1.2891,-1.2508,-1.2029,-1.1542,-1.1019,-1.0971,-1.0764,-1.0283,-0.9765,-0.8918,-2.4172,-2.4826,-2.5026,-2.3792,-2.3155,-2.2768,-2.2519,-2.2701,-2.3184,-2.4116,-2.4865,-2.5387,-2.5415,-2.5387,-2.5283,-2.5156,-2.5102,-2.5053,-2.4962,0.0,0.0,0.0,0.0,0.0,0.0,0.0,0.0,0.0,0.0,0.0,0.0,0.0,-2.7123,-2.5421,-2.5363,-2.529,-2.5159,-2.5754,-2.5979,-2.5836,-2.5825,-2.5818,-2.5799,-2.5507,0.0,0.0,0.0,0.0,0.0,-2.7409,-2.7219,-2.6184,-2.6184,-2.569,-2.4949,-2.4896,-2.485,-2.4855,-2.4799,-2.4804,-2.4804,-2.4855,-2.4828,-2.4818,-2.4855,-2.491,-2.4968,-2.4968,-2.4968,-2.4968,-2.4968,-2.493,-2.4905,-2.4967,-2.496,-2.4992,-2.5174,-2.5201,-2.5253,-2.5469,-2.5453,-2.5312,-2.5066,-2.4973,-2.455,-2.3481,-2.3396,-2.305,-2.1942,-2.1348,-2.0892,-2.0539,-1.9886,-1.8963,-1.7642,-1.7179,-1.6582,-1.5647,-1.5242,-1.4803,-1.4342,-1.4154,-1.3861,-1.3454,-1.3306,-1.2859,-1.2018,-1.2018,-1.1616,-1.0753,-1.0234,-0.9412,-2.1129,-2.1717,-2.1825,-2.1282,-2.1152,0.0,-2.1143,-2.1808,-2.2649,-2.3443,-2.3972,-2.4465,-2.5071,-2.4875,-2.469,-2.4898,-2.4911,-2.4917,0.0,0.0,0.0,0.0,0.0,0.0,0.0,0.0,0.0,0.0,0.0,0.0,0.0,0.0,-2.656,-2.5153,-2.5233,-2.5253,-2.5111,-2.5888,-2.6051,-2.5632,-2.5865,-2.5834,-2.5548,-2.5337,0.0,0.0,0.0,0.0,0.0,-2.6461,-2.631,-2.5559,-2.5559,-2.5238,-2.479,-2.4716,-2.4685,-2.467,-2.4591,-2.4559,-2.4594,-2.4654,-2.4685,-2.467,-2.4591,-2.4685,-2.4804,-2.4804,-2.4804,-2.4804,-2.4804,-2.4746,-2.47,-2.479,-2.4746,-2.4737,-2.4934,-2.4981,-2.5039,-2.5205,-2.5201,-2.5215,-2.535,-2.5325,-2.5058,-2.4367,-2.4401,-2.4107,-2.2937,-2.2242,-2.1713,-2.1292,-2.046,-1.9495,-1.8467,-1.7879,-1.7255,-1.6502,-1.5964,-1.5505,-1.5152,-1.5152,-1.4819,-1.4109,-1.409,-1.3563,-1.2508,-1.2318,-1.1909,-1.1282,-1.0771,-1.007,0.0,-1.9449,-2.0114,-2.0114,-2.0209,-2.0305,-2.0297,-2.0959,0.0,-2.2293,-2.2509,-2.3008,-2.4436,-2.4049,-2.3785,-2.4639,-2.4775,-2.4814,0.0,0.0,0.0,0.0,0.0,0.0,0.0,0.0,0.0,0.0,0.0,0.0,0.0,0.0,-2.5635,-2.4842,-2.5103,-2.5253,-2.5243,-2.5907,-2.585,-2.5044,-2.5725,-2.5615,-2.4873,-2.5552,0.0,0.0,0.0,0.0,0.0,-2.5552,-2.542,-2.476,-2.476,-2.476,-2.4731,-2.4561,-2.4478,-2.4444,-2.4247,-2.417,-2.419,-2.4338,-2.4425,-2.4426,-2.4209,-2.4408,-2.4712,-2.4712,-2.4712,-2.4678,-2.4712,-2.4572,-2.4493,-2.4716,-2.4607,-2.4526,-2.4731,-2.4775,-2.4776,-2.4797,-2.4796,-2.4889,-2.5139,-2.513,-2.4881,-2.4346,-2.4902,-2.4832,-2.3273,-2.3071,-2.2726,-2.1787,-2.0798,-2.006,-1.9682,-1.8877,-1.8249,-1.7959,-1.7296,-1.6735,-1.6296,-1.6296,-1.5745,-1.4547,-1.4485,-1.386,-1.2638,-1.2198,-1.1945,-1.1847,-1.1282,-1.0695,-1.6027,0.0,-1.7416,-1.7416,-1.8387,-1.9291,0.0,-2.0305,-2.1388,-2.1419,-2.1933,-2.266,-2.3628,-2.3647,-2.3724,-2.446,-2.4559,-2.4545,0.0,0.0,0.0,0.0,0.0,0.0,0.0,0.0,0.0,0.0,0.0,0.0,0.0,0.0,-2.5635,-2.4842,-2.4888,-2.4842,-2.4682,-2.6047,-2.6262,-2.5319,-2.6096,-2.604,-2.5245,-2.482,0.0,0.0,0.0,0.0,-2.4358,-2.4542,-2.4505,-2.4339,-2.4339,-2.4339,-2.4339,-2.4284,-2.4266,-2.4247,-2.4209,-2.4016,-2.3777,-2.3574,-2.3842,-2.4172,-2.361,-2.3678,-2.3945,-2.3945,-2.3767,-2.3645,-2.3886,-2.3923,-2.3961,-2.4266,-2.4303,-2.4339,-2.4528,-2.4559,-2.4623,-2.4776,-2.4804,-2.4815,-2.4889,-2.4886,-2.4889,-2.4956,-2.5127,-2.5145,-2.485,-2.429,-2.3828,-2.3584,-2.2166,-2.122,-2.12,-1.9922,-1.8916,-1.8395,-1.8198,-1.7809,-1.714,-1.7117,-1.6718,-1.5788,-1.5416,-1.4827,-1.3958,-1.3847,-1.3276,-1.2318,-1.135,-1.0654,-1.4986,-1.5668,-1.648,-1.6394,-1.7661,-1.8863,-1.8688,-1.9673,-2.0676,-2.0916,-2.1022,-2.1521,-2.3011,-2.2641,-2.2595,-2.4116,-2.4042,0.0,0.0,0.0,0.0,0.0,0.0,0.0,0.0,0.0,0.0,0.0,0.0,0.0,0.0,0.0,-2.4974,-2.4547,-2.451,-2.4729,-2.5185,-2.5965,-2.608,-2.5541,-2.5884,-2.5621,-2.4814,-2.4392,0.0,0.0,0.0,0.0,-2.419,-2.4036,-2.3976,-2.3955,-2.3795,-2.3735,-2.3735,-2.3735,-2.3735,-2.3735,-2.3735,-2.361,-2.3437,-2.3259,-2.3455,-2.3671,-2.3323,-2.3212,-2.3259,-2.3414,-2.3346,-2.3236,-2.3414,-2.3459,-2.3522,-2.3692,-2.3876,-2.3958,-2.3925,-2.4023,-2.4118,-2.4081,-2.4063,-2.4136,-2.4379,-2.4441,-2.4573,-2.4968,-2.5024,-2.5087,-2.524,-2.4593,-2.4133,-2.4191,-2.2635,-2.1601,-2.1656,-2.0515,-1.9612,-1.9139,-1.8892,-1.859,-1.82,-1.8083,-1.7603,-1.6623,-1.6006,-1.5427,-1.4887,-1.4887,-1.4381,-1.3357,-1.2295,-1.1483,-1.4707,-1.554,-1.6424,-1.6385,-1.7661,-1.8935,-1.887,-1.9411,-2.0139,-2.0811,-2.0414,-2.0537,-2.2446,-2.1714,-2.1496,-2.3601,0.0,0.0,0.0,0.0,0.0,0.0,0.0,0.0,0.0,0.0,0.0,0.0,0.0,0.0,0.0,0.0,0.0,-2.4054,-2.4054,-2.4598,-2.5735,-2.5688,-2.5597,-2.5485,-2.5408,-2.498,-2.419,-2.419,-2.417,0.0,0.0,0.0,-2.4016,-2.3795,-2.3671,-2.3606,-2.3323,-2.3189,-2.3189,-2.3189,-2.3189,-2.3189,-2.3141,-2.3165,-2.3165,-2.3003,-2.3028,-2.31,-2.2979,-2.2805,-2.2652,-2.2989,-2.3021,-2.2979,-2.3028,-2.3028,-2.3052,-2.31,-2.3374,-2.3544,-2.3259,-2.3414,-2.3544,-2.3277,-2.3189,-2.3356,-2.3792,-2.3871,-2.4044,-2.4532,-2.4596,-2.4696,-2.4949,-2.438,-2.4036,-2.4213,-2.2824,-2.1827,-2.1701,-2.0974,-2.0341,-1.9931,-1.9516,-1.9263,-1.9163,-1.8932,-1.8356,-1.7361,-1.6678,-1.614,-1.5774,-1.5778,-1.5285,-1.4426,-1.3454,-1.2562,-1.4707,-1.5424,-1.6317,-1.698,-1.8407,-1.9797,-2.0316,-2.0555,-2.0834,-2.1519,-2.1542,-2.1579,-2.1931,-2.2099,-2.2325,0.0,0.0,0.0,0.0,0.0,0.0,0.0,0.0,0.0,0.0,0.0,0.0,0.0,0.0,0.0,0.0,0.0,0.0,-2.3346,-2.3346,-2.3789,-2.4633,-2.5166,-2.5093,-2.4431,-2.5072,-2.498,-2.419,-2.419,-2.4054,0.0,0.0,-2.3876,-2.3369,-2.3588,-2.3544,-2.3259,-2.3212,-2.3189,-2.3189,-2.3189,-2.3189,-2.3165,-2.2873,-2.2972,-2.3052,-2.2141,-2.2245,-2.2591,-2.2029,-2.2,-2.2224,-2.2381,-2.2141,-2.1903,-2.2207,-2.2272,-2.2354,-2.2617,-2.2992,-2.3259,-2.3212,-2.3236,-2.3259,-2.3212,-2.3189,-2.3236,-2.331,-2.331,-2.341,-2.3658,-2.3684,-2.3879,-2.4367,-2.4083,-2.3982,-2.4327,-2.3618,-2.2853,-2.2172,-2.1726,-2.1146,-2.0365,-2.0238,-1.9964,-1.9458,-1.9082,-1.8728,-1.8378,-1.8263,-1.7838,-1.7103,-1.6952,-1.6119,-1.4727,-1.3893,-1.2883,-1.4474,-1.5349,-1.63,-1.6282,-1.7671,-1.9108,-1.9314,-1.9574,-2.0032,-2.0734,-2.0771,-2.0841,-2.1407,0.0,-2.1994,-2.2445,0.0,0.0,0.0,0.0,0.0,0.0,0.0,0.0,0.0,0.0,0.0,0.0,0.0,0.0,0.0,0.0,0.0,0.0,-2.3189,-2.3389,-2.3762,-2.406,-2.423,-2.432,-2.423,-2.4013,-2.3671,-2.3671,-2.3566,-2.3437,0.0,-2.3482,-2.3189,-2.3165,-2.3069,-2.2923,-2.2773,-2.2695,-2.2695,-2.2695,-2.2695,-2.2686,-2.2527,-2.2581,-2.259,-2.1849,-2.1816,-2.1967,-2.1444,-2.1366,-2.1519,-2.1568,-2.1598,-2.1642,-2.1786,-2.1652,-2.1546,-2.1691,-2.2018,-2.2293,-2.2317,-2.2478,-2.2626,-2.2695,-2.2695,-2.2678,-2.2609,-2.2805,-2.2961,-2.3,-2.3199,-2.3484,-2.382,-2.3549,-2.3497,-2.4019,-2.3184,-2.2529,-2.2384,-2.1832,-2.1135,-2.0301,-2.0332,-2.0182,-1.9741,-1.9637,-1.9462,-1.9142,-1.9036,-1.871,-1.8199,-1.7866,-1.7136,-1.6009,-1.5223,-1.409,-1.4175,-1.5002,-1.5759,-1.5192,-1.6753,-1.848,-1.855,-1.9033,-1.9704,-2.0653,-2.0655,-2.0717,-2.135,-2.1402,0.0,0.0,0.0,0.0,0.0,0.0,0.0,0.0,0.0,0.0,0.0,0.0,0.0,0.0,0.0,0.0,0.0,0.0,0.0,0.0,-2.2989,-2.2989,-2.2989,-2.2989,-2.3362,-2.4116,-2.3496,-2.3189,-2.3189,-2.3189,-2.3165,-2.3093,-2.3165,-2.3135,-2.2965,-2.2772,-2.2643,-2.2573,-2.2388,-2.2237,-2.2106,-2.202,-2.1991,-2.1991,-2.1991,-2.1991,-2.1915,-2.143,-2.129,-2.1228,-2.0926,-2.0829,-2.0862,-2.0959,-2.115,-2.129,-2.129,-2.107,-2.0829,-2.0829,-2.1133,-2.1395,-2.1444,-2.1668,-2.1857,-2.1974,-2.2077,-2.2073,-2.1886,-2.2197,-2.2398,-2.2248,-2.2479,-2.276,-2.2994,-2.2702,-2.2667,-2.3203,-2.2424,-2.2003,-2.2316,-2.1547,-2.0773,-2.0108,-2.0316,-2.0279,-1.9843,-1.9987,-1.9905,-1.9619,-1.9457,-1.9287,-1.9173,-1.8725,-1.8076,-1.7222,-1.6564,-1.5397,-1.3927,-1.3998,-1.4069,-1.4016,-1.6317,-1.8823,-1.9758,-2.038,-2.1178,-2.2663,-2.2964,-2.2746,-2.2069,-2.1692,0.0,0.0,0.0,0.0,0.0,0.0,0.0,0.0,0.0,0.0,0.0,0.0,0.0,0.0,0.0,0.0,0.0,0.0,0.0,0.0,0.0,-2.2349,-2.2349,-2.2349,-2.2668,-2.3277,-2.3224,-2.3189,-2.3189,-2.3189,-2.3021,-2.2746,-2.3069,-2.2883,-2.236,-2.2599,-2.2563,-2.2338,-2.231,-2.2032,-2.1628,-2.1213,-2.1086,-2.1086,-2.1086,-2.1086,-2.1023,-2.055,-2.0366,-2.0382,-2.0348,-2.0348,-2.0449,-2.0862,-2.0715,-2.0366,-2.0366,-2.0382,-2.0348,-2.0348,-2.0715,-2.1023,-2.1023,-2.1055,-2.1086,-2.1086,-2.1415,-2.1521,-2.115,-2.1413,-2.1535,-2.1165,-2.1134,-2.1289,-2.1599,-2.1348,-2.1272,-2.1611,-2.1754,-2.184,-2.1944,-2.0916,-2.0165,-1.9936,-2.0408,-2.0365,-1.9655,-1.965,-1.9625,-1.9593,-1.9599,-1.9688,-1.9926,-1.964,-1.8856,-1.7644,-1.7411,-1.6385,-1.3553,-1.4194,-1.4693,-1.392,-1.5776,-1.7894,-1.832,-1.9198,-2.0324,-2.1836,-2.2044,-2.2038,-2.237,0.0,0.0,0.0,0.0,0.0,0.0,0.0,0.0,0.0,0.0,0.0,0.0,0.0,0.0,0.0,0.0,0.0,0.0,0.0,0.0,0.0,0.0,-2.231,-2.231,-2.231,-2.2415,-2.2651,-2.2651,-2.2651,-2.2651,-2.2651,-2.2571,-2.2463,-2.2598,-2.2508,-2.231,-2.2398,-2.2388,-2.2282,-2.1974,-2.1598,-2.1213,-2.1071,-2.0991,-2.0991,-2.0991,-2.0991,-2.0926,-2.0449,-2.0314,-2.0246,-2.0,-1.9945,-1.9965,-2.0139,-2.007,-2.0,-2.0261,-2.0124,-1.9945,-1.9945,-2.007,-2.0277,-2.0516,-2.055,-2.0649,-2.0926,-2.1118,-2.1086,-2.0649,-2.091,-2.1086,-2.0616,-2.0829,-2.1055,-2.1164,-2.083,-2.0748,-2.1133,-2.1254,-2.1134,-2.0757,-2.0322,-1.9729,-1.895,-1.9399,-1.962,-1.942,-1.9526,-1.9689,-1.9844,-2.0013,-1.9918,-1.9568,-1.975,-1.9362,-1.845,-1.8503,-1.8003,-1.3227,-1.4098,-1.4843,-1.4076,-1.5426,-1.7073,-1.7576,-1.8572,-1.9833,-2.143,-2.1349,-2.1269,-2.2073,0.0,0.0,0.0,0.0,0.0,0.0,0.0,0.0,0.0,0.0,0.0,0.0,0.0,0.0,0.0,0.0,0.0,0.0,0.0,0.0,0.0,0.0,0.0,-2.1886,-2.1886,-2.1886,-2.1886,-2.1886,-2.202,-2.231,-2.231,-2.231,-2.231,-2.231,-2.231,-2.2282,-2.2135,-2.2003,-2.184,-2.1368,-2.1007,-2.0764,-2.0632,-2.0599,-2.0599,-2.0599,-2.0599,-2.0548,-2.0227,-2.0124,-2.0054,-1.9782,-1.969,-1.969,-1.969,-1.9566,-1.9515,-1.9793,-1.9788,-1.969,-1.969,-1.969,-1.9782,-2.0054,-2.0124,-2.0193,-2.0532,-2.0698,-2.0632,-2.0193,-2.0348,-2.0483,-2.0158,-2.0246,-2.0416,-2.0565,-2.0296,-2.0227,-2.0565,-2.0698,-2.059,-2.0115,-2.0017,-1.9653,-1.8844,-1.8918,-1.9075,-1.9271,-1.9736,-2.0101,-2.0337,-2.0641,-2.0499,-1.9956,-2.0383,-2.0205,-1.9473,-1.9794,-1.9713,-1.2995,-1.3484,-1.41,-1.4404,-1.5371,-1.6574,-1.7978,-1.891,-2.003,-2.1888,-2.1373,-2.0727,-2.1123,-2.0838,0.0,0.0,0.0,0.0,0.0,0.0,0.0,0.0,0.0,0.0,0.0,0.0,0.0,0.0,0.0,0.0,0.0,0.0,0.0,0.0,0.0,0.0,-2.0991,-2.0991,-2.0991,-2.0991,-2.0991,-2.1446,-2.2282,-2.2282,-2.2282,-2.2282,-2.2282,-2.2282,-2.2237,-2.1794,-2.1368,-2.0959,-2.0483,-2.0314,-2.0246,-1.9839,-1.969,-1.969,-1.969,-1.969,-1.969,-1.969,-1.969,-1.969,-1.969,-1.969,-1.969,-1.969,-1.9332,-1.8893,-1.8893,-1.9281,-1.969,-1.969,-1.969,-1.969,-1.969,-1.969,-1.969,-1.969,-2.0,-2.0158,-1.9747,-1.963,-1.96,-1.9675,-1.9244,-1.9095,-1.9603,-1.969,-1.969,-1.969,-2.0019,-2.028,-2.0265,-2.0035,-1.9875,-1.9875,-1.9192,-1.8914,-1.9186,-2.0215,-2.0871,-2.108,-2.1412,-2.1529,-2.1396,-2.1727,-2.1467,-2.0713,-2.1321,-2.1346,-1.2431,-1.3471,-1.4448,-1.3982,-1.5595,-1.7422,-1.784,-1.8365,-1.9177,-2.0788,-2.0804,-2.0598,-2.0755,0.0,0.0,0.0,0.0,0.0,0.0,0.0,0.0,0.0,0.0,0.0,0.0,0.0,0.0,0.0,0.0,0.0,0.0,0.0,0.0,0.0,0.0,0.0,-2.0991,-2.0991,-2.0991,-2.0991,-2.0991,-2.1134,-2.1401,-2.1401,-2.1401,-2.1401,-2.1401,-2.1401,-2.1354,-2.126,-2.091,-2.0483,-2.0348,-2.0124,-1.9874,-1.9747,-1.969,-1.969,-1.969,-1.9442,-1.9132,-1.9132,-1.8893,-1.865,-1.9006,-1.9132,-1.9207,-1.9603,-1.9332,-1.8893,-1.8893,-1.8727,-1.865,-1.9043,-1.9442,-1.9603,-1.9207,-1.9132,-1.9043,-1.865,-1.8991,-1.9288,-1.9155,-1.9118,-1.9103,-1.9118,-1.8688,-1.8535,-1.908,-1.8817,-1.8727,-1.9095,-1.8902,-1.87,-1.8605,-1.854,-1.8448,-1.8355,-1.8555,-1.8606,-1.8493,-1.9527,-1.9987,-1.9776,-2.0929,-2.1132,-2.0293,-2.1034,-2.1003,-2.0281,-2.0792,-2.1242,-1.253,-1.3559,-1.4542,-1.4467,-1.5819,-1.7196,-1.7196,-1.8134,-1.9214,-1.9841,-1.9597,-1.9398,-1.9862,0.0,0.0,0.0,0.0,0.0,0.0,0.0,0.0,0.0,0.0,0.0,0.0,0.0,0.0,0.0,0.0,0.0,0.0,0.0,0.0,0.0,0.0,0.0,-2.0481,-2.0481,-2.0481,-2.0481,-2.0481,-2.0481,-2.0514,-2.0829,-2.0991,-2.0991,-2.0991,-2.0894,-2.0715,-2.0715,-2.0449,-2.0054,-2.0054,-1.9909,-1.969,-1.969,-1.969,-1.969,-1.9442,-1.9169,-1.8855,-1.865,-1.838,-1.8185,-1.8496,-1.8574,-1.865,-1.8968,-1.8688,-1.8263,-1.8263,-1.8027,-1.7907,-1.8458,-1.8817,-1.8968,-1.865,-1.8574,-1.8496,-1.8185,-1.838,-1.8574,-1.8574,-1.8419,-1.8341,-1.8535,-1.8302,-1.8131,-1.8221,-1.7946,-1.7773,-1.7851,-1.7799,-1.7716,-1.763,-1.7843,-1.7851,-1.7526,-1.8057,-1.8106,-1.7423,-1.9049,-1.9836,-1.9605,-2.0412,-2.0414,-1.9589,-2.0296,-2.0344,-1.9804,-2.0776,-2.1478,-1.2981,-1.3683,-1.4435,-1.539,-1.5978,-1.6339,-1.6339,-1.8069,-1.9537,-1.8952,0.0,-1.7773,0.0,0.0,0.0,0.0,0.0,0.0,0.0,0.0,0.0,0.0,0.0,0.0,0.0,0.0,0.0,0.0,0.0,0.0,0.0,0.0,0.0,0.0,0.0,0.0,-1.969,-1.969,-1.969,0.0,-1.969,-1.969,-1.9726,-2.0499,-2.0862,-2.0862,-2.0862,-2.0632,-2.0246,-2.0246,-1.9984,-1.9639,-1.9639,-1.9603,-1.9566,-1.9566,-1.9566,-1.9479,-1.9006,-1.8817,-1.865,-1.8185,-1.7987,-1.7947,-1.8027,-1.8027,-1.8027,-1.8106,-1.7666,-1.7216,-1.7216,-1.7188,-1.7258,-1.7773,-1.7973,-1.8106,-1.8027,-1.8027,-1.8027,-1.7947,-1.7987,-1.8027,-1.8027,-1.7626,-1.7463,-1.7907,-1.7947,-1.776,-1.7179,-1.7096,-1.6863,-1.6296,-1.6671,-1.7001,-1.7042,-1.7612,-1.7746,-1.722,-1.7666,-1.7423,-1.6271,-1.868,-2.0023,-1.9962,-1.978,-1.9516,-1.917,-1.9398,-1.9398,-1.912,-2.0796,-2.1583,-1.269,-1.3574,-1.4395,-1.4851,-1.5821,-1.6608,-1.6608,-1.7031,-1.7456,-1.77,-1.7968,0.0,0.0,0.0,0.0,0.0,0.0,0.0,0.0,0.0,0.0,0.0,0.0,0.0,0.0,0.0,0.0,0.0,0.0,0.0,0.0,0.0,0.0,0.0,0.0,-1.969,-1.969,-1.969,-1.969,0.0,-1.969,-1.969,-1.9726,-1.9874,-1.998,-1.998,-1.998,-1.9909,-1.9854,-1.9854,-1.9536,-1.908,-1.908,-1.8817,-1.8458,-1.8458,-1.8458,-1.8419,-1.8302,-1.7987,-1.7626,-1.7504,-1.7188,-1.6909,-1.7353,-1.7463,-1.7544,-1.7987,-1.7354,-1.6604,-1.6604,-1.6262,-1.5971,-1.6089,-1.7136,-1.7987,-1.7544,-1.7463,-1.7353,-1.6909,-1.7188,-1.7463,-1.7463,-1.7394,-1.7188,-1.6879,-1.6837,-1.6769,-1.6591,-1.6207,-1.5891,-1.57,-1.5395,-1.5407,-1.5842,-1.6439,-1.6873,-1.7179,-1.6915,-1.6654,-1.6359,-1.8145,-1.8863,-1.8329,-1.8628,-1.8571,-1.812,-1.773,-1.747,-1.7472,-1.8709,-1.9026,-1.2373,-1.329,-1.4257,-1.5061,-1.577,-1.6278,-1.6278,-1.6278,-1.6323,-1.6571,0.0,0.0,0.0,0.0,0.0,0.0,0.0,0.0,0.0,0.0,0.0,0.0,0.0,0.0,0.0,0.0,0.0,0.0,0.0,0.0,0.0,0.0,0.0,0.0,-1.969,-1.969,-1.969,-1.969,-1.969,-1.969,-1.969,-1.9566,-1.9332,-1.9332,-1.9332,-1.9281,-1.9043,-1.893,-1.893,-1.893,-1.8765,-1.8535,-1.8535,-1.8341,-1.8106,-1.8106,-1.8106,-1.8066,-1.7827,-1.7544,-1.7271,-1.6993,-1.671,-1.6552,-1.6837,-1.6909,-1.6993,-1.7271,-1.6883,-1.6373,-1.6102,-1.5796,-1.5543,-1.5231,-1.6275,-1.7188,-1.6617,-1.6489,-1.6403,-1.6126,-1.6287,-1.6587,-1.6866,-1.6672,-1.6373,-1.6095,-1.6051,-1.6039,-1.6015,-1.5531,-1.5039,-1.4733,-1.4446,-1.4354,-1.4642,-1.5241,-1.5584,-1.5592,-1.5584,-1.5475,-1.5151,-1.6218,-1.6805,-1.6705,-1.6662,-1.652,-1.6279,-1.5929,-1.5801,-1.5801,-1.663,-1.6996,-1.2047,-1.3048,-1.418,-1.537,-1.5741,-1.577,-1.5712,-1.5668,-1.5668,0.0,0.0,0.0,0.0,0.0,0.0,0.0,0.0,0.0,0.0,0.0,0.0,0.0,0.0,0.0,0.0,0.0,0.0,0.0,0.0,0.0,0.0,0.0,-1.969,-1.969,-1.969,-1.969,-1.969,-1.9603,-1.9566,-1.9566,-1.9479,-1.9207,-1.8765,-1.865,-1.865,-1.8727,-1.8302,-1.8106,-1.8106,-1.8106,-1.8066,-1.7947,-1.7947,-1.7907,-1.7827,-1.7827,-1.7827,-1.7747,-1.7312,-1.7146,-1.7076,-1.6637,-1.6522,-1.6522,-1.6522,-1.6522,-1.6522,-1.6522,-1.6337,-1.6064,-1.5588,-1.5365,-1.5174,-1.4652,-1.5377,-1.6107,-1.5688,-1.5543,-1.5499,-1.5588,-1.5499,-1.5644,-1.6238,-1.582,-1.5499,-1.5588,-1.5499,-1.541,-1.532,-1.4869,-1.4329,-1.3684,-1.3637,-1.3637,-1.3637,-1.419,-1.4329,-1.3815,-1.4283,-1.4329,-1.3815,-1.4201,-1.4584,-1.5027,-1.4552,-1.4301,-1.4301,-1.4163,-1.4117,-1.4117,-1.4865,-1.5294,-1.178,-1.3056,-1.4383,-1.5021,-1.5507,-1.5697,0.0,0.0,-1.5195,0.0,0.0,0.0,0.0,0.0,0.0,0.0,0.0,0.0,0.0,0.0,0.0,0.0,0.0,0.0,0.0,0.0,0.0,0.0,0.0,0.0,0.0,-1.969,-1.969,-1.969,-1.969,-1.969,-1.969,-1.9244,-1.9006,-1.9006,-1.8535,-1.8302,-1.8185,-1.7747,-1.7787,-1.8224,-1.8145,-1.8106,-1.8106,-1.8106,-1.7827,-1.7435,-1.7435,-1.7105,-1.671,-1.671,-1.671,-1.671,-1.6637,-1.6595,-1.6595,-1.6522,-1.6522,-1.6522,-1.6522,-1.6522,-1.6522,-1.6522,-1.5744,-1.4926,-1.4835,-1.4422,-1.4003,-1.3956,-1.4422,-1.5062,-1.5499,-1.5186,-1.4971,-1.5499,-1.5186,-1.5017,-1.5632,-1.5231,-1.5017,-1.5543,-1.5152,-1.4652,-1.4097,-1.3956,-1.3695,-1.3055,-1.3017,-1.3017,-1.3017,-1.3552,-1.3909,-1.3826,-1.3862,-1.3862,-1.3815,-1.3382,-1.3152,-1.3238,-1.312,-1.3042,-1.3042,-1.2473,-1.2181,-1.2229,-1.3921,-1.3864,-1.1603,-1.2659,-1.3558,-1.4151,-1.4681,-1.5013,-1.4814,0.0,0.0,0.0,0.0,0.0,0.0,0.0,0.0,0.0,0.0,0.0,0.0,0.0,0.0,0.0,0.0,0.0,0.0,0.0,0.0,0.0,0.0,0.0,-1.969,-1.9406,-1.9244,-1.9244,-1.8968,-1.8817,-1.8817,-1.8574,-1.8458,-1.8458,-1.8224,-1.7947,-1.7626,-1.7435,-1.7422,-1.7626,-1.7353,-1.7188,-1.7188,-1.7188,-1.7076,-1.6837,-1.6837,-1.671,-1.6479,-1.6139,-1.6194,-1.638,-1.5744,-1.57,-1.5964,-1.5599,-1.5478,-1.5478,-1.5478,-1.5732,-1.592,-1.5611,-1.5332,-1.505,-1.4376,-1.4003,-1.3732,-1.3372,-1.3515,-1.3836,-1.4457,-1.4365,-1.4283,-1.4549,-1.4641,-1.4698,-1.4595,-1.4365,-1.4283,-1.4549,-1.4365,-1.4236,-1.4283,-1.4003,-1.3684,-1.342,-1.3104,-1.2881,-1.2881,-1.3152,-1.3286,-1.3286,-1.2909,-1.2696,-1.2696,-1.2423,-1.2286,-1.2286,-1.2258,-1.2248,-1.2248,-1.1557,-1.1266,-1.1266,-1.2104,-1.1791,-1.1267,-1.1979,-1.2567,-1.3326,-1.3894,-1.4277,0.0,0.0,0.0,0.0,0.0,0.0,0.0,0.0,0.0,0.0,0.0,0.0,0.0,0.0,0.0,0.0,0.0,0.0,0.0,0.0,0.0,0.0,0.0,0.0,-1.9281,-1.8893,-1.8688,-1.8688,-1.8302,-1.8106,-1.8106,-1.7947,-1.7827,-1.7706,-1.7706,-1.7463,-1.7118,-1.7118,-1.7118,-1.7076,-1.668,-1.6522,-1.6522,-1.6522,-1.6522,-1.6522,-1.6522,-1.6423,-1.6238,-1.5776,-1.5776,-1.592,-1.5017,-1.5005,-1.5276,-1.4835,-1.4698,-1.4698,-1.4698,-1.5017,-1.5276,-1.4835,-1.4915,-1.4949,-1.4039,-1.3684,-1.3467,-1.3017,-1.2881,-1.3017,-1.3457,-1.3684,-1.3732,-1.3589,-1.392,-1.4154,-1.3862,-1.3684,-1.3637,-1.3779,-1.3684,-1.3732,-1.4201,-1.3826,-1.3494,-1.3331,-1.3045,-1.2822,-1.2618,-1.2774,-1.2881,-1.2881,-1.2187,-1.1814,-1.1814,-1.1665,-1.1566,-1.1566,-1.1366,-1.1366,-1.1566,-1.1065,-1.0712,-1.0568,-1.0712,-1.0332,-1.0602,-1.1161,-1.171,-1.2761,-1.3391,-1.3676,0.0,0.0,0.0,0.0,0.0,0.0,0.0,0.0,0.0,0.0,0.0,0.0,0.0,0.0,0.0,0.0,0.0,0.0,0.0,0.0,0.0,0.0,0.0,0.0,-1.8224,-1.8185,-1.8145,-1.8145,-1.8106,-1.8106,-1.8106,-1.7585,-1.7076,-1.6595,-1.6595,-1.6552,-1.6552,-1.6552,-1.6552,-1.6552,-1.6522,-1.6522,-1.6522,-1.6522,-1.6522,-1.6522,-1.6522,-1.6139,-1.5632,-1.5632,-1.5276,-1.4789,-1.4698,-1.4698,-1.4744,-1.4698,-1.4698,-1.4698,-1.4698,-1.4698,-1.4744,-1.4698,-1.4329,-1.3862,-1.3815,-1.3372,-1.2929,-1.2929,-1.2881,-1.2929,-1.2929,-1.342,-1.3637,-1.3065,-1.2978,-1.3152,-1.3732,-1.3334,-1.3152,-1.3732,-1.3334,-1.2978,-1.2978,-1.2978,-1.2657,-1.1972,-1.2501,-1.2608,-1.1922,-1.251,-1.2881,-1.2881,-1.2187,-1.1814,-1.1814,-1.1166,-1.0864,-1.0864,-1.0218,-1.0218,-1.0864,-1.0813,-1.0466,-0.9865,-1.0517,-1.0084,-0.9746,-1.0064,-1.0461,-1.1324,-1.2019,-1.2532,0.0,0.0,0.0,0.0,0.0,0.0,0.0,0.0,0.0,0.0,0.0,0.0,0.0,0.0,0.0,0.0,0.0,0.0,0.0,0.0,0.0,0.0,0.0,0.0,-1.8106,-1.7787,-1.7585,-1.7585,-1.7229,-1.7076,-1.7076,-1.6879,-1.668,-1.6522,-1.6522,-1.6293,-1.5908,-1.5908,-1.5688,-1.5332,-1.5332,-1.5788,-1.6522,-1.6522,-1.6522,-1.6479,-1.6051,-1.5776,-1.5499,-1.4721,-1.4549,-1.4617,-1.3789,-1.3789,-1.405,-1.3658,-1.3515,-1.3515,-1.3515,-1.3836,-1.4061,-1.3658,-1.3647,-1.3732,-1.3324,-1.3055,-1.2881,-1.2881,-1.2881,-1.2881,-1.2881,-1.3065,-1.3152,-1.2929,-1.2881,-1.2978,-1.32,-1.3065,-1.2968,-1.319,-1.3065,-1.2881,-1.2881,-1.2881,-1.2608,-1.1864,-1.203,-1.1931,-1.1216,-1.1375,-1.1742,-1.2187,-1.1124,-1.072,-1.1166,-1.0517,-1.0167,-1.0167,-1.0364,-1.0364,-1.0167,-0.9718,-0.9413,-0.9159,-0.9865,-0.9162,-0.8965,-0.9176,-0.9442,0.0,-1.0647,-1.1385,0.0,0.0,0.0,0.0,0.0,0.0,0.0,0.0,0.0,0.0,0.0,0.0,0.0,0.0,0.0,0.0,0.0,0.0,0.0,0.0,0.0,0.0,0.0,0.0,-1.7585,-1.7229,-1.7034,-1.7034,-1.668,-1.6423,-1.6194,-1.6194,-1.6107,-1.5888,-1.5888,-1.57,-1.532,-1.532,-1.5062,-1.4698,-1.4698,-1.5152,-1.5888,-1.5888,-1.5888,-1.5876,-1.5454,-1.5186,-1.4903,-1.4097,-1.392,-1.3978,-1.3152,-1.3152,-1.342,-1.3017,-1.2881,-1.2881,-1.2881,-1.32,-1.342,-1.3017,-1.32,-1.342,-1.3017,-1.2881,-1.2822,-1.2608,-1.2725,-1.2822,-1.2559,-1.2715,-1.2881,-1.2881,-1.2881,-1.2881,-1.2881,-1.2715,-1.255,-1.255,-1.255,-1.255,-1.255,-1.255,-1.2246,-1.1516,-1.1466,-1.1216,-1.0517,-1.0661,-1.1015,-1.1466,-1.0415,-1.0012,-1.0466,-0.9814,-0.9465,-0.9465,-0.9917,-0.9917,-0.9465,-0.9263,-0.9008,-0.8804,-0.9263,-0.8448,0.0,0.0,0.0,0.0,0.0,0.0,0.0,0.0,0.0,0.0,0.0,0.0,0.0,0.0,0.0,0.0,0.0,0.0,0.0,0.0,0.0,0.0,0.0,0.0,0.0,0.0,0.0,0.0,0.0,-1.7008,-1.6522,-1.6522,-1.6522,-1.6522,-1.6466,-1.6194,-1.5588,-1.5588,-1.5276,-1.4698,-1.4698,-1.4709,-1.4652,-1.4652,-1.4663,-1.4663,-1.4663,-1.4663,-1.4663,-1.4709,-1.4698,-1.4698,-1.4698,-1.4329,-1.3815,-1.3779,-1.342,-1.2881,-1.2881,-1.2881,-1.2881,-1.2881,-1.2881,-1.2881,-1.2881,-1.2881,-1.2881,-1.2881,-1.2881,-1.2881,-1.2881,-1.2881,-1.2725,-1.1972,-1.2344,-1.2666,-1.1972,-1.2344,-1.2881,-1.2881,-1.2881,-1.2881,-1.2881,-1.2295,-1.1814,-1.1814,-1.1765,-1.1765,-1.1765,-1.1765,-1.1516,-1.0864,-1.0762,-1.0517,-0.9814,-1.0364,-1.0771,-1.0771,-1.0167,-0.9762,-0.9814,-0.9159,-0.8804,-0.8804,-0.8804,-0.8804,-0.8752,-0.9465,-0.9413,-0.8804,-0.8758,-0.7996,-0.8233,0.0,0.0,0.0,0.0,0.0,0.0,0.0,0.0,0.0,0.0,0.0,0.0,0.0,0.0,0.0,0.0,0.0,0.0,0.0,0.0,0.0,0.0,0.0,0.0,0.0,0.0,0.0,-1.6153,-1.6249,-1.6497,-1.6522,-1.6522,-1.6522,-1.6095,-1.5776,-1.5588,-1.5186,-1.488,-1.4698,-1.4698,-1.4468,-1.405,-1.405,-1.3826,-1.3382,-1.3382,-1.3382,-1.3478,-1.434,-1.4698,-1.4663,-1.4236,-1.3956,-1.3732,-1.3334,-1.3065,-1.2881,-1.2881,-1.2881,-1.2881,-1.2881,-1.2881,-1.2881,-1.2881,-1.2881,-1.2881,-1.2881,-1.2881,-1.2881,-1.2881,-1.2881,-1.2832,-1.2657,-1.2344,-1.203,-1.1864,-1.1972,-1.2236,-1.2774,-1.2881,-1.2881,-1.2881,-1.2295,-1.1814,-1.1814,-1.1366,-1.1065,-1.1065,-1.1065,-1.0813,-1.0167,-1.0064,-0.9814,-0.9106,-0.9263,-0.9562,-1.0064,-0.9465,-0.9309,-0.9762,-0.9159,-0.8804,-0.8804,-0.8804,-0.8533,-0.7996,-0.8738,-0.8956,-0.8804,-0.8262,-0.7503,-0.7734,-0.7744,-0.7802,0.0,0.0,0.0,-0.8799,-0.9417,0.0,0.0,0.0,0.0,0.0,0.0,0.0,0.0,0.0,0.0,0.0,0.0,0.0,0.0,0.0,0.0,0.0,0.0,0.0,0.0,-1.5433,-1.5932,-1.6484,-1.6238,-1.6139,-1.6139,-1.5555,-1.5096,-1.4858,-1.4503,-1.4201,-1.3931,-1.3931,-1.3742,-1.342,-1.342,-1.3238,-1.2881,-1.2881,-1.2881,-1.2978,-1.3658,-1.3931,-1.3931,-1.3552,-1.342,-1.3372,-1.3017,-1.2881,-1.2881,-1.2881,-1.2881,-1.2881,-1.2881,-1.2881,-1.2881,-1.2881,-1.2881,-1.2881,-1.2881,-1.2881,-1.2881,-1.2881,-1.2881,-1.2774,-1.2157,-1.1931,-1.1665,-1.1065,-1.1166,-1.1566,-1.2295,-1.2666,-1.2881,-1.2881,-1.2039,-1.1366,-1.1366,-1.0813,-1.0364,-1.0364,-1.0364,-1.021,-0.9865,-0.9562,-0.9211,-0.8857,-0.8804,-0.8962,-0.9361,-0.9008,-0.8956,-0.9361,-0.9008,-0.8804,-0.8804,-0.8804,-0.8427,-0.7723,-0.8427,-0.8804,-0.8804,-0.8374,-0.7616,-0.7136,-0.7398,-0.7695,0.0,0.0,0.0,-0.7783,-0.843,0.0,0.0,0.0,0.0,0.0,0.0,0.0,0.0,0.0,0.0,0.0,0.0,0.0,0.0,0.0,0.0,0.0,0.0,-1.3362,-1.3899,-1.4915,-1.5728,-1.6225,-1.5752,-1.5499,-1.5499,-1.4926,-1.4329,-1.3826,-1.3732,-1.342,-1.2881,-1.2881,-1.2881,-1.2881,-1.2881,-1.2881,-1.2881,-1.2881,-1.2881,-1.2881,-1.2881,-1.2881,-1.2881,-1.2881,-1.2881,-1.2881,-1.2881,-1.2881,-1.2881,-1.2881,-1.2881,-1.2881,-1.2881,-1.2881,-1.2881,-1.2881,-1.2881,-1.2881,-1.2881,-1.2881,-1.2881,-1.2881,-1.2822,-1.2461,-1.1225,-1.1266,-1.1266,-1.0064,-1.0269,-1.0864,-1.1466,-1.2197,-1.2676,-1.2774,-1.1642,-1.0712,-1.0762,-1.0167,-0.9666,-0.9666,-0.9666,-0.9666,-0.9666,-0.9159,-0.8804,-0.8804,-0.8804,-0.8804,-0.8804,-0.8804,-0.8804,-0.8804,-0.8804,-0.8804,-0.8804,-0.8646,-0.8262,-0.7723,-0.8262,-0.854,-0.854,-0.8646,-0.7943,0.0,0.0,0.0,0.0,0.0,0.0,-0.7715,-0.7862,0.0,0.0,0.0,0.0,0.0,0.0,0.0,0.0,0.0,0.0,0.0,0.0,0.0,0.0,0.0,0.0,0.0,0.0,-1.2309,-1.2837,-1.3852,-1.4459,-1.4552,-1.4755,-1.488,-1.488,-1.4283,-1.3909,-1.3815,-1.3324,-1.3017,-1.2881,-1.2881,-1.2881,-1.2881,-1.2881,-1.2881,-1.2881,-1.2881,-1.2881,-1.2881,-1.2881,-1.2881,-1.2881,-1.2881,-1.2881,-1.2881,-1.2881,-1.2881,-1.2881,-1.2881,-1.2881,-1.2881,-1.2881,-1.2881,-1.2881,-1.2881,-1.2881,-1.2881,-1.2881,-1.2881,-1.2881,-1.2881,-1.2452,-1.1972,-1.1665,-1.0864,-1.0115,-0.9865,-0.9917,-1.0012,-1.0167,-1.072,-1.1375,-1.1922,-1.0872,-1.0167,-1.0712,-0.9762,-0.9008,-0.9008,-0.9008,-0.9008,-0.9008,-0.8857,-0.8804,-0.8804,-0.8804,-0.8804,-0.8804,-0.8804,-0.8804,-0.8804,-0.8804,-0.8804,-0.8804,-0.7616,-0.7235,-0.7723,-0.7235,-0.702,-0.702,-0.7616,-0.745,0.0,0.0,0.0,-0.7337,0.0,0.0,0.0,-0.7695,-0.7452,0.0,0.0,0.0,0.0,0.0,0.0,0.0,0.0,0.0,0.0,0.0,0.0,0.0,0.0,0.0,0.0,0.0,-1.174,-1.2546,-1.3094,-1.3549,-1.4089,-1.3983,-1.3987,-1.4226,-1.3647,-1.3324,-1.3324,-1.3065,-1.2881,-1.2881,-1.2881,-1.2881,-1.2881,-1.2881,-1.2881,-1.2881,-1.2881,-1.2881,-1.2881,-1.2881,-1.2881,-1.2881,-1.2881,-1.2881,-1.2881,-1.2881,-1.2881,-1.2881,-1.2881,-1.2881,-1.2822,-1.2452,-1.2608,-1.2822,-1.2452,-1.2344,-1.2295,-1.194,-1.2098,-1.2344,-1.2344,-1.208,-1.1715,-1.1366,-1.0517,-0.9718,-0.9361,-0.9309,-0.9309,-0.9309,-0.9562,-1.0115,-1.1116,-1.0466,-0.9909,-1.0261,-0.9465,-0.8804,-0.8804,-0.8804,-0.8804,-0.8804,-0.8804,-0.8804,-0.8804,-0.8804,-0.8804,-0.8804,-0.8804,-0.8804,-0.8804,-0.8804,-0.8804,-0.8804,-0.7723,-0.7128,-0.7128,-0.6416,-0.6258,-0.6588,-0.6966,-0.6966,0.0,0.0,0.0,0.0,0.0,-0.699,0.0,0.0,0.0,-0.7569,0.0,0.0,0.0,0.0,0.0,0.0,0.0,0.0,0.0,0.0,0.0,0.0,0.0,0.0,0.0,0.0,-1.1214,-1.2102,-1.2212,-1.2652,-1.3575,-1.3167,-1.3159,-1.3627,-1.3152,-1.2881,-1.2881,-1.2881,-1.2881,-1.2881,-1.2881,-1.2881,-1.2881,-1.2881,-1.2881,-1.2881,-1.2881,-1.2881,-1.2881,-1.2881,-1.2881,-1.2881,-1.2881,-1.2881,-1.2881,-1.2881,-1.2832,-1.2676,-1.2666,-1.2618,-1.2412,-1.1774,-1.199,-1.2353,-1.1774,-1.1616,-1.1516,-1.0965,-1.1166,-1.1616,-1.1616,-1.1516,-1.1266,-1.0762,-1.0115,-0.9465,-0.891,-0.8804,-0.8804,-0.8804,-0.8804,-0.9159,-1.0415,-1.0064,-0.9666,-0.9762,-0.9211,-0.8804,-0.8804,-0.8804,-0.8804,-0.8804,-0.8804,-0.8804,-0.8804,-0.8804,-0.8804,-0.8804,-0.8804,-0.8804,-0.8804,-0.8804,-0.8804,-0.8804,-0.8103,-0.7343,-0.6588,-0.5869,-0.576,-0.6209,-0.6312,-0.6367,0.0,0.0,0.0,0.0,-0.6885,0.0,0.0,0.0,-0.673,-0.7089,0.0,-0.7275,-0.7627,0.0,0.0,0.0,0.0,0.0,0.0,0.0,0.0,0.0,0.0,0.0,0.0,0.0,-1.0419,-1.0537,-1.0895,-1.1323,-1.1864,-1.2138,-1.2516,-1.3007,-1.2929,-1.2881,-1.2881,-1.2881,-1.2881,-1.2881,-1.2881,-1.2881,-1.2881,-1.2881,-1.2881,-1.2881,-1.2881,-1.2881,-1.2881,-1.2881,-1.2881,-1.2881,-1.2881,-1.2881,-1.2881,-1.2881,-1.2471,-1.19,-1.1931,-1.1525,-1.1015,-1.0965,-1.0965,-1.1015,-1.0965,-1.0914,-1.0914,-1.0813,-1.0864,-1.0914,-1.0914,-1.0466,-1.002,-0.9909,-0.9413,-0.891,-0.8804,-0.8804,-0.8804,-0.8804,-0.8804,-0.9061,-0.9762,-0.9361,-0.9106,-0.971,-0.9211,-0.8804,-0.8804,-0.8804,-0.8804,-0.8804,-0.8804,-0.8804,-0.8804,-0.8804,-0.8804,-0.8804,-0.8804,-0.8804,-0.8804,-0.8804,-0.8804,-0.8804,-0.8103,-0.7343,-0.6588,-0.5869,-0.5218,-0.4736,-0.5328,-0.5651,0.0,0.0,0.0,0.0,0.0,0.0,0.0,0.0,-0.63,0.0,0.0,0.0,0.0,0.0,0.0,0.0,0.0,0.0,0.0,0.0,0.0,0.0,0.0,0.0,0.0,0.0,0.0,0.0,0.0,-1.0459,-1.1143,-1.1357,-1.1787,-1.248,-1.25,-1.2627,-1.2881,-1.2881,-1.2881,-1.2881,-1.2881,-1.2881,-1.2881,-1.2881,-1.2881,-1.2881,-1.2881,-1.2881,-1.2881,-1.2881,-1.2881,-1.2881,-1.2881,-1.2881,-1.2881,-1.2881,-1.2412,-1.1783,-1.1814,-1.1366,-1.0813,-1.0813,-1.0517,-1.0218,-1.0218,-1.0218,-1.0167,-0.9769,-0.9917,-1.0218,-1.0218,-1.0012,-0.9814,-0.9814,-0.9316,-0.8804,-0.8804,-0.8804,-0.8804,-0.8804,-0.8804,-0.891,-0.9159,-0.9008,-0.891,-0.9159,-0.8956,-0.8804,-0.8804,-0.8804,-0.8804,-0.8804,-0.8804,-0.8804,-0.8804,-0.8804,-0.8804,-0.8804,-0.8374,-0.8374,-0.8804,-0.8374,-0.8374,-0.8804,-0.848,-0.799,-0.7235,-0.6475,-0.5764,-0.5058,-0.4948,-0.5109,-0.7513,0.0,0.0,0.0,0.0,0.0,0.0,0.0,0.0,0.0,0.0,0.0,0.0,0.0,-0.7501,-0.7387,0.0,0.0,0.0,0.0,0.0,0.0,0.0,0.0,0.0,0.0,0.0,0.0,-0.9805,-0.9962,-1.0859,-1.0908,-1.1318,-1.2151,-1.218,-1.2441,-1.2881,-1.2881,-1.2881,-1.2881,-1.2881,-1.2881,-1.2881,-1.2881,-1.2881,-1.2881,-1.2881,-1.2881,-1.2881,-1.2881,-1.2881,-1.2881,-1.2881,-1.2881,-1.2881,-1.2666,-1.2138,-1.1516,-1.1316,-1.0813,-1.0261,-1.0261,-0.9917,-0.951,-0.951,-0.951,-0.9413,-0.8956,-0.9159,-0.951,-0.951,-0.951,-0.951,-0.951,-0.9159,-0.8804,-0.8804,-0.8804,-0.8804,-0.8804,-0.8804,-0.8804,-0.8804,-0.8804,-0.8804,-0.8804,-0.8804,-0.8804,-0.8804,-0.8804,-0.8804,-0.8804,-0.8804,-0.8804,-0.8804,-0.8804,-0.8804,-0.8804,-0.8103,-0.7937,-0.848,-0.7777,-0.767,-0.8209,-0.8374,-0.8156,-0.7396,-0.6858,-0.6204,-0.5483,-0.4787,-0.4787,0.0,0.0,0.0,-0.6667,0.0,0.0,0.0,0.0,-0.6226,0.0,0.0,0.0,0.0,-0.685,-0.6991,-0.6611,-0.7168,0.0,0.0,0.0,0.0,0.0,0.0,0.0,0.0,0.0,0.0,-0.9583,-0.9602,-0.9962,-1.0859,-1.0908,-1.1318,-1.2151,-1.218,-1.2441,-1.2881,-1.2881,-1.2881,-1.2881,-1.2881,-1.2881,-1.2881,-1.2881,-1.2881,-1.2881,-1.2881,-1.2881,-1.2881,-1.2881,-1.2881,-1.2881,-1.2881,-1.2881,-1.2822,-1.208,-1.1416,-1.0762,-1.0064,-0.9413,-0.8857,-0.8857,-0.8857,-0.8857,-0.8857,-0.8857,-0.8804,-0.8811,-0.8804,-0.8857,-0.8857,-0.8857,-0.8857,-0.8857,-0.8804,-0.8804,-0.8804,-0.8804,-0.8804,-0.8804,-0.8804,-0.8804,-0.8804,-0.8804,-0.8804,-0.8804,-0.8804,-0.8804,-0.8804,-0.8804,-0.8804,-0.8804,-0.8804,-0.8804,-0.8804,-0.8804,-0.8804,-0.8804,-0.8103,-0.7723,-0.7723,-0.702,-0.6642,-0.6696,-0.7396,-0.7396,-0.6642,-0.6588,-0.6204,-0.5483,-0.4787,-0.4519,0.0,0.0,-0.7241,-0.6954,0.0,0.0,0.0,0.0,0.0,0.0,0.0,0.0,0.0,-0.6551,-0.6738,-0.6879,-0.7125,-0.7356,0.0,0.0,0.0,0.0,0.0,0.0,0.0,0.0,0.0,-0.916,-0.9385,-0.9775,-1.0459,-1.0488,-1.0889,-1.1758,-1.1787,-1.2139,-1.2871,-1.2881,-1.2881,-1.2881,-1.2881,-1.2881,-1.2881,-1.2881,-1.2881,-1.2881,-1.2881,-1.2881,-1.2881,-1.2881,-1.2881,-1.2881,-1.2881,-1.2608,-1.2138,-1.1873,-1.1366,-1.0669,-0.951,-0.9008,-0.8804,-0.8804,-0.8804,-0.8804,-0.8804,-0.8804,-0.8804,-0.8804,-0.8804,-0.8804,-0.8804,-0.8804,-0.8804,-0.8804,-0.8804,-0.8804,-0.8804,-0.8804,-0.8804,-0.8804,-0.8804,-0.8804,-0.8804,-0.8804,-0.8804,-0.8804,-0.8804,-0.8804,-0.8804,-0.8804,-0.8804,-0.8804,-0.8804,-0.8804,-0.8804,-0.8804,-0.8804,-0.8804,-0.8103,-0.7723,-0.7723,-0.6966,-0.6588,-0.6588,-0.6858,-0.6858,-0.6588,-0.6091,-0.576,-0.5483,-0.4787,-0.4519,-0.7915,-0.7702,0.0,-0.7094,-0.688,0.0,-0.6981,0.0,0.0,0.0,0.0,0.0,0.0,0.0,-0.6521,-0.6763,-0.6868,-0.6969,0.0,-0.7383,0.0,0.0,0.0,0.0,0.0,0.0,-0.7754,-0.793,-0.876,-0.9561,0.0,0.0,-1.0714,-1.1577,-1.1606,-1.2028,-1.2871,-1.2881,-1.2881,-1.2881,-1.2881,-1.2881,-1.2881,-1.2881,-1.2881,-1.2881,-1.2881,-1.2881,-1.2881,-1.2881,-1.2881,-1.2881,-1.2618,-1.2236,-1.1765,-1.1516,-1.0864,-0.9969,-0.9113,-0.8804,-0.8804,-0.8804,-0.8804,-0.8804,-0.8804,-0.8804,-0.8804,-0.8804,-0.8804,-0.8804,-0.8804,-0.8804,-0.8804,-0.8804,-0.8804,-0.8804,-0.8804,-0.8804,-0.8804,-0.8804,-0.8804,-0.8804,-0.8804,-0.8804,-0.8804,-0.8804,-0.8804,-0.8804,-0.8804,-0.8804,-0.8804,-0.8804,-0.8804,-0.8804,-0.8804,-0.8804,-0.8804,-0.8804,-0.8103,-0.7563,-0.7343,-0.6583,-0.6128,-0.593,-0.6132,-0.6237,-0.6317,-0.574,-0.5487,-0.5483,-0.4787,-0.4519]},{"header":{"parameterUnit":"m.s-1","parameterCategory":1,"la1":30.6,"la2":29.2853,"lo1":-89.7004,"lo2":-87.6739,"dy":0.0162,"dx":0.0183,"nx":112,"ny":82,"refTime":"2023-06-04T06:00:00:Z","depth":0,"parameterNumber":3,"parameterNumberName":"V-component_of_WINDS"},"data":[0.0,0.0,0.0,0.0,0.0,0.0,0.0,0.0,0.0,0.0,0.0,0.0,0.0,0.0,0.0,0.0,0.0,0.0,0.0,0.0,0.0,0.0,0.0,0.0,0.0,0.0,0.0,0.0,0.0,0.0,0.0,0.0,0.0,0.0,0.0,0.0,0.0,0.0,0.0,0.0,0.0,0.0,0.0,0.0,0.0,0.0,0.0,0.0,0.0,0.0,0.0,0.0,0.0,0.0,0.0,0.0,0.0,0.0,0.0,0.0,0.0,0.0,0.0,0.0,0.0,0.0,0.0,0.0,0.0,0.0,0.0,0.0,0.0,0.0,0.0,0.0,0.0,0.0,0.0,0.0,0.0,0.0,0.0,0.0,0.0,0.0,0.0,0.0,0.0,0.0,0.0,-1.2626,-1.5043,-1.617,-1.5299,-1.6381,-1.5484,-1.1637,0.0,0.0,0.0,0.0,0.0,0.0,0.0,0.0,0.0,0.0,0.0,0.0,0.0,0.0,0.0,0.0,0.0,0.0,0.0,0.0,0.0,0.0,0.0,0.0,0.0,0.0,0.0,0.0,0.0,0.0,0.0,0.0,0.0,0.0,0.0,0.0,0.0,0.0,0.0,0.0,0.0,0.0,0.0,0.0,0.0,0.0,0.0,0.0,0.0,0.0,0.0,0.0,0.0,0.0,0.0,0.0,0.0,0.0,0.0,0.0,0.0,0.0,0.0,0.0,0.0,0.0,0.0,0.0,0.0,0.0,0.0,0.0,0.0,0.0,0.0,0.0,0.0,0.0,0.0,0.0,0.0,0.0,0.0,0.0,0.0,0.0,0.0,0.0,0.0,0.0,0.0,0.0,0.0,0.0,0.0,0.0,0.0,0.0,0.0,0.0,0.0,0.0,0.0,0.0,-1.1038,-1.3515,-1.5463,-1.6221,-1.537,-1.4839,-1.3629,-1.1446,0.0,0.0,0.0,0.0,0.0,0.0,0.0,0.0,0.0,0.0,0.0,0.0,0.0,0.0,0.0,0.0,0.0,0.0,0.0,0.0,0.0,0.0,0.0,0.0,0.0,0.0,0.0,0.0,0.0,0.0,0.0,0.0,0.0,0.0,0.0,0.0,0.0,0.0,0.0,0.0,0.0,0.0,0.0,0.0,0.0,0.0,0.0,0.0,0.0,0.0,0.0,0.0,0.0,0.0,0.0,0.0,0.0,0.0,0.0,0.0,0.0,0.0,0.0,0.0,0.0,0.0,0.0,0.0,0.0,0.0,0.0,0.0,0.0,0.0,0.0,0.0,0.0,0.0,0.0,0.0,0.0,0.0,0.0,0.0,0.0,0.0,0.0,0.0,0.0,0.0,0.0,0.0,0.0,0.0,0.0,0.0,0.0,0.0,0.0,0.0,0.0,0.0,0.0,-1.0572,-1.1318,-1.2522,-1.3783,-1.4358,-1.3927,-1.3127,-1.228,-1.1412,-1.1667,0.0,0.0,0.0,0.0,0.0,0.0,0.0,0.0,0.0,0.0,0.0,0.0,0.0,0.0,0.0,0.0,0.0,0.0,0.0,0.0,0.0,0.0,0.0,0.0,0.0,0.0,0.0,0.0,0.0,0.0,0.0,0.0,0.0,0.0,0.0,0.0,0.0,0.0,0.0,0.0,0.0,0.0,0.0,0.0,0.0,0.0,0.0,0.0,0.0,0.0,0.0,0.0,0.0,0.0,0.0,0.0,0.0,0.0,0.0,0.0,0.0,0.0,0.0,0.0,0.0,0.0,0.0,0.0,0.0,0.0,0.0,0.0,0.0,0.0,0.0,0.0,0.0,0.0,0.0,0.0,0.0,0.0,0.0,0.0,0.0,0.0,0.0,0.0,0.0,0.0,0.0,0.0,0.0,0.0,0.0,0.0,0.0,0.0,0.0,0.0,0.0,0.0,-1.0975,-1.1523,-1.1523,-1.2302,-1.2712,-1.2466,-1.1932,-1.1477,-1.1146,-1.0529,0.0,0.0,0.0,0.0,0.0,0.0,0.0,0.0,0.0,0.0,0.0,0.0,0.0,0.0,0.0,0.0,0.0,0.0,0.0,0.0,0.0,0.0,0.0,0.0,0.0,0.0,0.0,0.0,0.0,0.0,0.0,0.0,0.0,0.0,0.0,0.0,0.0,0.0,0.0,0.0,0.0,0.0,0.0,0.0,0.0,0.0,0.0,0.0,0.0,0.0,0.0,0.0,0.0,0.0,0.0,0.0,0.0,0.0,0.0,0.0,0.0,0.0,0.0,0.0,0.0,0.0,0.0,0.0,0.0,0.0,0.0,0.0,0.0,0.0,0.0,0.0,0.0,0.0,0.0,0.0,0.0,0.0,0.0,0.0,0.0,0.0,0.0,0.0,0.0,0.0,0.0,0.0,0.0,0.0,0.0,0.0,0.0,0.0,0.0,0.0,0.0,0.0,-1.1026,-1.1582,-1.1582,-1.2363,-1.2559,-1.1758,-1.1855,-1.1479,-1.0366,-1.0164,0.0,0.0,0.0,0.0,0.0,0.0,0.0,0.0,0.0,0.0,0.0,0.0,0.0,0.0,0.0,0.0,0.0,0.0,0.0,0.0,0.0,0.0,0.0,0.0,0.0,0.0,0.0,0.0,0.0,0.0,0.0,0.0,0.0,0.0,0.0,0.0,0.0,0.0,0.0,0.0,0.0,0.0,0.0,0.0,0.0,0.0,0.0,0.0,0.0,0.0,0.0,0.0,0.0,0.0,0.0,0.0,0.0,0.0,0.0,0.0,0.0,0.0,0.0,0.0,0.0,0.0,0.0,0.0,0.0,0.0,0.0,0.0,0.0,0.0,0.0,0.0,0.0,0.0,0.0,0.0,0.0,0.0,0.0,0.0,0.0,0.0,0.0,0.0,0.0,0.0,0.0,0.0,0.0,0.0,0.0,0.0,0.0,0.0,0.0,0.0,0.0,0.0,-1.0501,-1.0748,0.0,-1.1074,-1.1152,-1.082,-1.0879,-1.0739,-1.0236,0.0,0.0,0.0,0.0,0.0,0.0,0.0,0.0,0.0,0.0,0.0,0.0,0.0,0.0,0.0,0.0,0.0,0.0,0.0,0.0,0.0,0.0,0.0,0.0,0.0,0.0,0.0,0.0,0.0,0.0,0.0,0.0,0.0,0.0,0.0,0.0,0.0,0.0,0.0,0.0,0.0,0.0,0.0,0.0,0.0,0.0,0.0,0.0,0.0,0.0,0.0,0.0,0.0,0.0,0.0,0.0,0.0,0.0,0.0,0.0,0.0,0.0,0.0,0.0,0.0,0.0,0.0,0.0,0.0,0.0,0.0,0.0,0.0,0.0,0.0,0.0,0.0,0.0,0.0,0.0,0.0,0.0,0.0,0.0,0.0,0.0,0.0,0.0,0.0,0.0,0.0,0.0,0.0,0.0,0.0,0.0,0.0,0.0,0.0,0.0,0.0,0.0,-1.0185,-1.0215,-1.0252,0.0,-1.0059,-1.0,-1.0273,-1.0293,-1.0272,-1.0198,0.0,0.0,0.0,0.0,0.0,0.0,0.0,0.0,0.0,0.0,0.0,0.0,0.0,0.0,0.0,0.0,0.0,0.0,0.0,0.0,0.0,0.0,0.0,0.0,0.0,0.0,0.0,0.0,0.0,0.0,0.0,0.0,0.0,0.0,0.0,0.0,0.0,0.0,0.0,0.0,0.0,0.0,0.0,0.0,0.0,0.0,0.0,0.0,0.0,0.0,0.0,0.0,0.0,0.0,0.0,0.0,0.0,0.0,0.0,0.0,0.0,0.0,0.0,0.0,0.0,0.0,0.0,0.0,0.0,0.0,0.0,0.0,0.0,0.0,0.0,0.0,0.0,0.0,0.0,0.0,0.0,0.0,0.0,0.0,0.0,0.0,0.0,0.0,0.0,0.0,0.0,0.0,0.0,0.0,0.0,0.0,0.0,0.0,0.0,0.0,0.0,0.0,-1.0207,-1.0266,-1.0293,-1.0293,-0.9531,-0.9355,-1.0234,-1.0293,-1.0254,0.0,0.0,0.0,0.0,0.0,0.0,0.0,0.0,0.0,0.0,0.0,0.0,0.0,0.0,0.0,0.0,0.0,0.0,0.0,0.0,0.0,0.0,0.0,0.0,0.0,0.0,0.0,0.0,0.0,0.0,0.0,0.0,0.0,0.0,0.0,0.0,0.0,0.0,0.0,0.0,0.0,0.0,0.0,0.0,0.0,0.0,0.0,0.0,0.0,0.0,0.0,0.0,0.0,0.0,0.0,0.0,0.0,0.0,0.0,0.0,0.0,0.0,0.0,0.0,0.0,0.0,0.0,0.0,0.0,0.0,0.0,0.0,0.0,0.0,0.0,0.0,0.0,0.0,0.0,0.0,0.0,0.0,0.0,0.0,0.0,0.0,0.0,0.0,0.0,0.0,0.0,0.0,0.0,0.0,0.0,0.0,0.0,0.0,0.0,0.0,0.0,0.0,0.0,-1.0196,-1.0254,-1.0293,-1.0293,-1.0078,-1.002,-1.0273,-1.0293,-0.9609,-0.7969,0.0,0.0,0.0,0.0,0.0,0.0,0.0,0.0,0.0,0.0,0.0,0.0,0.0,0.0,0.0,0.0,0.0,0.0,0.0,0.0,0.0,0.0,0.0,0.0,0.0,0.0,0.0,0.0,0.0,0.0,0.0,0.0,0.0,0.0,0.0,0.0,0.0,0.0,0.0,0.0,0.0,0.0,0.0,0.0,0.0,0.0,0.0,0.0,0.0,0.0,0.0,0.0,0.0,0.0,0.0,0.0,0.0,0.0,0.0,0.0,0.0,0.0,0.0,0.0,0.0,0.0,0.0,0.0,0.0,0.0,0.0,0.0,0.0,0.0,0.0,0.0,0.0,0.0,0.0,0.0,0.0,0.0,0.0,0.0,0.0,0.0,0.0,0.0,0.0,0.0,0.0,0.0,0.0,0.0,0.0,0.0,0.0,0.0,0.0,0.0,0.0,0.0,-1.0241,-1.0266,-1.0293,-1.0293,-0.998,-0.9922,-1.0273,-0.8418,-0.6934,-0.623,0.0,0.0,0.0,0.0,0.0,0.0,0.0,0.0,0.0,0.0,0.0,0.0,0.0,0.0,0.0,0.0,0.0,0.0,0.0,0.0,0.0,0.0,0.0,0.0,0.0,0.0,0.0,0.0,0.0,0.0,0.0,0.0,0.0,0.0,0.0,0.0,0.0,0.0,0.0,0.0,0.0,0.0,0.0,0.0,0.0,0.0,0.0,0.0,0.0,0.0,0.0,0.0,0.0,0.0,0.0,0.0,0.0,0.0,0.0,0.0,0.0,0.0,0.0,0.0,0.0,0.0,0.0,0.0,0.0,0.0,0.0,0.0,0.0,0.0,0.0,0.0,0.0,0.0,0.0,0.0,0.0,0.0,0.0,0.0,0.0,0.0,0.0,0.0,0.0,0.0,0.0,0.0,0.0,0.0,0.0,0.0,0.0,0.0,0.0,0.0,0.0,0.0,-1.0312,-1.0251,-1.0293,-1.0293,-0.959,-0.9434,-1.0234,-0.543,-0.3008,-0.4531,0.0,0.0,0.0,0.0,0.0,0.0,0.0,0.0,0.0,0.0,0.0,0.0,0.0,0.0,0.0,0.0,0.0,0.0,0.0,0.0,0.0,0.0,0.0,0.0,0.0,0.0,0.0,0.0,0.0,0.0,0.0,0.0,0.0,0.0,0.0,0.0,0.0,0.0,0.0,0.0,0.0,0.0,0.0,0.0,0.0,0.0,0.0,0.0,0.0,0.0,0.0,0.0,0.0,0.0,0.0,0.0,0.0,0.0,0.0,0.0,-1.5877,0.0,0.0,0.0,0.0,0.0,0.0,0.0,0.0,0.0,0.0,0.0,0.0,0.0,0.0,0.0,0.0,0.0,0.0,0.0,0.0,0.0,0.0,0.0,0.0,0.0,0.0,0.0,0.0,0.0,0.0,0.0,0.0,0.0,0.0,0.0,0.0,0.0,0.0,0.0,0.0,0.0,-1.0304,-1.0292,-1.0293,-1.0293,-1.0137,-1.0098,-1.0273,-0.4316,-0.0703,-0.1074,0.0,0.0,0.0,0.0,0.0,0.0,0.0,0.0,0.0,0.0,0.0,0.0,0.0,0.0,0.0,0.0,0.0,0.0,0.0,0.0,0.0,0.0,0.0,0.0,0.0,0.0,0.0,0.0,0.0,0.0,0.0,0.0,0.0,0.0,0.0,0.0,0.0,0.0,0.0,0.0,0.0,0.0,0.0,0.0,0.0,0.0,0.0,0.0,0.0,0.0,0.0,0.0,0.0,0.0,0.0,0.0,0.0,0.0,0.0,0.0,0.0,-1.5799,0.0,0.0,0.0,0.0,0.0,0.0,0.0,0.0,0.0,0.0,0.0,0.0,0.0,0.0,0.0,0.0,0.0,0.0,0.0,0.0,0.0,0.0,0.0,0.0,0.0,0.0,0.0,0.0,0.0,0.0,0.0,0.0,0.0,0.0,0.0,0.0,0.0,0.0,0.0,0.0,-1.0305,-1.0256,-1.0249,-1.0254,-1.0254,-1.0254,-1.0293,-0.7012,-0.3535,-0.0215,0.0,0.0,0.0,0.0,0.0,0.0,0.0,0.0,0.0,0.0,0.0,0.0,0.0,0.0,0.0,0.0,0.0,0.0,0.0,0.0,0.0,0.0,0.0,0.0,0.0,0.0,0.0,0.0,0.0,0.0,0.0,0.0,0.0,0.0,0.0,0.0,0.0,0.0,0.0,0.0,0.0,0.0,0.0,0.0,0.0,0.0,0.0,0.0,0.0,0.0,0.0,0.0,0.0,0.0,0.0,-1.7753,-1.771,-1.8805,-1.8653,-1.754,-1.701,-1.6235,-1.5366,0.0,0.0,0.0,0.0,0.0,0.0,0.0,0.0,0.0,0.0,0.0,0.0,0.0,0.0,0.0,0.0,0.0,0.0,0.0,0.0,0.0,0.0,0.0,0.0,0.0,-1.3861,-1.3944,0.0,0.0,0.0,0.0,0.0,0.0,0.0,0.0,0.0,0.0,0.0,0.0,-1.0285,-1.0202,-1.0197,-1.0209,-0.9667,-0.9102,-0.8555,-0.8496,-0.6074,-0.0352,0.0,0.0,0.0,0.0,0.0,0.0,0.0,0.0,0.0,0.0,0.0,0.0,0.0,0.0,0.0,0.0,0.0,0.0,0.0,0.0,0.0,0.0,0.0,0.0,0.0,0.0,0.0,0.0,0.0,0.0,0.0,0.0,0.0,0.0,-1.5111,-1.6807,0.0,0.0,0.0,0.0,0.0,0.0,0.0,0.0,0.0,0.0,0.0,0.0,0.0,0.0,-1.7199,-1.6999,-1.7066,-1.746,-1.7906,-1.795,-1.7642,-1.849,-1.8787,-1.8529,-1.7255,0.0,-1.547,-1.5556,0.0,0.0,0.0,0.0,0.0,0.0,0.0,0.0,0.0,0.0,0.0,0.0,0.0,0.0,0.0,0.0,0.0,0.0,0.0,0.0,0.0,0.0,-1.478,-1.4833,-1.3747,-1.2889,0.0,-1.4325,-1.4512,-1.3277,0.0,0.0,0.0,0.0,0.0,0.0,0.0,0.0,-1.0201,-1.0206,-1.0198,-1.0192,-0.7552,-0.457,-0.1602,-0.1367,-0.0977,-0.0059,0.0,0.0,0.0,-0.0866,0.0,0.0,0.0,0.0,0.0,0.0,0.0,0.0,0.0,0.0,0.0,0.0,0.0,0.0,0.0,0.0,0.0,0.0,0.0,0.0,0.0,0.0,0.0,0.0,0.0,0.0,0.0,0.0,0.0,-1.561,-1.6353,-1.6447,-1.7388,-1.7947,0.0,0.0,0.0,0.0,0.0,0.0,0.0,0.0,0.0,-1.707,-1.7371,-1.7413,-1.7088,-1.7319,-1.7698,-1.8221,-1.8399,-1.8383,-1.8236,-1.9217,-1.9202,-1.8451,-1.8498,-1.7622,-1.6109,-1.5124,-1.462,-1.4456,0.0,0.0,0.0,0.0,0.0,-1.4505,-1.466,0.0,0.0,0.0,0.0,0.0,0.0,0.0,0.0,0.0,0.0,0.0,0.0,0.0,0.0,-1.3516,-1.2635,-1.1712,-1.1525,-1.2613,-1.3357,0.0,-1.2721,-1.3292,-1.3906,0.0,0.0,0.0,0.0,0.0,-1.0024,-1.0019,-1.0039,-1.0087,-0.8784,-0.6503,-0.2998,-0.1043,0.0,0.0,0.0,0.0,0.0,0.0,-0.1424,0.0,0.0,0.0,0.0,0.0,0.0,0.0,0.0,0.0,0.0,0.0,0.0,0.0,0.0,0.0,0.0,0.0,0.0,0.0,0.0,0.0,0.0,0.0,0.0,0.0,0.0,0.0,0.0,-1.6335,-1.6864,-1.5964,-1.7326,-1.7996,0.0,0.0,0.0,0.0,0.0,0.0,-1.7376,-1.7975,-1.7976,-1.7285,-1.7689,-1.7632,-1.7071,-1.7554,-1.8056,-1.854,-1.854,-1.854,-1.8576,-1.9375,-1.9163,-1.8169,-1.901,-1.8375,-1.6611,-1.5298,-1.4576,-1.4318,-1.4282,-1.4197,-1.4132,-1.4589,-1.4643,-1.4468,-1.4592,-1.4652,-1.4659,-1.4414,0.0,-1.4483,-1.455,0.0,0.0,0.0,0.0,-1.4289,-1.4168,-1.3271,-1.2381,-1.2282,-1.1663,-1.0934,-1.0301,-1.0954,-1.166,0.0,-1.1958,-1.2416,-1.3156,0.0,0.0,0.0,0.0,-0.9894,-0.9894,-0.9894,-0.9929,-0.9968,-1.0006,-0.8977,-0.6369,-0.3888,-0.1763,-0.011,0.0,0.0,0.0,0.0,0.0,0.0,0.0,0.0,0.0,0.0,0.0,0.0,0.0,0.0,0.0,0.0,0.0,0.0,0.0,0.0,0.0,0.0,0.0,0.0,0.0,0.0,0.0,0.0,0.0,0.0,0.0,0.0,0.0,0.0,0.0,-1.5786,-1.6719,0.0,0.0,0.0,0.0,-1.6578,-1.7548,-1.7597,-1.6277,-1.6703,-1.7043,-1.7121,-1.7125,-1.7453,-1.8032,-1.8074,-1.8101,-1.8129,-1.8129,-1.8129,-1.8129,-1.821,-1.8092,-1.7935,-1.7964,-1.7495,-1.6683,-1.6615,-1.5917,-1.4954,-1.4964,-1.5129,-1.5436,-1.5644,-1.5713,-1.5643,-1.5161,-1.4978,-1.4869,-1.4161,-1.4016,-1.4142,-1.4198,-1.4265,0.0,0.0,-1.4153,-1.3923,-1.3102,-1.2914,-1.2792,-1.2079,-1.1361,-1.084,-1.0927,-1.0257,-0.9957,0.0,-1.1251,-1.1282,-1.1338,0.0,-0.9973,-1.0032,-0.9962,-0.9912,-0.9912,-0.9893,-0.9893,-0.9899,-0.985,-0.9827,-0.9824,-0.9456,-0.6576,-0.0386,0.0,0.0,0.0,0.0,0.0,0.0,-0.6777,0.0,0.0,0.0,0.0,0.0,0.0,0.0,0.0,0.0,0.0,0.0,0.0,0.0,0.0,0.0,0.0,0.0,0.0,0.0,0.0,0.0,0.0,0.0,0.0,0.0,0.0,0.0,0.0,-1.7835,-1.8331,0.0,0.0,-1.7324,-1.6851,-1.6281,-1.7035,-1.7284,-1.6766,-1.6981,-1.7112,-1.717,-1.6809,-1.6712,-1.6961,-1.692,-1.692,-1.692,-1.692,-1.7152,-1.7518,-1.7518,-1.7538,-1.7506,-1.7506,-1.6909,-1.5913,-1.5939,-1.5514,-1.485,-1.4584,-1.4447,-1.446,-1.488,-1.4922,-1.4788,-1.4851,-1.4622,-1.419,-1.3481,-1.3293,-1.3308,-1.3194,-1.3408,-1.3626,-1.3463,-1.3528,-1.3594,-1.336,-1.297,-1.2569,-1.2441,-1.1466,-1.056,-1.0601,-0.9951,-0.9492,-0.9893,-1.0086,-1.039,-1.1073,-1.0399,-0.997,-1.0574,-1.0159,-0.9775,-0.9775,-0.9775,-0.9775,-0.9775,-0.9791,-0.9806,-0.9838,-0.7933,-0.5689,-0.3246,-0.1153,0.0,0.0,0.0,0.0,0.0,-0.457,-0.6894,0.0,0.0,0.0,0.0,0.0,0.0,0.0,0.0,0.0,0.0,0.0,0.0,0.0,0.0,0.0,0.0,0.0,0.0,0.0,0.0,0.0,0.0,0.0,0.0,0.0,0.0,-1.854,-1.8877,-1.9097,-1.8855,-1.7908,-1.7358,-1.6759,-1.6061,-1.6824,-1.7076,-1.6507,-1.6757,-1.6764,-1.6384,-1.596,-1.5775,-1.5775,-1.5775,-1.5775,-1.5775,-1.5775,-1.596,-1.6384,-1.6384,-1.6373,-1.6362,-1.644,-1.5851,-1.4889,-1.4958,-1.4672,-1.4198,-1.4273,-1.4195,-1.4074,-1.4561,-1.4623,-1.4485,-1.4545,-1.4026,-1.3238,-1.2915,-1.2734,-1.2625,-1.2614,-1.282,-1.3053,-1.2908,-1.2997,-1.309,-1.2924,-1.2348,-1.1834,-1.1906,-1.102,-1.0202,-1.0419,-0.991,-0.9431,-0.9509,-0.9556,-0.9775,-1.0439,-1.0072,-0.9887,-1.0465,-1.0075,-0.9698,-0.9698,-0.9698,-0.9698,-0.9698,-0.9739,-0.9747,-0.9706,-0.7829,-0.5655,-0.3319,-0.117,-0.1019,-0.3307,-0.3403,-0.3403,-0.3403,-0.5093,-0.7402,-1.0293,0.0,0.0,0.0,0.0,0.0,0.0,0.0,0.0,0.0,0.0,0.0,0.0,0.0,0.0,0.0,0.0,0.0,0.0,0.0,0.0,0.0,0.0,0.0,-1.6872,-1.7618,-1.8216,-1.8768,-1.8837,-1.8283,-1.6921,-1.7278,-1.7117,-1.5916,-1.7015,-1.7015,-1.5392,-1.596,-1.5828,-1.4698,-1.4652,-1.4652,-1.4652,-1.4652,-1.4652,-1.4641,-1.4641,-1.463,-1.4607,-1.4607,-1.4585,-1.4444,-1.463,-1.4304,-1.3678,-1.3835,-1.3544,-1.3053,-1.4049,-1.4456,-1.4487,-1.4836,-1.4945,-1.4847,-1.4243,-1.3182,-1.2148,-1.2459,-1.2329,-1.2117,-1.2459,-1.2572,-1.2572,-1.2572,-1.2591,-1.2412,-1.1703,-1.1123,-1.07,-1.0511,-1.0045,-0.9837,-1.0491,-1.0099,-0.9702,-0.9966,-0.9763,-0.9475,-0.9321,-0.9517,-0.9641,-0.9517,-0.9609,0.0,-0.9691,-0.9691,-0.9691,-0.9698,-0.9698,-0.9698,-0.9698,-0.9698,-0.7017,-0.0698,-0.011,-0.3035,-0.9817,-1.0086,-1.0086,-1.0094,-0.8356,-1.0078,-1.5391,0.0,0.0,0.0,0.0,0.0,0.0,0.0,0.0,0.0,0.0,0.0,0.0,0.0,0.0,0.0,0.0,0.0,0.0,0.0,0.0,0.0,0.0,-1.7024,-1.7648,-1.7891,-1.8559,-2.0053,-1.9428,-1.8712,-1.8346,-1.6906,-1.601,-1.615,-1.5764,-1.5541,-1.5519,-1.488,-1.4354,-1.405,-1.361,-1.3382,-1.3382,-1.3382,-1.3219,-1.2894,-1.2894,-1.2983,-1.3076,-1.3076,-1.3103,-1.3134,-1.3202,-1.2862,-1.2325,-1.2373,-1.228,-1.2224,-1.3091,-1.3413,-1.3413,-1.352,-1.3528,-1.337,-1.2734,-1.2259,-1.1899,-1.15,-1.1318,-1.1296,-1.1571,-1.1794,-1.1953,-1.1953,-1.2092,-1.2187,-1.198,-1.1831,-1.175,-1.1944,-1.1454,-1.1023,-1.1215,-1.0687,-1.0191,-1.0283,-1.0295,-1.0081,-0.9421,-0.9367,-0.9394,-0.9367,-0.9385,0.0,-0.9403,-0.9403,-0.9439,-0.9542,-0.955,-0.9601,-0.9691,-0.9698,-0.8927,0.0,-0.2608,-0.2949,-0.9538,-0.9818,-0.9904,-1.009,-0.4844,-0.6504,0.0,0.0,0.0,0.0,0.0,0.0,0.0,0.0,0.0,0.0,0.0,0.0,0.0,0.0,0.0,0.0,0.0,0.0,0.0,0.0,0.0,0.0,-1.6977,-1.7403,-1.827,-1.8507,-1.898,-2.0026,-1.9254,-1.8453,-1.7915,-1.6618,-1.5842,-1.5905,-1.5284,-1.4893,-1.4956,-1.4217,-1.3684,-1.342,-1.3055,-1.2881,-1.2881,-1.2881,-1.2599,-1.2035,-1.2348,-1.239,-1.2232,-1.2341,-1.2492,0.0,-1.2127,-1.1829,-1.1694,-1.134,-1.118,0.0,0.0,0.0,0.0,0.0,-1.2168,-1.1708,-1.1508,-1.1175,-1.0768,-1.0525,-1.0345,-1.0296,-1.0572,-1.0782,-1.0917,-1.1059,-1.1232,-1.1373,-1.1549,-1.1499,-1.1505,-1.1943,-1.1629,-1.1265,-1.1559,-1.1134,-1.0687,-1.0687,0.0,0.0,-0.9849,-0.9927,-0.9937,-0.9563,-0.9652,-0.9655,-0.9338,-0.9303,-0.9331,-0.9403,-0.9412,-0.9439,-0.9525,-0.9534,0.0,0.0,0.0,-0.5622,-1.0588,-1.0983,0.0,0.0,0.0,-0.5432,-1.2136,0.0,0.0,0.0,-1.2031,-1.3206,0.0,0.0,0.0,0.0,0.0,0.0,0.0,0.0,0.0,0.0,0.0,0.0,0.0,0.0,0.0,0.0,-1.6579,-1.7026,-1.8648,-1.9145,-1.9364,-1.9221,-1.8589,-1.7737,-1.6591,-1.6384,-1.6079,-1.5448,-1.5138,-1.4746,-1.4169,0.0,0.0,0.0,0.0,-1.2666,-1.2666,-1.2666,-1.2325,-1.1653,-1.2278,-1.2211,-1.1572,-1.178,-1.2119,-1.2464,-1.1354,-1.1087,-1.1339,-1.0664,-1.0332,-1.04,-1.1292,-1.1627,-1.1616,-1.1578,-1.091,0.0,0.0,0.0,0.0,-0.9601,-0.9484,-0.9312,-0.9652,-0.9742,-0.9793,-1.0108,-1.0195,-1.0332,-1.0678,-1.0587,-1.0541,-1.1113,-1.1045,-1.0985,-1.1606,-1.1409,-1.1124,-1.1162,-1.0852,-1.0552,-1.0552,-1.081,-1.0764,-1.0015,-1.0218,-1.0219,-0.958,-0.9502,-0.9502,-0.9521,0.0,0.0,-0.9541,-0.9478,-0.8708,-0.6984,-0.8099,-0.9891,-1.2266,-1.2348,-1.2367,-1.2368,-0.8277,-0.6638,-0.7603,-1.2714,-1.2887,-0.844,-0.7879,-1.0071,0.0,0.0,0.0,0.0,0.0,0.0,0.0,0.0,0.0,0.0,0.0,0.0,0.0,0.0,0.0,-1.8585,-1.8502,-1.8257,-1.8512,-1.901,-1.9291,-1.9163,-1.8093,-1.717,-1.6534,-1.5664,-1.5285,-1.5618,-1.4794,-1.4333,-1.4357,-1.3326,0.0,-1.2039,-1.1475,-1.1225,-1.1225,-1.1225,-1.0971,-1.0538,0.0,0.0,-0.9946,-1.0019,-1.0073,-1.0178,-1.0508,-1.0485,-1.0249,-1.0644,-1.0586,-1.0322,-1.0505,-1.0582,-1.053,-1.0165,-0.9882,-0.9659,-0.9303,-0.9046,-0.8903,-0.8985,-0.8958,-0.8958,-0.9286,-0.9405,0.0,-0.947,-0.9677,-0.9919,-0.9995,-1.0217,-1.0505,-1.0879,-1.094,-1.0977,-1.1327,-1.1321,-1.1344,-1.1617,-1.1589,-1.154,-1.154,-1.0968,-1.0542,-1.0612,-1.0669,-1.0731,-1.0757,-1.0749,-1.0788,-1.0902,-1.0914,-1.0964,-1.1071,-1.0627,-1.0192,-0.9806,-1.1959,-1.3125,-1.2797,-0.9965,-0.978,-1.2723,-1.2723,-1.1005,-0.7603,-1.2714,-1.4689,-1.3623,-0.9562,-0.8226,0.0,0.0,0.0,0.0,0.0,0.0,0.0,0.0,0.0,0.0,0.0,-1.4733,0.0,0.0,-1.7185,-1.8181,-1.8065,-1.788,-1.7722,-1.7423,-1.7331,-1.746,-1.7173,-1.6668,-1.5982,-1.509,-1.445,-1.4398,-1.3505,-1.2985,-1.2927,-1.2118,-1.1619,-1.155,-1.1241,-1.1034,-1.1034,-1.1034,-1.0707,-1.0011,-1.0359,-1.0213,-0.9655,-0.9771,-0.9969,-1.0164,-1.0082,-1.0058,-1.0032,-1.0003,-0.9789,-0.9478,-0.9478,-0.9674,-0.9932,-0.9634,-0.9275,-0.8849,-0.8371,-0.8031,-0.783,-0.7686,-0.7646,-0.7675,-0.7846,-0.8045,-0.8252,-0.843,-0.8772,-0.9135,-0.9518,-0.9843,-1.0196,-1.0556,-1.0777,-1.0944,-1.1071,-1.1094,-1.1173,-1.149,-1.1557,-1.1601,-1.1768,-1.1414,-1.1079,-1.0967,-1.1056,-1.1108,-1.0962,-1.0941,-1.1014,-1.1175,-1.1189,-1.1216,-1.1295,-1.1097,-1.1177,-1.1674,-1.2993,-1.3742,-1.3699,-1.1893,-1.1783,-1.3673,-1.4231,-1.34,-1.1156,-1.3805,-1.5101,-1.5044,-1.2637,-1.1511,0.0,0.0,0.0,0.0,0.0,0.0,0.0,0.0,-1.5163,-1.5373,-1.5782,-1.6433,-1.741,-1.7863,-1.7947,-1.7539,-1.7153,-1.6883,-1.681,-1.5825,-1.5233,-1.5401,-1.5844,-1.5898,-1.5062,-1.4305,-1.366,-1.3028,-1.2342,-1.1801,-1.1542,-1.1034,-1.0853,-1.1091,-1.0993,-1.0885,-1.0885,-1.0885,-1.0455,-0.9614,-1.0167,-1.0115,-0.9607,-0.9838,-1.0103,-1.0383,-0.9707,-0.969,-1.0033,-0.9387,-0.8955,-0.8716,-0.8716,-0.9007,-0.9413,-0.9271,-0.8767,-0.8122,-0.769,-0.7327,-0.6949,-0.673,-0.6671,-0.6655,-0.6612,-0.6802,-0.7118,-0.7373,-0.7801,-0.8336,-0.8899,-0.9334,-0.9702,-1.0122,-1.0409,-1.0643,-1.0763,-1.0801,-1.0883,-1.1173,-1.1219,-1.1333,-1.1659,-1.1807,-1.176,-1.1366,-1.1502,-1.1514,-1.1189,-1.1188,-1.1298,-1.1448,-1.1521,-1.1536,-1.1536,-1.165,-1.2058,-1.2918,-1.3109,-1.3558,-1.4404,-1.4623,-1.4738,-1.4738,-1.4738,-1.4788,-1.492,-1.4933,-1.4954,-1.4995,-1.5159,-1.5375,-1.4978,-1.5118,-1.616,-1.7426,-1.7093,-1.6807,0.0,0.0,-1.6628,-1.6336,-1.6769,-1.7263,-1.7396,-1.7248,-1.7558,-1.8831,-1.7178,-1.5838,-1.5911,-1.553,-1.482,-1.3708,-1.4036,-1.4185,-1.3639,-1.3091,-1.2739,-1.2655,-1.2279,-1.1927,-1.1542,-1.0907,-1.0486,-1.0415,-0.9776,-0.9453,-0.9453,-0.9453,-0.9248,-0.891,-0.9008,-0.8956,-0.891,-0.8922,-0.8974,-0.904,-0.9198,-0.9406,-0.9719,-0.9281,-0.8955,-0.8716,-0.8716,-0.8731,-0.8736,-0.8334,-0.8101,-0.7948,-0.7565,-0.74,-0.7351,-0.7319,-0.7303,-0.7238,-0.6933,-0.6893,-0.6892,-0.6693,-0.7178,-0.7801,-0.7878,-0.8389,-0.9023,-0.941,-0.9528,-0.9725,-1.0335,-1.0458,-1.0556,-1.0897,-1.0944,-1.1024,-1.131,-1.1864,-1.2211,-1.2092,-1.2102,-1.2191,-1.2367,-1.2606,-1.2766,-1.2784,-1.2992,-1.3142,-1.3142,-1.3159,-1.329,-1.3578,-1.3736,-1.3935,-1.4214,-1.5086,-1.5564,-1.5564,-1.5564,-1.5636,-1.5755,-1.5071,-1.4821,-1.4995,-1.5021,-1.553,-1.6257,-1.6862,-1.7733,-1.7805,-1.825,-1.8494,-1.779,-1.7733,-1.7616,-1.7091,-1.6973,-1.7039,-1.7222,-1.6741,-1.6482,0.0,-1.5948,-1.5117,-1.5109,-1.4207,-1.3408,-1.3111,-1.2453,-1.2317,-1.2899,-1.2097,-1.1406,-1.1005,-1.025,-0.9694,-0.9326,-0.8998,-0.8923,-0.9101,-0.9176,-0.9183,-0.9183,-0.9183,-0.9044,-0.8804,-0.8804,-0.8804,-0.8804,-0.8804,-0.8804,-0.8804,-0.893,-0.8948,-0.8926,-0.8747,-0.8254,-0.7578,-0.7503,-0.7211,-0.6867,-0.7293,-0.7423,-0.7299,-0.6285,-0.5957,-0.5932,-0.5733,-0.564,-0.5695,-0.5907,-0.6027,-0.6123,-0.6326,-0.6793,-0.7235,-0.7294,-0.8018,-0.8808,-0.9054,-0.9455,-0.9967,-1.0497,-1.0624,-1.0822,-1.1414,-1.1536,-1.1629,-1.1957,-1.2243,-1.251,-1.2756,-1.2659,-1.2663,-1.2926,-1.2704,-1.2646,-1.2977,-1.3103,-1.3226,-1.3379,-1.3396,-1.3462,-1.3619,-1.3798,-1.3997,-1.4188,-1.5165,-1.5472,-1.5013,-1.5454,-1.5508,-1.5076,-1.4823,-1.4981,-1.5518,-1.5155,-1.6021,-1.7016,-1.7717,-1.8312,-1.8142,-1.8851,-1.9287,-1.8036,-1.8168,-1.8368,-1.7533,-1.7042,-1.6756,-1.6617,-1.5846,-1.525,-1.5218,-1.4545,-1.4114,-1.426,-1.2963,-1.212,-1.2254,-1.098,-1.0424,-1.1272,-1.08,-1.0132,-0.9404,-0.853,-0.7897,-0.7503,-0.7436,-0.7543,-0.7915,-0.8371,-0.8621,-0.8621,-0.8621,-0.8477,-0.8209,-0.8209,-0.8209,-0.8209,-0.8427,-0.8374,-0.8209,-0.8427,-0.8215,-0.7797,-0.7797,-0.7276,-0.6523,-0.6404,-0.6021,-0.558,-0.6186,-0.6483,-0.6373,-0.5365,-0.5029,-0.4958,-0.4719,-0.4631,-0.47,-0.5071,-0.5262,-0.5413,-0.5902,-0.6324,-0.6656,-0.6873,-0.7646,-0.8419,-0.877,-0.9297,-0.9874,-1.0496,-1.059,-1.081,-1.153,-1.1661,-1.1825,-1.2287,-1.2507,-1.2786,-1.3234,-1.3208,-1.3217,-1.3336,-1.2836,-1.2675,-1.3219,-1.3039,-1.3115,-1.3667,-1.3632,-1.3752,-1.4126,-1.4416,-1.4627,-1.4773,-1.5595,-1.5857,-1.5496,-1.5857,-1.5857,-1.5478,-1.5358,-1.5629,-1.622,-1.5818,-1.6766,-1.7044,-1.7082,-1.7314,-1.8799,-1.8758,-1.8601,-1.9505,-1.9455,-1.8885,-1.7513,-1.7306,-1.6857,-1.5257,-1.4449,-1.415,-1.4803,-1.3487,-1.259,-1.3279,-1.2262,-1.1236,-1.0719,-0.9509,-0.8591,0.0,-0.8918,-0.8961,-0.8323,-0.7924,-0.7509,-0.6941,-0.6754,-0.6839,-0.7323,-0.7197,-0.7146,-0.7146,-0.7146,-0.6976,-0.6642,-0.6642,-0.6642,-0.6696,-0.7396,-0.7343,-0.6696,-0.7402,-0.7197,-0.6288,-0.6288,-0.6112,-0.5819,-0.5809,-0.5686,-0.5436,-0.5114,-0.5125,-0.5346,-0.5298,-0.5293,-0.5293,-0.5288,-0.5288,-0.5247,-0.4994,-0.4924,-0.4993,-0.524,-0.5609,-0.6069,-0.6651,-0.7106,-0.7657,-0.8509,-0.8713,-0.8993,-0.9918,-1.0112,-1.0273,-1.0747,-1.0853,-1.1088,-1.1868,-1.2562,-1.3098,-1.3457,-1.3826,-1.3992,-1.3804,-1.3404,-1.3377,-1.3913,-1.3145,-1.3111,-1.4356,-1.4224,-1.4505,-1.5477,-1.5958,-1.6232,-1.6249,-1.6639,-1.722,-1.7986,-1.7238,-1.7238,-1.7986,-1.7215,-1.6909,-1.7076,-1.7181,-1.7795,-1.6922,-1.8349,-1.9569,-1.8775,-1.9982,-2.0996,-1.9748,-1.9081,-1.8351,-1.6899,-1.5687,-1.4417,-1.3195,-1.2297,-1.19,-1.2463,-1.2305,-1.1899,-1.1579,-1.1127,-1.0311,-0.884,-0.8138,0.0,0.0,0.0,0.0,-0.7138,-0.6564,-0.6229,-0.616,-0.5981,-0.5994,-0.6316,-0.6585,-0.6754,-0.6754,-0.6754,-0.6718,-0.6588,-0.6588,-0.6588,-0.6588,-0.6858,-0.6858,-0.6588,-0.6858,-0.6758,-0.6468,-0.6468,-0.6106,-0.5606,-0.5482,-0.5145,-0.4588,-0.4385,-0.4342,-0.4416,-0.4345,-0.4235,-0.4188,-0.4188,-0.4188,-0.422,-0.4491,-0.4424,-0.4392,-0.4888,-0.514,-0.537,-0.5923,-0.6747,-0.7578,-0.8285,-0.8824,-0.9532,-1.0665,-1.0684,-1.0788,-1.1667,-1.1908,-1.1995,-1.2298,-1.2793,-1.3383,-1.4073,-1.4137,-1.405,-1.3834,-1.3675,-1.3741,-1.4083,-1.4056,-1.4244,-1.4857,-1.5031,-1.5247,-1.5578,-1.5883,-1.6098,-1.6303,-1.7026,-1.7387,-1.7312,-1.755,-1.7568,-1.7293,-1.7037,-1.7192,-1.7757,-1.7349,-1.7978,-1.7763,-1.9095,-2.0205,-1.951,-2.009,-2.0456,-1.8942,-1.7908,-1.6766,-1.5277,-1.3827,-1.2345,-1.0916,-1.0208,-0.9918,-1.0012,-1.0299,-1.0343,-0.9903,-0.9706,-0.9242,-0.7981,-0.7284,-0.6843,0.0,0.0,0.0,-0.6218,-0.5892,-0.5629,-0.5463,-0.53,-0.5167,-0.5104,-0.557,-0.571,-0.5429,-0.571,-0.5828,-0.5828,-0.5828,-0.5828,-0.5882,-0.6095,-0.6095,-0.5878,-0.6095,-0.6095,-0.5828,-0.5828,-0.555,-0.5156,-0.5049,-0.4658,-0.419,-0.4195,-0.4111,-0.4005,-0.3907,-0.3816,-0.3727,-0.3673,-0.3656,-0.3743,-0.4092,-0.4018,-0.3999,-0.4687,-0.4847,-0.4976,-0.5572,-0.6292,-0.7034,-0.7875,-0.8434,-0.9167,-1.0383,-1.0451,-1.0573,-1.158,-1.1828,-1.1979,-1.2425,-1.2908,-1.3459,-1.4181,-1.4279,-1.4299,-1.4504,-1.4303,-1.4242,-1.4514,-1.4443,-1.4616,-1.5259,-1.5425,-1.5692,-1.6189,-1.6421,-1.6661,-1.6957,-1.7431,-1.7679,-1.7654,-1.7943,-1.7986,-1.7766,-1.7766,-1.8023,-1.8519,-1.8151,-1.8628,-1.9263,-1.9217,-1.9304,-2.0621,-1.9113,-1.7315,-1.727,-1.6,-1.4346,-1.2786,-1.1859,-1.0675,-0.8514,-0.8344,-0.8282,-0.7596,-0.7796,-0.8043,-0.8292,-0.8118,-0.7936,0.0,0.0,0.0,0.0,0.0,0.0,-0.5333,0.0,-0.5574,-0.4857,-0.4654,-0.434,-0.3737,-0.4155,-0.4015,-0.3231,-0.407,-0.446,-0.4519,-0.4519,-0.4519,-0.4515,-0.5164,-0.5109,-0.4519,-0.5164,-0.5109,-0.4519,-0.4519,-0.4519,-0.4519,-0.4519,-0.4379,-0.422,-0.4412,-0.4231,-0.3939,-0.3943,-0.3933,-0.3995,-0.3802,-0.3755,-0.3802,-0.3802,-0.3707,-0.3795,-0.4618,-0.4778,-0.4824,-0.5586,-0.5785,-0.6077,-0.7284,-0.7564,-0.7882,-0.9159,-0.9428,-0.9669,-1.0508,-1.0673,-1.1085,-1.2244,-1.2826,-1.3288,-1.3802,-1.4168,-1.4752,-1.5639,-1.5231,-1.4962,-1.5196,-1.444,-1.4419,-1.5638,-1.5528,-1.5921,-1.7223,-1.7528,-1.7837,-1.8187,-1.7897,-1.8121,-1.8948,-1.8419,-1.8507,-1.9274,-1.9274,-1.9289,-1.9305,-1.9499,-1.9656,-1.8121,-1.8944,-1.953,-1.8486,-1.8334,-1.7932,-1.5982,-1.4338,-1.2701,-1.1017,-0.9789,-0.8645,-0.7274,-0.7049,-0.714,-0.7298,-0.7598,0.0,-0.7351,-0.7427,0.0,-0.6344,0.0,-0.5416,-0.4501,-0.4328,0.0,0.0,-0.3766,-0.4172,-0.4055,-0.328,-0.2823,-0.2848,-0.2792,-0.2676,-0.2508,-0.3289,-0.3959,-0.4519,-0.4519,-0.4519,-0.4519,-0.468,-0.468,-0.4519,-0.468,-0.468,-0.4519,-0.4519,-0.4519,-0.4519,-0.4519,-0.4494,-0.4354,-0.3889,-0.3638,-0.3477,-0.288,-0.3255,-0.3913,-0.3328,-0.3513,-0.3961,-0.3961,-0.3938,-0.3921,-0.4147,-0.4186,-0.4386,-0.5204,-0.5408,-0.5649,-0.6634,-0.6797,-0.7057,-0.8337,-0.8447,-0.8636,-0.9734,-1.0355,-1.0965,-1.1841,-1.2066,-1.2401,-1.3187,-1.3377,-1.3906,-1.512,-1.5432,-1.5572,-1.5641,-1.5655,-1.5798,-1.6129,-1.6312,-1.6658,-1.7256,-1.7375,-1.7653,-1.8187,-1.8121,-1.8278,-1.8679,-1.8556,-1.8663,-1.9086,-1.9086,-1.915,-1.9305,-1.935,-1.9532,-1.8511,-1.8895,-1.9142,-1.7973,-1.6941,-1.5701,-1.3629,-1.1888,-1.0306,-0.8789,-0.7923,-0.7128,-0.6144,-0.603,-0.611,0.0,0.0,0.0,-0.6226,-0.6433,-0.638,0.0,-0.546,0.0,-0.415,-0.3749,-0.3217,0.0,-0.2927,-0.3219,-0.3201,-0.2679,-0.2214,-0.1977,-0.2117,-0.2174,-0.2174,-0.2676,-0.3067,-0.3511,-0.3846,-0.3956,-0.3956,-0.4349,-0.4519,-0.4519,0.0,-0.4519,-0.4519,-0.4519,-0.4294,-0.3956,-0.4015,-0.379,-0.3456,-0.301,-0.2899,-0.2788,-0.2009,-0.2394,-0.3151,-0.2639,-0.278,-0.3141,-0.3141,-0.3105,-0.3084,-0.3182,-0.3177,-0.3319,-0.4234,-0.4431,-0.472,-0.5846,-0.6056,-0.6283,-0.7321,-0.767,-0.8125,-0.9257,-0.9933,-1.0435,-1.0834,-1.1179,-1.156,-1.2058,-1.2495,-1.3128,-1.4114,-1.4984,-1.5477,-1.5477,-1.5854,-1.6095,-1.6095,-1.6246,-1.6501,-1.685,-1.7002,-1.7304,-1.7766,-1.8044,-1.827,-1.843,-1.8528,-1.866,-1.8825,-1.8949,-1.9052,-1.9166,-1.9259,-1.949,-1.8975,-1.8497,-1.805,-1.7697,-1.5169,-1.2314,-1.094,-0.9349,-0.7816,-0.6678,-0.6355,-0.6,-0.5144,-0.5222,-0.5171,-0.4598,0.0,-0.4847,-0.5363,-0.5423,-0.5532,-0.6023,-0.5129,-0.4382,-0.4141,-0.3258,-0.2603,-0.2375,-0.2374,-0.2319,-0.2322,-0.2259,-0.185,-0.1163,-0.1616,-0.1952,-0.2063,-0.2063,-0.212,-0.223,-0.2843,-0.3176,-0.3176,-0.3901,-0.4184,-0.4184,0.0,0.0,-0.4184,-0.4184,-0.379,-0.3176,-0.3231,-0.2788,-0.2174,-0.2063,-0.2063,-0.1952,-0.1229,-0.1284,-0.1777,-0.1835,-0.1926,-0.2033,-0.2033,-0.1936,-0.1912,-0.2139,-0.2133,-0.2207,-0.3044,-0.3176,-0.3506,-0.4882,-0.5194,-0.5396,-0.6215,-0.7079,-0.7973,-0.8991,-0.9442,-0.9683,-0.9716,-1.027,-1.072,-1.0795,-1.1611,-1.2378,-1.2867,-1.4114,-1.4968,-1.4998,-1.5418,-1.5712,-1.5712,-1.577,-1.5926,-1.6274,-1.6607,-1.6952,-1.7296,-1.7849,-1.8146,-1.8146,-1.8371,-1.8528,-1.8585,-1.8825,-1.8984,-1.9035,-1.923,-1.9476,-1.6096,-1.6057,-1.5808,-1.4517,-1.2863,-1.1166,-0.9662,-0.8097,0.0,-0.5878,-0.5504,-0.5161,-0.4667,-0.4659,-0.4668,-0.4687,-0.4674,-0.4847,-0.5363,0.0,-0.4417,0.0,0.0,0.0,0.0,0.0,0.0,0.0,0.0,0.0,-0.1485,-0.0834,-0.0376,-0.0238,-0.0343,-0.0671,-0.1284,-0.1284,-0.1619,-0.2174,-0.2343,-0.2397,-0.2397,-0.251,-0.2621,-0.2621,0.0,0.0,-0.2621,-0.2621,-0.2508,-0.2397,-0.2397,-0.2341,-0.212,-0.1507,-0.1284,-0.1174,-0.0448,0.0112,0.0335,-0.0887,-0.1661,-0.2158,-0.2158,-0.2148,-0.2143,-0.2168,-0.2166,-0.2215,-0.2339,-0.2397,-0.2619,-0.3564,-0.3653,-0.3844,-0.5108,-0.6416,-0.7745,-0.8948,-0.9014,-0.8966,-0.9166,-0.9518,-0.9884,-1.0244,-1.0836,-1.1446,-1.197,-1.3209,-1.4178,-1.4564,-1.4968,-1.5225,-1.5225,-1.558,-1.5926,-1.6274,-1.6607,-1.6952,-1.7296,-1.7664,-1.7861,-1.7861,-1.7905,-1.8146,-1.8585,-1.8659,-1.8878,-1.9243,-1.9274,-1.9423,-1.5296,-1.5065,-1.4691,-1.3423,-1.1696,-0.9983,-0.8537,0.0,0.0,-0.5093,-0.4492,-0.4009,-0.3932,-0.3566,-0.3307,-0.3416,-0.3486,-0.3643,-0.3932,-0.3677,0.0,0.0,0.0,0.0,0.0,0.0,0.0,0.0,0.0,0.0,-0.0595,-0.0257,0.0,0.0,0.0,-0.0168,-0.0504,-0.0168,-0.0335,-0.1062,-0.1059,-0.1281,-0.1619,-0.2009,-0.2006,-0.1613,-0.1613,0.0,-0.1054,-0.1054,-0.0832,-0.05,-0.0396,-0.0169,0.0167,0.0625,0.0679,0.0669,0.1005,0.1396,0.1563,0.0837,0.039,0.0111,0.0111,0.0111,0.0111,0.0111,0.0111,-0.0111,-0.0835,-0.1058,-0.1336,-0.2508,-0.303,-0.352,-0.4501,-0.5601,-0.6786,-0.8152,-0.8049,-0.7889,-0.8405,-0.8579,-0.8829,-0.9332,-0.9894,-1.0514,-1.1282,-1.2188,-1.2948,-1.3357,-1.421,-1.4741,-1.4741,-1.5404,-1.5885,-1.6039,-1.634,-1.6686,-1.7027,-1.7344,-1.7618,-1.7811,-1.7811,-1.7927,-1.8187,-1.8469,-1.8716,-1.893,-1.9196,-1.9413,-1.4174,-1.3829,-1.3223,-1.2445,-1.0601,-0.8532,-0.726,-0.5861,-0.4696,-0.4094,-0.3441,-0.2974,-0.3106,-0.2506,-0.1949,-0.1949,-0.1949,-0.1989,-0.2168,-0.2256,-0.2306,0.0,0.0,0.0,0.0,0.0,0.0,0.0,0.0,0.0,0.0,0.0,0.0,0.0,0.0,0.0,0.0,0.056,0.056,0.0,0.0167,-0.0056,-0.067,-0.1059,-0.0945,-0.0388,-0.0335,0.0,0.0,0.0563,0.0902,0.1407,0.1501,0.1834,0.2238,0.2357,0.234,0.2174,0.2174,0.2286,0.2454,0.2454,0.2343,0.2174,0.2174,0.2174,0.2174,0.2174,0.2174,0.195,0.0779,0.0445,0.0111,-0.1393,-0.2452,-0.3317,-0.4021,-0.4731,-0.5642,-0.6999,-0.6917,-0.6898,-0.7541,-0.7699,-0.7945,-0.8447,-0.8999,-0.9628,-1.0399,-1.0971,-1.1446,-1.1732,-1.3305,-1.4292,-1.4292,-1.5045,-1.5551,-1.5639,-1.5953,-1.6324,-1.6686,-1.7076,-1.7415,-1.7681,-1.7749,-1.7833,-1.79,-1.831,-1.8547,-1.8604,-1.9049,-1.9323,-1.0803,-1.0576,-1.0171,-1.02,-0.8565,-0.6608,-0.544,0.0,-0.3159,-0.2548,-0.2338,-0.2279,-0.2286,-0.1724,-0.122,-0.122,-0.0664,-0.028,-0.0406,-0.0308,-0.0325,-0.0471,0.0,0.0,0.0,0.0,0.0,0.0,0.0,0.0,0.0,0.0,0.0,0.0,0.0,0.0,0.0,0.0056,0.0056,0.0,0.0671,0.0949,0.0894,0.1505,0.1839,0.1898,0.0,0.0,0.0,0.2407,0.2395,0.2392,0.2401,0.2298,0.2176,0.2238,0.2237,0.2174,0.2174,0.2676,0.3289,0.3289,0.2788,0.2174,0.2174,0.2174,0.2174,0.2174,0.2174,0.2174,0.2007,0.2007,0.1615,0.0167,-0.128,-0.2504,-0.3254,-0.3975,-0.4751,-0.5558,-0.5987,-0.6399,-0.6821,-0.7105,-0.7439,-0.7908,-0.8439,-0.8797,-0.8918,-0.939,-0.9707,-0.9776,-1.2283,-1.3954,-1.3954,-1.4374,-1.4783,-1.5134,-1.5477,-1.5877,-1.6313,-1.696,-1.732,-1.7344,-1.7658,-1.7927,-1.8166,-1.8208,-1.8371,-1.8622,-1.8878,-1.9035,-0.9251,-0.9285,-0.9083,-0.8914,-0.7424,-0.5759,-0.5042,0.0,-0.1973,-0.2159,-0.1167,-0.0333,-0.0779,0.0111,0.0889,0.0889,0.1146,0.1307,0.1241,0.1277,0.1334,0.0,0.0,0.0,0.0,0.0,0.0,0.0,0.0,0.0,0.0,0.1487,0.1456,0.1351,0.1307,0.134,0.134,0.1786,0.1786,0.134,0.2063,0.2174,0.1786,0.2063,0.2454,0.2847,0.0,0.0,0.0,0.3945,0.3923,0.3818,0.3892,0.3798,0.3574,0.3651,0.3632,0.3566,0.3566,0.379,0.407,0.407,0.3846,0.3566,0.3566,0.3566,0.3566,0.3566,0.3566,0.3456,0.3065,0.2565,0.2052,0.1465,0.0548,-0.0441,-0.1133,-0.191,-0.2762,-0.3969,-0.4566,-0.5067,-0.5691,-0.6105,-0.6493,-0.69,-0.7428,-0.788,-0.8129,-0.8916,-0.9442,-0.9442,-1.1333,-1.2706,-1.296,-1.3874,-1.4617,-1.5059,-1.5507,-1.5881,-1.6301,-1.6554,-1.6799,-1.7018,-1.7142,-1.7344,-1.7653,-1.7815,-1.8069,-1.8371,-1.8623,-1.8752,-0.75,-0.7592,-0.7423,-0.7343,-0.5941,-0.441,-0.3696,-0.2054,-0.0787,-0.0926,0.0331,0.1277,0.0723,0.167,0.2565,0.2565,0.2732,0.2873,0.2888,0.2699,0.2613,0.0,0.0,0.0,0.0,0.0,0.0,0.0,0.0,0.0,0.0,0.3195,0.2895,0.2198,0.2203,0.2174,0.2174,0.273,0.273,0.223,0.2954,0.301,0.251,0.2817,0.3207,0.3691,0.0,0.0,0.0,0.4901,0.4867,0.4701,0.4809,0.4694,0.4532,0.4805,0.4885,0.4842,0.5062,0.5117,0.5062,0.4842,0.4952,0.5062,0.4842,0.468,0.4519,0.4519,0.4519,0.4405,0.3846,0.3284,0.2819,0.2595,0.213,0.1542,0.0808,0.0055,-0.0831,-0.2103,-0.2769,-0.3403,-0.4303,-0.493,-0.5362,-0.5687,-0.6356,-0.6834,-0.7056,-0.7904,-0.8545,-0.8658,-0.9799,-1.0941,-1.1902,-1.2954,-1.388,-1.4477,-1.4954,-1.5463,-1.5924,-1.6034,-1.627,-1.6633,-1.6738,-1.6952,-1.7296,-1.7499,-1.7749,-1.81,-1.8351,-1.8566,-0.5202,-0.4915,-0.4424,-0.5146,-0.3912,-0.2103,-0.0588,0.0,0.0507,0.1688,0.2073,0.2174,0.2174,0.2843,0.34,0.34,0.4012,0.446,0.446,0.3783,0.0,0.0,0.0,0.0,0.0,0.0,0.0,0.0,0.0,0.0,0.0,0.4857,0.4059,0.2237,0.2174,0.2174,0.2174,0.223,0.223,0.223,0.2954,0.3287,0.3347,0.427,0.4606,0.0,0.0,0.0,0.0,0.5006,0.4955,0.4691,0.4694,0.4599,0.457,0.5218,0.5487,0.5597,0.6312,0.6588,0.648,0.5706,0.5982,0.6421,0.5706,0.5003,0.4519,0.4519,0.4519,0.4519,0.4519,0.4443,0.4207,0.3448,0.3274,0.3099,0.2339,0.1612,0.0832,0.0111,-0.0611,-0.1535,-0.27,-0.3522,-0.4104,-0.4369,-0.5234,-0.5709,-0.5358,-0.5919,-0.6496,-0.6972,-0.7507,-0.8656,-1.0747,-1.1428,-1.2117,-1.306,-1.363,-1.4278,-1.5074,-1.5448,-1.5849,-1.6301,-1.6633,-1.6952,-1.7296,-1.7304,-1.7479,-1.7811,-1.8078,-1.8489,-0.329,-0.3103,-0.2741,-0.2869,-0.1772,-0.0497,0.0098,0.1239,0.213,0.2004,0.2943,0.3624,0.3121,0.3624,0.4288,0.4776,0.505,0.5382,0.5878,0.0,0.0,0.0,0.0,0.0,0.0,0.0,0.0,0.0,0.0,0.0,0.0,0.0,0.4539,0.3799,0.379,0.4006,0.4436,0.4657,0.505,0.5551,0.5784,0.5901,0.5897,0.5947,0.0,0.0,0.0,0.0,0.0,0.6391,0.6347,0.6226,0.6226,0.6108,0.5932,0.615,0.6253,0.6312,0.6529,0.6588,0.6588,0.6312,0.6421,0.6534,0.6312,0.6095,0.5937,0.5937,0.5937,0.5937,0.5937,0.5928,0.5864,0.5592,0.5534,0.5198,0.3987,0.3542,0.2989,0.1725,0.0889,0.011,-0.0766,-0.1527,-0.2202,-0.2675,-0.334,-0.3909,-0.4216,-0.4684,-0.5257,-0.589,-0.6032,-0.7279,-1.0186,-1.0839,-1.1665,-1.3014,-1.3544,-1.4109,-1.4658,-1.4786,-1.5061,-1.5477,-1.5579,-1.595,-1.6617,-1.6617,-1.6901,-1.7462,-1.7726,-1.8177,-0.1339,-0.1328,-0.1144,-0.1069,-0.0138,0.0,0.1108,0.2148,0.3032,0.3138,0.3958,0.4645,0.459,0.4892,0.5304,0.5806,0.5923,0.5982,0.0,0.0,0.0,0.0,0.0,0.0,0.0,0.0,0.0,0.0,0.0,0.0,0.0,0.0,0.5525,0.5289,0.4791,0.468,0.5109,0.568,0.6194,0.651,0.693,0.7043,0.6905,0.6789,0.0,0.0,0.0,0.0,0.0,0.6967,0.6927,0.6789,0.6789,0.6704,0.6642,0.6912,0.702,0.7074,0.7343,0.745,0.7402,0.7128,0.702,0.7074,0.7343,0.702,0.6588,0.6588,0.6588,0.6588,0.6588,0.6804,0.6966,0.6642,0.6804,0.6686,0.5471,0.5253,0.4867,0.3655,0.3094,0.2428,0.1439,0.0608,-0.0055,-0.0638,-0.1599,-0.2321,-0.2613,-0.3126,-0.3731,-0.438,-0.4536,-0.5636,-0.8126,-0.9307,-1.0419,-1.1608,-1.2528,-1.3243,-1.3703,-1.3703,-1.4063,-1.4803,-1.4847,-1.533,-1.6301,-1.6421,-1.6696,-1.7126,-1.7406,-1.7798,0.0,0.0382,0.0351,0.0351,0.1015,0.1866,0.2492,0.2852,0.0,0.484,0.5042,0.5312,0.6376,0.6388,0.6317,0.6602,0.6696,0.6475,0.0,0.0,0.0,0.0,0.0,0.0,0.0,0.0,0.0,0.0,0.0,0.0,0.0,0.0,0.6809,0.6598,0.5336,0.468,0.4736,0.5684,0.6027,0.5782,0.6773,0.7104,0.6781,0.6966,0.0,0.0,0.0,0.0,0.0,0.6966,0.693,0.675,0.675,0.675,0.6858,0.7509,0.7777,0.7883,0.8586,0.8857,0.8745,0.8143,0.7877,0.7937,0.8692,0.7931,0.6853,0.6853,0.6853,0.6902,0.6853,0.7337,0.7664,0.6912,0.7289,0.7557,0.6858,0.6696,0.6465,0.5725,0.5554,0.512,0.3701,0.2863,0.2231,0.1542,0.0163,-0.0759,-0.0609,-0.126,-0.1988,-0.253,-0.3016,-0.3763,-0.4862,-0.7011,-0.8558,-0.9151,-1.0651,-1.1718,-1.2224,-1.2224,-1.2864,-1.4233,-1.4296,-1.4929,-1.6176,-1.6485,-1.667,-1.6763,-1.7126,-1.7452,0.2682,0.0,0.1715,0.1715,0.2339,0.3055,0.0,0.4039,0.4497,0.5241,0.5519,0.5755,0.6221,0.6226,0.6468,0.7304,0.745,0.7563,0.0,0.0,0.0,0.0,0.0,0.0,0.0,0.0,0.0,0.0,0.0,0.0,0.0,0.0,0.6809,0.6598,0.6263,0.6367,0.6961,0.7654,0.8092,0.8349,0.8858,0.8903,0.857,0.8425,0.0,0.0,0.0,0.0,0.8268,0.8331,0.8318,0.8262,0.8262,0.8262,0.8321,0.848,0.8533,0.8586,0.8752,0.9159,0.9607,0.9946,0.9392,0.8738,0.9961,0.9747,0.9072,0.9072,0.9422,0.9673,0.9169,0.9183,0.9138,0.8474,0.8427,0.8321,0.7616,0.745,0.7235,0.6465,0.6357,0.6072,0.512,0.4837,0.4277,0.3009,0.253,0.1869,0.0814,0.0583,0.0052,-0.1184,-0.1356,-0.1717,-0.2509,-0.5106,-0.7073,-0.7998,-0.8437,-0.9271,-1.0606,-1.0644,-1.133,-1.2842,-1.3167,-1.3826,-1.4838,-1.4914,-1.5476,-1.6421,-1.6987,-1.7386,0.3911,0.3223,0.2573,0.2854,0.3313,0.3881,0.4487,0.4814,0.5155,0.585,0.5978,0.6222,0.7035,0.6976,0.7124,0.8069,0.8103,0.0,0.0,0.0,0.0,0.0,0.0,0.0,0.0,0.0,0.0,0.0,0.0,0.0,0.0,0.0,0.7695,0.7622,0.761,0.7561,0.74,0.8062,0.8537,0.8732,0.923,0.9325,0.9031,0.8878,0.0,0.0,0.0,0.0,0.8804,0.9106,0.9263,0.9316,0.9614,0.971,0.971,0.971,0.971,0.971,0.971,0.9961,1.0312,1.0661,1.032,0.9865,1.0568,1.0762,1.0661,1.0364,1.0517,1.0712,1.0364,1.0261,1.0167,0.9814,0.9465,0.9256,0.9124,0.8862,0.8659,0.8528,0.8521,0.8193,0.7164,0.6951,0.6469,0.5023,0.4525,0.3917,0.2764,0.2368,0.1793,0.0633,0.0296,-0.0047,-0.0425,-0.2474,-0.4303,-0.5669,-0.6505,-0.7323,-0.8198,-0.8771,-0.9858,-1.164,-1.2282,-1.3002,-1.3762,-1.3762,-1.4318,-1.5433,-1.6095,-1.6708,0.4602,0.3875,0.323,0.3783,0.4159,0.4546,0.5189,0.5429,0.5727,0.6612,0.6633,0.6822,0.8114,0.8011,0.8037,0.8765,0.0,0.0,0.0,0.0,0.0,0.0,0.0,0.0,0.0,0.0,0.0,0.0,0.0,0.0,0.0,0.0,0.0,0.9113,0.9113,0.865,0.7745,0.8161,0.8317,0.8281,0.8935,0.903,0.8804,0.8804,0.8857,0.0,0.0,0.0,0.9159,0.9614,0.9865,1.002,1.0568,1.0813,1.0813,1.0813,1.0813,1.0813,1.0914,1.0864,1.0864,1.1157,1.1107,1.0956,1.1208,1.1557,1.1855,1.1275,1.1166,1.1208,1.1107,1.1107,1.1057,1.0956,1.0407,1.0115,1.0661,1.0364,1.0115,1.0669,1.0813,1.0399,0.9252,0.9044,0.8574,0.7267,0.6533,0.5815,0.5019,0.4464,0.3807,0.2973,0.2198,0.1718,0.1565,0.032,-0.1111,-0.258,-0.4371,-0.5524,-0.5859,-0.7031,-0.856,-1.0432,-1.1249,-1.1943,-1.2548,-1.2606,-1.3229,-1.43,-1.5008,-1.5863,0.4602,0.4314,0.4068,0.4391,0.4803,0.5351,0.6163,0.6383,0.6669,0.7515,0.7682,0.7695,0.7928,0.8594,0.9133,0.0,0.0,0.0,0.0,0.0,0.0,0.0,0.0,0.0,0.0,0.0,0.0,0.0,0.0,0.0,0.0,0.0,0.0,1.0517,1.0517,1.053,1.0647,0.9597,0.8948,0.8711,0.9064,0.903,0.8804,0.8804,0.9113,0.0,0.0,0.9465,1.0466,1.0012,1.0115,1.0661,1.0762,1.0813,1.0813,1.0813,1.0813,1.0864,1.1466,1.1266,1.1057,1.2783,1.2522,1.176,1.2976,1.3024,1.2638,1.2598,1.2977,1.3226,1.2628,1.2473,1.2327,1.1711,1.109,1.0661,1.0762,1.0712,1.0661,1.0762,1.0813,1.0712,1.0501,1.0501,1.0179,0.9379,0.9151,0.8573,0.7276,0.7536,0.7332,0.6009,0.5182,0.4442,0.371,0.2379,0.1386,0.1023,-0.1194,-0.3296,-0.5259,-0.6431,-0.7662,-0.9013,-0.9156,-0.9635,-1.0481,-1.0904,-1.2037,-1.3733,-1.4576,-1.5628,0.5232,0.5511,0.5692,0.5567,0.5529,0.5705,0.6416,0.698,0.749,0.8115,0.8445,0.8633,0.8486,0.0,0.9167,0.9354,0.0,0.0,0.0,0.0,0.0,0.0,0.0,0.0,0.0,0.0,0.0,0.0,0.0,0.0,0.0,0.0,0.0,0.0,1.0813,1.0845,1.1017,1.0399,1.0098,1.0136,1.0098,1.0008,0.9865,0.9865,1.0064,1.0312,0.0,1.021,1.0813,1.0864,1.1065,1.1366,1.1792,1.194,1.194,1.194,1.194,1.1999,1.2295,1.2197,1.2138,1.3389,1.3369,1.3004,1.3993,1.4075,1.3841,1.3873,1.3826,1.3721,1.3416,1.3595,1.3726,1.3423,1.284,1.2357,1.2434,1.2141,1.1904,1.194,1.194,1.1931,1.1895,1.1557,1.1199,1.0847,1.0511,0.9908,0.8847,0.9336,0.9256,0.7862,0.7589,0.7266,0.6471,0.5443,0.3965,0.191,0.0133,-0.1456,-0.2818,-0.3995,-0.5169,-0.6312,-0.6975,-0.7654,-0.8342,-0.9499,-1.076,-1.2118,-1.3002,-1.4276,0.5944,0.6445,0.6811,0.6449,0.6389,0.6499,0.6936,0.769,0.8465,0.8927,0.9358,0.9551,0.9283,0.9361,0.0,0.0,0.0,0.0,0.0,0.0,0.0,0.0,0.0,0.0,0.0,0.0,0.0,0.0,0.0,0.0,0.0,0.0,0.0,0.0,1.1275,1.1275,1.1275,1.1275,1.1268,1.1181,1.0894,1.0813,1.0813,1.0813,1.0864,1.1015,1.0864,1.0973,1.1325,1.1665,1.1913,1.2129,1.2666,1.2968,1.3152,1.3296,1.3344,1.3344,1.3344,1.3344,1.343,1.405,1.4226,1.4318,1.4789,1.4926,1.488,1.4744,1.4468,1.4226,1.4226,1.4549,1.4926,1.4926,1.4389,1.3961,1.3993,1.3606,1.3263,1.3334,1.32,1.3132,1.3215,1.2686,1.2288,1.2396,1.2015,1.1472,1.0722,1.1195,1.1178,0.9969,1.0043,0.9739,0.8734,0.7842,0.6203,0.35,0.1956,0.0752,-0.0216,-0.1135,-0.2312,-0.368,-0.4626,-0.5439,-0.6091,-0.7565,-0.8963,-1.0246,-1.1068,-1.258,0.6457,0.649,0.6523,0.6499,0.7479,0.8479,0.8387,0.8967,0.9763,1.0508,1.0647,1.0607,1.0349,1.0815,0.0,0.0,0.0,0.0,0.0,0.0,0.0,0.0,0.0,0.0,0.0,0.0,0.0,0.0,0.0,0.0,0.0,0.0,0.0,0.0,0.0,1.2774,1.2774,1.2774,1.2116,1.0854,1.083,1.0813,1.0813,1.0813,1.1166,1.1715,1.1065,1.1534,1.2715,1.208,1.2187,1.2832,1.2881,1.3238,1.3779,1.4376,1.456,1.456,1.456,1.456,1.4652,1.5276,1.5487,1.5499,1.5543,1.5543,1.541,1.488,1.505,1.5487,1.5487,1.5499,1.5543,1.5543,1.505,1.4652,1.4652,1.4606,1.456,1.456,1.4107,1.3909,1.4468,1.4039,1.3852,1.4411,1.4457,1.4157,1.3496,1.3996,1.4147,1.3439,1.275,1.1552,0.9485,0.8239,0.769,0.7903,0.5852,0.3728,0.1676,0.1503,0.0385,-0.193,-0.206,-0.2636,-0.3738,-0.4354,-0.5991,-0.8511,-0.9064,-1.0845,0.7168,0.7627,0.7812,0.7054,0.8521,0.9817,0.8591,0.9157,1.0188,1.1006,1.1414,1.1595,1.1336,0.0,0.0,0.0,0.0,0.0,0.0,0.0,0.0,0.0,0.0,0.0,0.0,0.0,0.0,0.0,0.0,0.0,0.0,0.0,0.0,0.0,0.0,1.2881,1.2881,1.2881,1.2618,1.2107,1.2107,1.2107,1.2107,1.2107,1.2255,1.2452,1.2206,1.2412,1.2881,1.2608,1.2666,1.2929,1.3334,1.3826,1.4376,1.4617,1.4698,1.4698,1.4698,1.4698,1.4789,1.541,1.5588,1.5676,1.6051,1.6151,1.6095,1.5876,1.5964,1.6051,1.5688,1.5864,1.6151,1.6151,1.5964,1.57,1.532,1.5276,1.5141,1.4789,1.4514,1.456,1.5141,1.4778,1.456,1.5186,1.4926,1.4606,1.4343,1.4858,1.5005,1.4389,1.4068,1.3464,1.2288,1.1792,1.1219,1.045,0.7398,0.5257,0.4528,0.3751,0.2767,0.1518,0.1356,0.0957,0.0299,-0.1468,-0.298,-0.4302,-0.5878,-0.8252,0.7791,0.8429,0.8743,0.7762,0.9177,1.0565,0.9543,1.0084,1.0993,1.1696,1.2202,1.2341,1.1985,0.0,0.0,0.0,0.0,0.0,0.0,0.0,0.0,0.0,0.0,0.0,0.0,0.0,0.0,0.0,0.0,0.0,0.0,0.0,0.0,0.0,0.0,0.0,1.3478,1.3478,1.3478,1.3478,1.3478,1.3296,1.2881,1.2881,1.2881,1.2881,1.2881,1.2881,1.2929,1.3104,1.3286,1.3515,1.4143,1.4641,1.5017,1.5197,1.5242,1.5242,1.5242,1.5242,1.5344,1.5732,1.5864,1.5952,1.638,1.6522,1.6522,1.6522,1.6637,1.6667,1.6244,1.6312,1.6522,1.6522,1.6522,1.638,1.5952,1.5864,1.5776,1.5332,1.5107,1.5197,1.5776,1.5543,1.5365,1.582,1.5676,1.5454,1.5287,1.5644,1.5732,1.5287,1.5107,1.4823,1.4481,1.4147,1.3507,1.2472,0.9848,0.8048,0.7349,0.6508,0.5717,0.4977,0.4623,0.4264,0.3789,0.1873,0.0617,-0.0042,-0.2255,-0.4733,0.8319,0.8715,0.8983,0.8527,0.9419,1.0661,1.1619,1.2047,1.2395,1.2829,1.2969,1.2826,1.2319,1.2645,0.0,0.0,0.0,0.0,0.0,0.0,0.0,0.0,0.0,0.0,0.0,0.0,0.0,0.0,0.0,0.0,0.0,0.0,0.0,0.0,0.0,0.0,1.4698,1.4698,1.4698,1.4698,1.4698,1.4061,1.2929,1.2929,1.2929,1.2929,1.2929,1.2929,1.2968,1.3552,1.4143,1.4744,1.5365,1.5588,1.5676,1.6281,1.6522,1.6522,1.6522,1.6522,1.6522,1.6522,1.6522,1.6522,1.6522,1.6522,1.6522,1.6522,1.6879,1.7312,1.7312,1.6909,1.6522,1.6522,1.6522,1.6522,1.6522,1.6522,1.6522,1.6522,1.6051,1.582,1.6423,1.6471,1.6446,1.6509,1.6951,1.7118,1.6595,1.6522,1.6522,1.6522,1.5996,1.5632,1.562,1.469,1.4111,1.4111,1.369,1.2401,1.0094,0.9969,0.9402,0.825,0.7582,0.6995,0.6439,0.5771,0.4956,0.3886,0.1678,-0.0233,0.9074,0.9433,0.97,0.9343,1.0619,1.203,1.2318,1.2098,1.21,1.2802,1.3,1.2996,1.2781,0.0,0.0,0.0,0.0,0.0,0.0,0.0,0.0,0.0,0.0,0.0,0.0,0.0,0.0,0.0,0.0,0.0,0.0,0.0,0.0,0.0,0.0,0.0,1.4698,1.4698,1.4698,1.4698,1.4698,1.4525,1.4165,1.4165,1.4165,1.4165,1.4165,1.4165,1.4201,1.434,1.4778,1.5365,1.5543,1.5864,1.6238,1.6423,1.6522,1.6522,1.6522,1.6752,1.7076,1.7076,1.7312,1.7544,1.7188,1.7076,1.6993,1.6595,1.6879,1.7312,1.7312,1.7463,1.7544,1.7146,1.6752,1.6595,1.6993,1.7076,1.7146,1.7544,1.7175,1.6841,1.7021,1.7063,1.705,1.7063,1.7504,1.7666,1.7105,1.7394,1.7463,1.7118,1.7244,1.706,1.6316,1.5975,1.548,1.4731,1.4825,1.3831,1.1388,1.1217,1.0627,0.9486,0.9927,1.0136,1.0118,0.942,0.8753,0.8091,0.6208,0.4033,0.9658,1.0079,1.0421,1.0224,1.1388,1.2551,1.2551,1.258,1.2657,1.2947,1.3033,1.3084,1.3022,0.0,0.0,0.0,0.0,0.0,0.0,0.0,0.0,0.0,0.0,0.0,0.0,0.0,0.0,0.0,0.0,0.0,0.0,0.0,0.0,0.0,0.0,0.0,1.5433,1.5433,1.5433,1.5433,1.5433,1.5433,1.5389,1.4926,1.4698,1.4698,1.4698,1.4835,1.505,1.505,1.541,1.5952,1.5952,1.6194,1.6522,1.6522,1.6522,1.6522,1.6752,1.7034,1.7353,1.7544,1.7827,1.8027,1.7706,1.7626,1.7544,1.7229,1.7504,1.7947,1.7947,1.8185,1.8302,1.7747,1.7394,1.7229,1.7544,1.7626,1.7706,1.8027,1.7827,1.7626,1.7626,1.7787,1.7867,1.7666,1.7907,1.8052,1.7906,1.8182,1.8324,1.8166,1.8271,1.8107,1.7477,1.7231,1.694,1.6487,1.6547,1.5878,1.4299,1.3588,1.2882,1.2191,1.2631,1.3068,1.3463,1.2744,1.2406,1.2315,1.0021,0.8084,1.0096,1.0594,1.1026,1.1182,1.1931,1.2651,1.2651,1.3309,1.3743,1.3148,0.0,1.3151,0.0,0.0,0.0,0.0,0.0,0.0,0.0,0.0,0.0,0.0,0.0,0.0,0.0,0.0,0.0,0.0,0.0,0.0,0.0,0.0,0.0,0.0,0.0,0.0,1.6522,1.6522,1.6522,0.0,1.6522,1.6522,1.6479,1.5377,1.488,1.488,1.488,1.5197,1.5676,1.5676,1.6039,1.6552,1.6552,1.6595,1.6637,1.6637,1.6637,1.671,1.7188,1.7394,1.7544,1.8027,1.8224,1.8263,1.8185,1.8185,1.8185,1.8106,1.8535,1.8954,1.8954,1.9006,1.8916,1.8405,1.821,1.8106,1.8185,1.8185,1.8185,1.8263,1.8224,1.8185,1.8185,1.8574,1.8727,1.8302,1.8263,1.8391,1.8829,1.8904,1.906,1.942,1.9177,1.8964,1.8927,1.8478,1.8377,1.8792,1.8454,1.82,1.8071,1.6527,1.5644,1.5596,1.5384,1.5593,1.6229,1.5708,1.5708,1.6258,1.3376,1.2025,1.046,1.0701,1.1046,1.1919,1.2926,1.3752,1.3752,1.3915,1.3885,1.3217,1.3478,0.0,0.0,0.0,0.0,0.0,0.0,0.0,0.0,0.0,0.0,0.0,0.0,0.0,0.0,0.0,0.0,0.0,0.0,0.0,0.0,0.0,0.0,0.0,0.0,1.6522,1.6522,1.6522,1.6522,0.0,1.6522,1.6522,1.6479,1.6238,1.6107,1.6107,1.6107,1.6194,1.6293,1.6293,1.6612,1.7105,1.7105,1.7394,1.7747,1.7747,1.7747,1.7787,1.7907,1.8224,1.8574,1.8688,1.9006,1.9281,1.8855,1.8727,1.865,1.8224,1.8774,1.9441,1.9441,1.9728,1.9989,1.9869,1.8948,1.8224,1.865,1.8727,1.8855,1.9281,1.9006,1.8727,1.8727,1.8817,1.9006,1.9332,1.9369,1.9376,1.9426,1.9748,1.9978,2.0005,2.0338,2.0353,1.9917,1.9504,1.9156,1.8829,1.9119,1.9243,1.9239,1.7676,1.6615,1.6216,1.6408,1.6795,1.7422,1.7653,1.7855,1.7935,1.6553,1.6036,1.0803,1.1053,1.1443,1.2526,1.3232,1.3659,1.3659,1.3659,1.3576,1.324,0.0,0.0,0.0,0.0,0.0,0.0,0.0,0.0,0.0,0.0,0.0,0.0,0.0,0.0,0.0,0.0,0.0,0.0,0.0,0.0,0.0,0.0,0.0,0.0,1.6522,1.6522,1.6522,1.6522,1.6522,1.6522,1.6522,1.6637,1.6879,1.6879,1.6879,1.6909,1.7146,1.7271,1.7271,1.7271,1.7422,1.7666,1.7666,1.7867,1.8106,1.8106,1.8106,1.8145,1.838,1.865,1.893,1.9207,1.9479,1.9639,1.9369,1.9281,1.9207,1.893,1.9251,1.9687,1.9884,2.0128,2.0348,2.0583,1.9743,1.9006,1.9456,1.9564,1.9636,1.9914,1.9758,1.9507,1.9317,1.9434,1.9687,1.9965,2.0,1.9984,1.9954,2.0333,2.0699,2.0847,2.1118,2.118,2.0911,2.0503,2.0218,2.0138,2.0218,2.0351,2.0569,1.9587,1.8746,1.823,1.8586,1.892,1.923,1.9496,1.96,1.96,1.8797,1.8467,1.1137,1.1544,1.2057,1.307,1.3267,1.3232,1.3301,1.3323,1.3323,0.0,0.0,0.0,0.0,0.0,0.0,0.0,0.0,0.0,0.0,0.0,0.0,0.0,0.0,0.0,0.0,0.0,0.0,0.0,0.0,0.0,0.0,0.0,1.6522,1.6522,1.6522,1.6522,1.6522,1.6595,1.6637,1.6637,1.671,1.6993,1.7422,1.7544,1.7544,1.7463,1.7907,1.8106,1.8106,1.8106,1.8145,1.8263,1.8263,1.8302,1.838,1.838,1.838,1.8458,1.8893,1.9043,1.9132,1.9566,1.969,1.969,1.969,1.969,1.969,1.969,1.9818,2.0015,2.0314,2.0483,2.0601,2.1023,2.0499,1.998,2.0261,2.0348,2.0382,2.0314,2.0382,2.0296,1.9874,2.0158,2.0382,2.0314,2.0382,2.0449,2.0516,2.0846,2.1244,2.1688,2.1718,2.1718,2.1718,2.1337,2.1244,2.1582,2.1275,2.1244,2.1582,2.1354,2.1023,2.0588,2.0879,2.1004,2.1004,2.1097,2.1128,2.1128,2.0367,2.0022,1.1475,1.2175,1.2894,1.3644,1.348,1.3288,0.0,0.0,1.3802,0.0,0.0,0.0,0.0,0.0,0.0,0.0,0.0,0.0,0.0,0.0,0.0,0.0,0.0,0.0,0.0,0.0,0.0,0.0,0.0,0.0,0.0,1.6522,1.6522,1.6522,1.6522,1.6522,1.6522,1.6951,1.7188,1.7188,1.7666,1.7907,1.8027,1.8458,1.8419,1.7987,1.8066,1.8106,1.8106,1.8106,1.838,1.8779,1.8779,1.908,1.9479,1.9479,1.9479,1.9479,1.9566,1.9603,1.9603,1.969,1.969,1.969,1.969,1.969,1.969,1.969,2.0243,2.0829,2.0894,2.1181,2.146,2.1491,2.1181,2.0731,2.0382,2.0616,2.0797,2.0382,2.0616,2.0764,2.028,2.0583,2.0764,2.0348,2.0665,2.1023,2.1399,2.1491,2.1705,2.2163,2.2209,2.2209,2.2209,2.1794,2.1521,2.1598,2.1552,2.1552,2.1582,2.1945,2.2106,2.2032,2.1943,2.1922,2.1922,2.2272,2.2434,2.2407,2.1234,2.1248,1.1654,1.2224,1.2923,1.3547,1.3811,1.4,1.4181,0.0,0.0,0.0,0.0,0.0,0.0,0.0,0.0,0.0,0.0,0.0,0.0,0.0,0.0,0.0,0.0,0.0,0.0,0.0,0.0,0.0,0.0,0.0,1.6522,1.6795,1.6951,1.6951,1.7229,1.7394,1.7394,1.7626,1.7747,1.7747,1.7987,1.8263,1.8574,1.8779,1.8765,1.8574,1.8855,1.9006,1.9006,1.9006,1.9132,1.9369,1.9369,1.9479,1.9726,1.9929,1.9909,1.9782,2.0243,2.0277,2.007,2.033,2.0447,2.0447,2.0447,2.0227,2.0104,2.0345,2.0532,2.0715,2.1213,2.146,2.1658,2.1928,2.184,2.1615,2.1134,2.1197,2.1275,2.107,2.1007,2.0991,2.1039,2.1197,2.1275,2.107,2.1197,2.1306,2.1275,2.146,2.1688,2.1899,2.2135,2.231,2.231,2.2106,2.2003,2.2003,2.2136,2.2214,2.2214,2.2412,2.251,2.251,2.2459,2.2441,2.2441,2.2805,2.2972,2.2972,2.2409,2.2531,1.1925,1.2243,1.2733,1.3384,1.3894,1.4339,0.0,0.0,0.0,0.0,0.0,0.0,0.0,0.0,0.0,0.0,0.0,0.0,0.0,0.0,0.0,0.0,0.0,0.0,0.0,0.0,0.0,0.0,0.0,0.0,1.6909,1.7312,1.7504,1.7504,1.7907,1.8106,1.8106,1.8263,1.838,1.8496,1.8496,1.8727,1.9095,1.9095,1.9095,1.9132,1.953,1.969,1.969,1.969,1.969,1.969,1.969,1.9747,1.9874,2.0193,2.0193,2.0104,2.0764,2.0748,2.055,2.0894,2.0991,2.0991,2.0991,2.0764,2.055,2.0894,2.0813,2.0765,2.1413,2.1688,2.1869,2.2209,2.231,2.2209,2.1853,2.1688,2.1658,2.1748,2.1538,2.1385,2.1552,2.1688,2.1718,2.1628,2.1688,2.1658,2.1354,2.1598,2.1807,2.1861,2.2147,2.2321,2.2415,2.2349,2.231,2.231,2.2563,2.2695,2.2695,2.2772,2.2822,2.2822,2.2923,2.2923,2.2822,2.3069,2.3236,2.3323,2.3236,2.3343,1.2469,1.2395,1.2448,1.3389,1.3567,1.3917,0.0,0.0,0.0,0.0,0.0,0.0,0.0,0.0,0.0,0.0,0.0,0.0,0.0,0.0,0.0,0.0,0.0,0.0,0.0,0.0,0.0,0.0,0.0,0.0,1.7987,1.8027,1.8066,1.8066,1.8106,1.8106,1.8106,1.8612,1.9132,1.9603,1.9603,1.9639,1.9639,1.9639,1.9639,1.9639,1.969,1.969,1.969,1.969,1.969,1.969,1.969,1.9929,2.028,2.028,2.055,2.0926,2.0991,2.0991,2.0959,2.0991,2.0991,2.0991,2.0991,2.0991,2.0959,2.0991,2.1244,2.1552,2.1582,2.1928,2.2282,2.2282,2.231,2.2282,2.2282,2.1899,2.1718,2.218,2.2254,2.2106,2.1658,2.1974,2.2106,2.1658,2.1974,2.2254,2.2254,2.2254,2.2371,2.2634,2.2436,2.2398,2.266,2.2453,2.231,2.231,2.2563,2.2695,2.2695,2.3021,2.3165,2.3165,2.35,2.35,2.3165,2.3189,2.3369,2.3671,2.3346,2.3472,1.2363,1.2709,1.3092,1.3085,1.3826,1.4673,0.0,0.0,0.0,0.0,0.0,0.0,0.0,0.0,0.0,0.0,0.0,0.0,0.0,0.0,0.0,0.0,0.0,0.0,0.0,0.0,0.0,0.0,0.0,0.0,1.8106,1.8419,1.8612,1.8612,1.8968,1.9132,1.9132,1.9332,1.953,1.969,1.969,1.9854,2.0089,2.0089,2.0261,2.0532,2.0532,2.0208,1.969,1.969,1.969,1.9726,2.0,2.0193,2.0382,2.0927,2.107,2.1071,2.1645,2.1645,2.143,2.1751,2.184,2.184,2.184,2.1615,2.1446,2.1751,2.1735,2.1658,2.1957,2.2163,2.231,2.231,2.231,2.231,2.231,2.218,2.2106,2.2282,2.231,2.2254,2.2077,2.218,2.2237,2.2061,2.218,2.231,2.231,2.231,2.2398,2.2669,2.2625,2.2678,2.2996,2.294,2.2798,2.2563,2.3063,2.3253,2.3021,2.3346,2.3522,2.3522,2.3414,2.3414,2.3522,2.3753,2.3896,2.4016,2.3671,2.3868,1.251,1.2864,1.3177,0.0,1.3938,1.4972,0.0,0.0,0.0,0.0,0.0,0.0,0.0,0.0,0.0,0.0,0.0,0.0,0.0,0.0,0.0,0.0,0.0,0.0,0.0,0.0,0.0,0.0,0.0,0.0,1.8612,1.8968,1.9169,1.9169,1.953,1.9747,1.9909,1.9909,1.998,2.0154,2.0154,2.0277,2.0516,2.0516,2.0731,2.0991,2.0991,2.0665,2.0154,2.0154,2.0154,2.0139,2.0416,2.0616,2.0797,2.1399,2.1538,2.1524,2.2106,2.2106,2.1899,2.2209,2.231,2.231,2.231,2.2077,2.1899,2.2209,2.2077,2.1899,2.2209,2.231,2.2321,2.2398,2.2377,2.2321,2.2426,2.236,2.231,2.231,2.231,2.231,2.231,2.236,2.2409,2.2409,2.2409,2.2409,2.2409,2.2409,2.2554,2.2848,2.2873,2.2996,2.3346,2.3259,2.3093,2.2873,2.3392,2.3588,2.3369,2.3692,2.3876,2.3876,2.3649,2.3649,2.3876,2.3976,2.4094,2.419,2.3976,2.4192,0.0,0.0,0.0,0.0,0.0,0.0,0.0,0.0,0.0,0.0,0.0,0.0,0.0,0.0,0.0,0.0,0.0,0.0,0.0,0.0,0.0,0.0,0.0,0.0,0.0,0.0,0.0,0.0,0.0,1.914,1.969,1.969,1.969,1.969,1.9711,1.9909,2.0314,2.0314,2.055,2.0991,2.0991,2.1007,2.1023,2.1023,2.1039,2.1039,2.1039,2.1039,2.1039,2.1007,2.0991,2.0991,2.0991,2.1244,2.1582,2.1628,2.1899,2.231,2.231,2.231,2.231,2.231,2.231,2.231,2.231,2.231,2.231,2.231,2.231,2.231,2.231,2.231,2.2377,2.2634,2.25,2.2388,2.2634,2.25,2.231,2.231,2.231,2.231,2.231,2.2527,2.2695,2.2695,2.2721,2.2721,2.2721,2.2721,2.2848,2.3165,2.3212,2.3346,2.3692,2.3414,2.323,2.323,2.3522,2.3714,2.3692,2.4016,2.419,2.419,2.419,2.419,2.4209,2.3876,2.3896,2.419,2.4227,2.4428,1.3049,0.0,0.0,0.0,0.0,0.0,0.0,0.0,0.0,0.0,0.0,0.0,0.0,0.0,0.0,0.0,0.0,0.0,0.0,0.0,0.0,0.0,0.0,0.0,0.0,0.0,0.0,0.0,1.8747,1.9025,1.966,1.969,1.969,1.969,1.9965,2.0193,2.0314,2.0616,2.0862,2.0991,2.0991,2.115,2.143,2.143,2.1598,2.1945,2.1945,2.1945,2.1886,2.126,2.0991,2.1039,2.1306,2.1491,2.1658,2.1974,2.218,2.231,2.231,2.231,2.231,2.231,2.231,2.231,2.231,2.231,2.231,2.231,2.231,2.231,2.231,2.231,2.2338,2.2371,2.25,2.2625,2.2669,2.2634,2.2537,2.2349,2.231,2.231,2.231,2.2527,2.2695,2.2695,2.2923,2.3069,2.3069,2.3069,2.3189,2.3522,2.3566,2.3692,2.4036,2.3976,2.3816,2.3566,2.3876,2.3937,2.3714,2.4016,2.419,2.419,2.419,2.4266,2.4428,2.4172,2.4113,2.419,2.4339,2.4543,1.3329,1.3346,1.3312,0.0,0.0,0.0,1.3615,1.4027,0.0,0.0,0.0,0.0,0.0,0.0,0.0,0.0,0.0,0.0,0.0,0.0,0.0,0.0,0.0,0.0,0.0,0.0,0.0,0.0,1.8639,1.8986,1.9645,1.9874,1.9929,1.9929,2.0364,2.0682,2.083,2.1102,2.1354,2.1554,2.1554,2.1675,2.1899,2.1899,2.2032,2.231,2.231,2.231,2.2254,2.1751,2.1554,2.1554,2.1794,2.1899,2.1928,2.2209,2.231,2.231,2.231,2.231,2.231,2.231,2.231,2.231,2.231,2.231,2.231,2.231,2.231,2.231,2.231,2.231,2.2349,2.2624,2.2678,2.2772,2.3069,2.3021,2.2822,2.2527,2.2388,2.231,2.231,2.2643,2.2923,2.2923,2.3189,2.3414,2.3414,2.3414,2.3482,2.3671,2.3816,2.3996,2.417,2.419,2.4132,2.3917,2.4094,2.4113,2.3917,2.4094,2.419,2.419,2.419,2.4303,2.4495,2.4303,2.419,2.419,2.4321,2.4528,1.3856,1.3696,1.3532,0.0,0.0,0.0,1.3549,1.3824,0.0,0.0,0.0,0.0,0.0,0.0,0.0,0.0,0.0,0.0,0.0,0.0,0.0,0.0,0.0,0.0,0.0,0.0,1.7492,1.8114,1.8583,1.908,1.9682,2.0162,2.0382,2.0382,2.0829,2.1244,2.1598,2.1658,2.1899,2.231,2.231,2.231,2.231,2.231,2.231,2.231,2.231,2.231,2.231,2.231,2.231,2.231,2.231,2.231,2.231,2.231,2.231,2.231,2.231,2.231,2.231,2.231,2.231,2.231,2.231,2.231,2.231,2.231,2.231,2.231,2.231,2.2321,2.248,2.3014,2.2972,2.2972,2.3566,2.3477,2.3165,2.2873,2.2581,2.2405,2.2349,2.2849,2.3236,2.3212,2.3522,2.3774,2.3774,2.3774,2.3774,2.3774,2.4016,2.419,2.419,2.419,2.419,2.419,2.419,2.419,2.419,2.419,2.419,2.419,2.4247,2.4339,2.4495,2.4339,2.4284,2.4284,2.4247,2.4445,0.0,0.0,0.0,0.0,0.0,0.0,1.343,1.3481,0.0,0.0,0.0,0.0,0.0,0.0,0.0,0.0,0.0,0.0,0.0,0.0,0.0,0.0,0.0,0.0,0.0,0.0,1.7178,1.7832,1.8979,1.972,1.9846,2.0495,2.0862,2.0862,2.1275,2.1521,2.1582,2.1957,2.2209,2.231,2.231,2.231,2.231,2.231,2.231,2.231,2.231,2.231,2.231,2.231,2.231,2.231,2.231,2.231,2.231,2.231,2.231,2.231,2.231,2.231,2.231,2.231,2.231,2.231,2.231,2.231,2.231,2.231,2.231,2.231,2.231,2.2463,2.2634,2.2772,2.3165,2.3544,2.3671,2.3649,2.3588,2.3522,2.3253,2.294,2.266,2.3183,2.3522,2.3236,2.3714,2.4094,2.4094,2.4094,2.4094,2.4094,2.417,2.419,2.419,2.419,2.419,2.419,2.419,2.419,2.419,2.419,2.419,2.419,2.4528,2.4623,2.4495,2.4623,2.4685,2.4685,2.4528,2.4559,0.0,0.0,0.0,1.4477,0.0,0.0,0.0,1.3396,1.2973,0.0,0.0,0.0,0.0,0.0,0.0,0.0,0.0,0.0,0.0,0.0,0.0,0.0,0.0,0.0,0.0,0.0,1.7242,1.7752,1.8442,1.9172,1.9843,2.0441,2.0933,2.129,2.1735,2.1957,2.1957,2.218,2.231,2.231,2.231,2.231,2.231,2.231,2.231,2.231,2.231,2.231,2.231,2.231,2.231,2.231,2.231,2.231,2.231,2.231,2.231,2.231,2.231,2.231,2.2321,2.2463,2.2398,2.2321,2.2463,2.25,2.2527,2.2695,2.2634,2.25,2.25,2.2599,2.2746,2.2923,2.3346,2.3753,2.3917,2.3937,2.3937,2.3937,2.3816,2.3544,2.3045,2.3369,2.3631,2.3459,2.3876,2.419,2.419,2.419,2.419,2.419,2.419,2.419,2.419,2.419,2.419,2.419,2.419,2.419,2.419,2.419,2.419,2.419,2.4495,2.4654,2.4654,2.4809,2.4869,2.4804,2.47,2.47,0.0,0.0,0.0,0.0,0.0,1.4821,0.0,0.0,0.0,1.3446,0.0,0.0,0.0,0.0,0.0,0.0,0.0,0.0,0.0,0.0,0.0,0.0,0.0,0.0,0.0,0.0,1.7519,1.7775,1.7936,1.8582,1.9844,2.0373,2.0957,2.1702,2.2106,2.231,2.231,2.231,2.231,2.231,2.231,2.231,2.231,2.231,2.231,2.231,2.231,2.231,2.231,2.231,2.231,2.231,2.231,2.231,2.231,2.231,2.2338,2.2405,2.2388,2.2415,2.2508,2.2738,2.2669,2.2517,2.2738,2.2797,2.2848,2.3117,2.3021,2.2797,2.2797,2.2848,2.2972,2.3212,2.3544,2.3876,2.4151,2.419,2.419,2.419,2.419,2.4016,2.3392,2.3566,2.3774,2.3714,2.3996,2.419,2.419,2.419,2.419,2.419,2.419,2.419,2.419,2.419,2.419,2.419,2.419,2.419,2.419,2.419,2.419,2.419,2.4393,2.4591,2.4804,2.4924,2.4949,2.4902,2.4855,2.4842,0.0,0.0,0.0,0.0,1.5107,0.0,0.0,0.0,1.3798,1.3617,0.0,1.354,1.3413,0.0,0.0,0.0,0.0,0.0,0.0,0.0,0.0,0.0,0.0,0.0,0.0,0.0,1.7777,1.7799,1.8404,1.9126,1.9941,2.0709,2.1461,2.2192,2.2282,2.231,2.231,2.231,2.231,2.231,2.231,2.231,2.231,2.231,2.231,2.231,2.231,2.231,2.231,2.231,2.231,2.231,2.231,2.231,2.231,2.231,2.2497,2.2738,2.2678,2.2865,2.3093,2.3117,2.3117,2.3093,2.3117,2.3141,2.3141,2.3189,2.3165,2.3141,2.3141,2.3369,2.3606,2.3631,2.3896,2.4151,2.419,2.419,2.419,2.419,2.419,2.4074,2.3714,2.3917,2.4036,2.3735,2.3996,2.419,2.419,2.419,2.419,2.419,2.419,2.419,2.419,2.419,2.419,2.419,2.419,2.419,2.419,2.419,2.419,2.419,2.4393,2.4591,2.4804,2.4924,2.5088,2.5243,2.5065,2.4974,0.0,0.0,0.0,0.0,0.0,0.0,0.0,0.0,1.4149,0.0,0.0,0.0,0.0,0.0,0.0,0.0,0.0,0.0,0.0,0.0,0.0,0.0,0.0,0.0,0.0,0.0,0.0,0.0,0.0,1.8115,1.9299,1.9672,2.0416,2.1617,2.1651,2.187,2.231,2.231,2.231,2.231,2.231,2.231,2.231,2.231,2.231,2.231,2.231,2.231,2.231,2.231,2.231,2.231,2.231,2.231,2.231,2.231,2.2508,2.2755,2.2695,2.2923,2.3189,2.3189,2.3346,2.35,2.35,2.35,2.3522,2.3732,2.3649,2.35,2.35,2.3588,2.3692,2.3692,2.3955,2.419,2.419,2.419,2.419,2.419,2.419,2.4151,2.4016,2.4094,2.4151,2.4016,2.4113,2.419,2.419,2.419,2.419,2.419,2.419,2.419,2.419,2.419,2.419,2.419,2.4321,2.4321,2.419,2.4321,2.4321,2.419,2.4284,2.4409,2.4623,2.4814,2.4968,2.5141,2.5163,2.5111,2.0503,0.0,0.0,0.0,0.0,0.0,0.0,0.0,0.0,0.0,0.0,0.0,0.0,0.0,1.3394,1.319,0.0,0.0,0.0,0.0,0.0,0.0,0.0,0.0,0.0,0.0,0.0,0.0,1.6982,1.7342,1.8809,1.8894,1.9604,2.1153,2.1204,2.1549,2.231,2.231,2.231,2.231,2.231,2.231,2.231,2.231,2.231,2.231,2.231,2.231,2.231,2.231,2.231,2.231,2.231,2.231,2.231,2.2388,2.259,2.2848,2.2947,2.3189,2.3459,2.3459,2.3649,2.3837,2.3837,2.3837,2.3896,2.4113,2.4016,2.3837,2.3837,2.3837,2.3837,2.3837,2.4016,2.419,2.419,2.419,2.419,2.419,2.419,2.419,2.419,2.419,2.419,2.419,2.419,2.419,2.419,2.419,2.419,2.419,2.419,2.419,2.419,2.419,2.419,2.419,2.4393,2.4426,2.4284,2.4478,2.4512,2.4357,2.4321,2.4375,2.4575,2.4731,2.4883,2.4991,2.5214,2.5214,0.0,0.0,0.0,1.8317,0.0,0.0,0.0,0.0,1.6543,0.0,0.0,0.0,0.0,1.3739,1.3359,1.2632,1.2998,0.0,0.0,0.0,0.0,0.0,0.0,0.0,0.0,0.0,0.0,1.6682,1.6716,1.7342,1.8809,1.8894,1.9604,2.1153,2.1204,2.1549,2.231,2.231,2.231,2.231,2.231,2.231,2.231,2.231,2.231,2.231,2.231,2.231,2.231,2.231,2.231,2.231,2.231,2.231,2.2321,2.2599,2.2898,2.3212,2.3566,2.3896,2.417,2.417,2.417,2.417,2.417,2.417,2.419,2.4208,2.419,2.417,2.417,2.417,2.417,2.417,2.419,2.419,2.419,2.419,2.419,2.419,2.419,2.419,2.419,2.419,2.419,2.419,2.419,2.419,2.419,2.419,2.419,2.419,2.419,2.419,2.419,2.419,2.419,2.419,2.4393,2.4495,2.4495,2.4685,2.479,2.4775,2.4575,2.4575,2.479,2.4804,2.4883,2.4991,2.5214,2.5303,0.0,0.0,1.9895,1.9106,0.0,0.0,0.0,0.0,0.0,0.0,0.0,0.0,0.0,1.4293,1.3663,1.3286,1.3399,1.3408,0.0,0.0,0.0,0.0,0.0,0.0,0.0,0.0,0.0,1.5866,1.6255,1.6931,1.8115,1.8166,1.886,2.0365,2.0416,2.1025,2.2293,2.231,2.231,2.231,2.231,2.231,2.231,2.231,2.231,2.231,2.231,2.231,2.231,2.231,2.231,2.231,2.231,2.2398,2.259,2.2686,2.2923,2.3277,2.3837,2.4094,2.419,2.419,2.419,2.419,2.419,2.419,2.419,2.419,2.419,2.419,2.419,2.419,2.419,2.419,2.419,2.419,2.419,2.419,2.419,2.419,2.419,2.419,2.419,2.419,2.419,2.419,2.419,2.419,2.419,2.419,2.419,2.419,2.419,2.419,2.419,2.419,2.419,2.419,2.4393,2.4495,2.4495,2.47,2.4804,2.4804,2.4731,2.4731,2.4804,2.4891,2.4949,2.4991,2.5214,2.5303,2.1894,2.1161,0.0,1.9491,1.8904,0.0,1.9179,0.0,0.0,0.0,0.0,0.0,0.0,0.0,1.4392,1.4259,1.3926,1.3678,0.0,1.3527,0.0,0.0,0.0,0.0,0.0,0.0,1.3498,1.3735,1.5172,1.6559,0.0,0.0,1.8464,1.9951,2.0002,2.0728,2.2293,2.231,2.231,2.231,2.231,2.231,2.231,2.231,2.231,2.231,2.231,2.231,2.231,2.231,2.231,2.231,2.2415,2.2537,2.2721,2.2848,2.3165,2.3628,2.4054,2.419,2.419,2.419,2.419,2.419,2.419,2.419,2.419,2.419,2.419,2.419,2.419,2.419,2.419,2.419,2.419,2.419,2.419,2.419,2.419,2.419,2.419,2.419,2.419,2.419,2.419,2.419,2.419,2.419,2.419,2.419,2.419,2.419,2.419,2.419,2.419,2.419,2.419,2.419,2.4393,2.4545,2.4591,2.4785,2.5042,2.5431,2.5061,2.5015,2.5338,2.5114,2.501,2.4991,2.5214,2.5303]}]]